<?xml version="1.0" encoding="UTF-8" standalone="no" ?>
<gpx xmlns="http://www.topografix.com/GPX/1/1" xmlns:xsi="http://www.w3.org/2001/XMLSchema-instance" xsi:schemaLocation="http://www.topografix.com/GPX/1/1 http://www.topografix.com/GPX/1/1/gpx.xsd" version="1.1" creator="VisuGPX - https://www.visugpx.com">
  <metadata>
    <name>GR20</name>
    <desc><![CDATA[GR20 - Juin 2015]]></desc>
  </metadata>
  <trk>
    <name><![CDATA[GR20 E Capannelle - Col Vizzavona]]></name>
    <trkseg>
      <trkpt lat="42.07792" lon="9.14977">
        <ele>1591</ele>
        <time>2015-06-23T04:06:44Z</time>
      </trkpt>
      <trkpt lat="42.07791" lon="9.14974">
        <ele>1591</ele>
        <time>2015-06-23T04:06:46Z</time>
      </trkpt>
      <trkpt lat="42.0779" lon="9.14973">
        <ele>1591.2</ele>
        <time>2015-06-23T04:06:48Z</time>
      </trkpt>
      <trkpt lat="42.07792" lon="9.14968">
        <ele>1592.6</ele>
        <time>2015-06-23T04:06:58Z</time>
      </trkpt>
      <trkpt lat="42.07794" lon="9.14965">
        <ele>1592.2</ele>
        <time>2015-06-23T04:07:03Z</time>
      </trkpt>
      <trkpt lat="42.07798" lon="9.14961">
        <ele>1593.4</ele>
        <time>2015-06-23T04:07:11Z</time>
      </trkpt>
      <trkpt lat="42.07797" lon="9.14956">
        <ele>1593.8</ele>
        <time>2015-06-23T04:07:15Z</time>
      </trkpt>
      <trkpt lat="42.07798" lon="9.14952">
        <ele>1594.6</ele>
        <time>2015-06-23T04:07:19Z</time>
      </trkpt>
      <trkpt lat="42.07799" lon="9.1495">
        <ele>1595.4</ele>
        <time>2015-06-23T04:07:22Z</time>
      </trkpt>
      <trkpt lat="42.07803" lon="9.14951">
        <ele>1597.4</ele>
        <time>2015-06-23T04:07:28Z</time>
      </trkpt>
      <trkpt lat="42.07808" lon="9.14954">
        <ele>1598.8</ele>
        <time>2015-06-23T04:07:35Z</time>
      </trkpt>
      <trkpt lat="42.07811" lon="9.14956">
        <ele>1599.6</ele>
        <time>2015-06-23T04:07:40Z</time>
      </trkpt>
      <trkpt lat="42.0781" lon="9.14958">
        <ele>1599.8</ele>
        <time>2015-06-23T04:07:43Z</time>
      </trkpt>
      <trkpt lat="42.07811" lon="9.14961">
        <ele>1600.4</ele>
        <time>2015-06-23T04:07:49Z</time>
      </trkpt>
      <trkpt lat="42.07811" lon="9.14964">
        <ele>1600.6</ele>
        <time>2015-06-23T04:07:53Z</time>
      </trkpt>
      <trkpt lat="42.0781" lon="9.1497">
        <ele>1602</ele>
        <time>2015-06-23T04:08:00Z</time>
      </trkpt>
      <trkpt lat="42.07812" lon="9.14976">
        <ele>1603.2</ele>
        <time>2015-06-23T04:08:09Z</time>
      </trkpt>
      <trkpt lat="42.07792" lon="9.14979">
        <ele>1605</ele>
        <time>2015-06-23T04:26:44Z</time>
      </trkpt>
      <trkpt lat="42.07792" lon="9.14977">
        <ele>1605.2</ele>
        <time>2015-06-23T04:27:04Z</time>
      </trkpt>
      <trkpt lat="42.07792" lon="9.14979">
        <ele>1605.8</ele>
        <time>2015-06-23T04:27:20Z</time>
      </trkpt>
      <trkpt lat="42.07791" lon="9.14979">
        <ele>1606</ele>
        <time>2015-06-23T04:27:23Z</time>
      </trkpt>
      <trkpt lat="42.07792" lon="9.14978">
        <ele>1606</ele>
        <time>2015-06-23T04:27:26Z</time>
      </trkpt>
      <trkpt lat="42.07793" lon="9.14978">
        <ele>1607</ele>
        <time>2015-06-23T04:27:30Z</time>
      </trkpt>
      <trkpt lat="42.07794" lon="9.14981">
        <ele>1606</ele>
        <time>2015-06-23T04:27:53Z</time>
      </trkpt>
      <trkpt lat="42.07794" lon="9.14981">
        <ele>1605.2</ele>
        <time>2015-06-23T04:28:04Z</time>
      </trkpt>
      <trkpt lat="42.07794" lon="9.14981">
        <ele>1604.4</ele>
        <time>2015-06-23T04:28:40Z</time>
      </trkpt>
      <trkpt lat="42.07794" lon="9.14981">
        <ele>1605.4</ele>
        <time>2015-06-23T04:28:49Z</time>
      </trkpt>
      <trkpt lat="42.07791" lon="9.15025">
        <ele>1604.4</ele>
        <time>2015-06-23T04:30:04Z</time>
      </trkpt>
      <trkpt lat="42.07786" lon="9.15032">
        <ele>1603.4</ele>
        <time>2015-06-23T04:30:15Z</time>
      </trkpt>
      <trkpt lat="42.07784" lon="9.1504">
        <ele>1602.6</ele>
        <time>2015-06-23T04:30:26Z</time>
      </trkpt>
      <trkpt lat="42.07781" lon="9.15046">
        <ele>1601.6</ele>
        <time>2015-06-23T04:31:29Z</time>
      </trkpt>
      <trkpt lat="42.0778" lon="9.15052">
        <ele>1600.4</ele>
        <time>2015-06-23T04:31:39Z</time>
      </trkpt>
      <trkpt lat="42.0778" lon="9.15065">
        <ele>1599.4</ele>
        <time>2015-06-23T04:31:50Z</time>
      </trkpt>
      <trkpt lat="42.07782" lon="9.15073">
        <ele>1598</ele>
        <time>2015-06-23T04:32:02Z</time>
      </trkpt>
      <trkpt lat="42.07784" lon="9.15082">
        <ele>1597.4</ele>
        <time>2015-06-23T04:32:11Z</time>
      </trkpt>
      <trkpt lat="42.07785" lon="9.15088">
        <ele>1596.4</ele>
        <time>2015-06-23T04:32:18Z</time>
      </trkpt>
      <trkpt lat="42.07791" lon="9.15103">
        <ele>1595</ele>
        <time>2015-06-23T04:32:41Z</time>
      </trkpt>
      <trkpt lat="42.07796" lon="9.1511">
        <ele>1594</ele>
        <time>2015-06-23T04:33:03Z</time>
      </trkpt>
      <trkpt lat="42.07798" lon="9.15114">
        <ele>1595.4</ele>
        <time>2015-06-23T04:33:24Z</time>
      </trkpt>
      <trkpt lat="42.07801" lon="9.15122">
        <ele>1594.8</ele>
        <time>2015-06-23T04:33:41Z</time>
      </trkpt>
      <trkpt lat="42.07805" lon="9.15126">
        <ele>1594.8</ele>
        <time>2015-06-23T04:33:56Z</time>
      </trkpt>
      <trkpt lat="42.07807" lon="9.15132">
        <ele>1595.2</ele>
        <time>2015-06-23T04:34:09Z</time>
      </trkpt>
      <trkpt lat="42.07808" lon="9.15135">
        <ele>1594.6</ele>
        <time>2015-06-23T04:34:13Z</time>
      </trkpt>
      <trkpt lat="42.07809" lon="9.1514">
        <ele>1593.4</ele>
        <time>2015-06-23T04:34:31Z</time>
      </trkpt>
      <trkpt lat="42.07809" lon="9.15138">
        <ele>1593.8</ele>
        <time>2015-06-23T04:34:37Z</time>
      </trkpt>
      <trkpt lat="42.07815" lon="9.15142">
        <ele>1595.4</ele>
        <time>2015-06-23T04:34:59Z</time>
      </trkpt>
      <trkpt lat="42.0782" lon="9.15147">
        <ele>1596.2</ele>
        <time>2015-06-23T04:35:15Z</time>
      </trkpt>
      <trkpt lat="42.07821" lon="9.15148">
        <ele>1596.6</ele>
        <time>2015-06-23T04:35:19Z</time>
      </trkpt>
      <trkpt lat="42.07822" lon="9.15149">
        <ele>1598</ele>
        <time>2015-06-23T04:35:27Z</time>
      </trkpt>
      <trkpt lat="42.07824" lon="9.1515">
        <ele>1598.6</ele>
        <time>2015-06-23T04:35:33Z</time>
      </trkpt>
      <trkpt lat="42.07834" lon="9.1516">
        <ele>1599.6</ele>
        <time>2015-06-23T04:35:58Z</time>
      </trkpt>
      <trkpt lat="42.07835" lon="9.15162">
        <ele>1599</ele>
        <time>2015-06-23T04:36:02Z</time>
      </trkpt>
      <trkpt lat="42.0784" lon="9.15171">
        <ele>1596.8</ele>
        <time>2015-06-23T04:36:13Z</time>
      </trkpt>
      <trkpt lat="42.0784" lon="9.15176">
        <ele>1596.2</ele>
        <time>2015-06-23T04:36:18Z</time>
      </trkpt>
      <trkpt lat="42.0784" lon="9.15181">
        <ele>1595</ele>
        <time>2015-06-23T04:36:23Z</time>
      </trkpt>
      <trkpt lat="42.07849" lon="9.15196">
        <ele>1594</ele>
        <time>2015-06-23T04:36:43Z</time>
      </trkpt>
      <trkpt lat="42.07852" lon="9.15202">
        <ele>1595</ele>
        <time>2015-06-23T04:36:49Z</time>
      </trkpt>
      <trkpt lat="42.07856" lon="9.15204">
        <ele>1596.2</ele>
        <time>2015-06-23T04:36:56Z</time>
      </trkpt>
      <trkpt lat="42.07851" lon="9.15218">
        <ele>1597</ele>
        <time>2015-06-23T04:37:21Z</time>
      </trkpt>
      <trkpt lat="42.07852" lon="9.15226">
        <ele>1595.4</ele>
        <time>2015-06-23T04:37:29Z</time>
      </trkpt>
      <trkpt lat="42.0785" lon="9.15223">
        <ele>1595</ele>
        <time>2015-06-23T04:37:53Z</time>
      </trkpt>
      <trkpt lat="42.0785" lon="9.15222">
        <ele>1596.4</ele>
        <time>2015-06-23T04:38:08Z</time>
      </trkpt>
      <trkpt lat="42.0785" lon="9.15223">
        <ele>1596</ele>
        <time>2015-06-23T04:38:31Z</time>
      </trkpt>
      <trkpt lat="42.0785" lon="9.15223">
        <ele>1594</ele>
        <time>2015-06-23T04:41:05Z</time>
      </trkpt>
      <trkpt lat="42.0785" lon="9.15223">
        <ele>1594</ele>
        <time>2015-06-23T04:41:13Z</time>
      </trkpt>
      <trkpt lat="42.07849" lon="9.15223">
        <ele>1595.2</ele>
        <time>2015-06-23T04:41:31Z</time>
      </trkpt>
      <trkpt lat="42.07849" lon="9.15223">
        <ele>1596</ele>
        <time>2015-06-23T04:42:04Z</time>
      </trkpt>
      <trkpt lat="42.07853" lon="9.15229">
        <ele>1595.2</ele>
        <time>2015-06-23T04:42:37Z</time>
      </trkpt>
      <trkpt lat="42.07863" lon="9.15241">
        <ele>1594.8</ele>
        <time>2015-06-23T04:42:56Z</time>
      </trkpt>
      <trkpt lat="42.07864" lon="9.15241">
        <ele>1594.8</ele>
        <time>2015-06-23T04:42:57Z</time>
      </trkpt>
      <trkpt lat="42.07867" lon="9.15242">
        <ele>1595.2</ele>
        <time>2015-06-23T04:43:01Z</time>
      </trkpt>
      <trkpt lat="42.07869" lon="9.15244">
        <ele>1596</ele>
        <time>2015-06-23T04:43:04Z</time>
      </trkpt>
      <trkpt lat="42.07876" lon="9.1525">
        <ele>1597.2</ele>
        <time>2015-06-23T04:43:18Z</time>
      </trkpt>
      <trkpt lat="42.0789" lon="9.1526">
        <ele>1597.2</ele>
        <time>2015-06-23T04:43:41Z</time>
      </trkpt>
      <trkpt lat="42.07892" lon="9.1526">
        <ele>1597.6</ele>
        <time>2015-06-23T04:43:46Z</time>
      </trkpt>
      <trkpt lat="42.07897" lon="9.15263">
        <ele>1599.4</ele>
        <time>2015-06-23T04:44:33Z</time>
      </trkpt>
      <trkpt lat="42.07897" lon="9.15269">
        <ele>1600.6</ele>
        <time>2015-06-23T04:45:02Z</time>
      </trkpt>
      <trkpt lat="42.07901" lon="9.15271">
        <ele>1601</ele>
        <time>2015-06-23T04:45:09Z</time>
      </trkpt>
      <trkpt lat="42.07903" lon="9.15271">
        <ele>1601</ele>
        <time>2015-06-23T04:45:12Z</time>
      </trkpt>
      <trkpt lat="42.07904" lon="9.1527">
        <ele>1601.6</ele>
        <time>2015-06-23T04:45:14Z</time>
      </trkpt>
      <trkpt lat="42.07907" lon="9.1527">
        <ele>1602.8</ele>
        <time>2015-06-23T04:45:22Z</time>
      </trkpt>
      <trkpt lat="42.07909" lon="9.1527">
        <ele>1602.6</ele>
        <time>2015-06-23T04:45:25Z</time>
      </trkpt>
      <trkpt lat="42.07911" lon="9.15272">
        <ele>1602.6</ele>
        <time>2015-06-23T04:45:28Z</time>
      </trkpt>
      <trkpt lat="42.07922" lon="9.15282">
        <ele>1600.2</ele>
        <time>2015-06-23T04:45:45Z</time>
      </trkpt>
      <trkpt lat="42.07938" lon="9.1531">
        <ele>1601.4</ele>
        <time>2015-06-23T04:46:31Z</time>
      </trkpt>
      <trkpt lat="42.07943" lon="9.15315">
        <ele>1602</ele>
        <time>2015-06-23T04:46:39Z</time>
      </trkpt>
      <trkpt lat="42.07944" lon="9.15315">
        <ele>1602.2</ele>
        <time>2015-06-23T04:46:40Z</time>
      </trkpt>
      <trkpt lat="42.07947" lon="9.15317">
        <ele>1602.8</ele>
        <time>2015-06-23T04:46:43Z</time>
      </trkpt>
      <trkpt lat="42.07949" lon="9.1532">
        <ele>1603</ele>
        <time>2015-06-23T04:46:46Z</time>
      </trkpt>
      <trkpt lat="42.07957" lon="9.15326">
        <ele>1604.2</ele>
        <time>2015-06-23T04:46:55Z</time>
      </trkpt>
      <trkpt lat="42.07961" lon="9.1533">
        <ele>1605</ele>
        <time>2015-06-23T04:47:02Z</time>
      </trkpt>
      <trkpt lat="42.07976" lon="9.15353">
        <ele>1606.4</ele>
        <time>2015-06-23T04:47:38Z</time>
      </trkpt>
      <trkpt lat="42.07978" lon="9.15354">
        <ele>1606.4</ele>
        <time>2015-06-23T04:47:42Z</time>
      </trkpt>
      <trkpt lat="42.07982" lon="9.1537">
        <ele>1607.8</ele>
        <time>2015-06-23T04:48:04Z</time>
      </trkpt>
      <trkpt lat="42.07983" lon="9.15372">
        <ele>1608</ele>
        <time>2015-06-23T04:48:06Z</time>
      </trkpt>
      <trkpt lat="42.07982" lon="9.15375">
        <ele>1608.6</ele>
        <time>2015-06-23T04:48:09Z</time>
      </trkpt>
      <trkpt lat="42.07985" lon="9.15378">
        <ele>1610.6</ele>
        <time>2015-06-23T04:48:13Z</time>
      </trkpt>
      <trkpt lat="42.07995" lon="9.1539">
        <ele>1612.4</ele>
        <time>2015-06-23T04:48:30Z</time>
      </trkpt>
      <trkpt lat="42.07998" lon="9.15391">
        <ele>1613.4</ele>
        <time>2015-06-23T04:48:35Z</time>
      </trkpt>
      <trkpt lat="42.08002" lon="9.15393">
        <ele>1614.4</ele>
        <time>2015-06-23T04:48:40Z</time>
      </trkpt>
      <trkpt lat="42.08006" lon="9.15391">
        <ele>1616.2</ele>
        <time>2015-06-23T04:48:48Z</time>
      </trkpt>
      <trkpt lat="42.08011" lon="9.15385">
        <ele>1616.8</ele>
        <time>2015-06-23T04:48:59Z</time>
      </trkpt>
      <trkpt lat="42.08011" lon="9.15388">
        <ele>1615</ele>
        <time>2015-06-23T04:49:22Z</time>
      </trkpt>
      <trkpt lat="42.08032" lon="9.15422">
        <ele>1613.8</ele>
        <time>2015-06-23T04:49:57Z</time>
      </trkpt>
      <trkpt lat="42.08039" lon="9.1544">
        <ele>1613</ele>
        <time>2015-06-23T04:50:12Z</time>
      </trkpt>
      <trkpt lat="42.08042" lon="9.15446">
        <ele>1612.6</ele>
        <time>2015-06-23T04:50:17Z</time>
      </trkpt>
      <trkpt lat="42.08081" lon="9.15476">
        <ele>1611.2</ele>
        <time>2015-06-23T04:51:03Z</time>
      </trkpt>
      <trkpt lat="42.08089" lon="9.15511">
        <ele>1610.2</ele>
        <time>2015-06-23T04:51:29Z</time>
      </trkpt>
      <trkpt lat="42.08091" lon="9.15512">
        <ele>1610.2</ele>
        <time>2015-06-23T04:51:31Z</time>
      </trkpt>
      <trkpt lat="42.08094" lon="9.15515">
        <ele>1610.2</ele>
        <time>2015-06-23T04:51:36Z</time>
      </trkpt>
      <trkpt lat="42.08097" lon="9.15518">
        <ele>1608.4</ele>
        <time>2015-06-23T04:51:43Z</time>
      </trkpt>
      <trkpt lat="42.08102" lon="9.15527">
        <ele>1607.2</ele>
        <time>2015-06-23T04:51:56Z</time>
      </trkpt>
      <trkpt lat="42.08104" lon="9.1553">
        <ele>1606.8</ele>
        <time>2015-06-23T04:52:01Z</time>
      </trkpt>
      <trkpt lat="42.08105" lon="9.15531">
        <ele>1606</ele>
        <time>2015-06-23T04:52:03Z</time>
      </trkpt>
      <trkpt lat="42.08107" lon="9.15534">
        <ele>1605</ele>
        <time>2015-06-23T04:52:07Z</time>
      </trkpt>
      <trkpt lat="42.0811" lon="9.15536">
        <ele>1602.8</ele>
        <time>2015-06-23T04:52:16Z</time>
      </trkpt>
      <trkpt lat="42.08118" lon="9.15549">
        <ele>1603.6</ele>
        <time>2015-06-23T04:52:33Z</time>
      </trkpt>
      <trkpt lat="42.08119" lon="9.15551">
        <ele>1603</ele>
        <time>2015-06-23T04:52:36Z</time>
      </trkpt>
      <trkpt lat="42.08121" lon="9.15555">
        <ele>1601.2</ele>
        <time>2015-06-23T04:52:40Z</time>
      </trkpt>
      <trkpt lat="42.08123" lon="9.15559">
        <ele>1600.2</ele>
        <time>2015-06-23T04:52:44Z</time>
      </trkpt>
      <trkpt lat="42.08124" lon="9.15563">
        <ele>1598.8</ele>
        <time>2015-06-23T04:52:48Z</time>
      </trkpt>
      <trkpt lat="42.08125" lon="9.15567">
        <ele>1597.2</ele>
        <time>2015-06-23T04:52:53Z</time>
      </trkpt>
      <trkpt lat="42.08125" lon="9.15573">
        <ele>1596</ele>
        <time>2015-06-23T04:52:58Z</time>
      </trkpt>
      <trkpt lat="42.08125" lon="9.15601">
        <ele>1594</ele>
        <time>2015-06-23T04:53:22Z</time>
      </trkpt>
      <trkpt lat="42.08126" lon="9.15608">
        <ele>1593.2</ele>
        <time>2015-06-23T04:53:27Z</time>
      </trkpt>
      <trkpt lat="42.08126" lon="9.15618">
        <ele>1591.8</ele>
        <time>2015-06-23T04:53:35Z</time>
      </trkpt>
      <trkpt lat="42.08132" lon="9.15628">
        <ele>1590.4</ele>
        <time>2015-06-23T04:53:47Z</time>
      </trkpt>
      <trkpt lat="42.08136" lon="9.15633">
        <ele>1589.8</ele>
        <time>2015-06-23T04:53:53Z</time>
      </trkpt>
      <trkpt lat="42.0814" lon="9.15638">
        <ele>1588.2</ele>
        <time>2015-06-23T04:54:01Z</time>
      </trkpt>
      <trkpt lat="42.08142" lon="9.15642">
        <ele>1587.4</ele>
        <time>2015-06-23T04:54:07Z</time>
      </trkpt>
      <trkpt lat="42.08148" lon="9.1564">
        <ele>1585.8</ele>
        <time>2015-06-23T04:54:17Z</time>
      </trkpt>
      <trkpt lat="42.08151" lon="9.1564">
        <ele>1585.4</ele>
        <time>2015-06-23T04:54:22Z</time>
      </trkpt>
      <trkpt lat="42.08152" lon="9.15639">
        <ele>1585</ele>
        <time>2015-06-23T04:54:25Z</time>
      </trkpt>
      <trkpt lat="42.08154" lon="9.15638">
        <ele>1584.6</ele>
        <time>2015-06-23T04:54:27Z</time>
      </trkpt>
      <trkpt lat="42.08156" lon="9.15636">
        <ele>1583.6</ele>
        <time>2015-06-23T04:54:29Z</time>
      </trkpt>
      <trkpt lat="42.08158" lon="9.15634">
        <ele>1582.4</ele>
        <time>2015-06-23T04:54:32Z</time>
      </trkpt>
      <trkpt lat="42.0816" lon="9.15631">
        <ele>1580.8</ele>
        <time>2015-06-23T04:54:35Z</time>
      </trkpt>
      <trkpt lat="42.08162" lon="9.15629">
        <ele>1579.6</ele>
        <time>2015-06-23T04:54:38Z</time>
      </trkpt>
      <trkpt lat="42.08176" lon="9.15613">
        <ele>1577.8</ele>
        <time>2015-06-23T04:55:05Z</time>
      </trkpt>
      <trkpt lat="42.08181" lon="9.15611">
        <ele>1576.6</ele>
        <time>2015-06-23T04:55:10Z</time>
      </trkpt>
      <trkpt lat="42.08195" lon="9.156">
        <ele>1576</ele>
        <time>2015-06-23T04:55:33Z</time>
      </trkpt>
      <trkpt lat="42.08198" lon="9.156">
        <ele>1576</ele>
        <time>2015-06-23T04:55:35Z</time>
      </trkpt>
      <trkpt lat="42.08199" lon="9.156">
        <ele>1575.8</ele>
        <time>2015-06-23T04:55:36Z</time>
      </trkpt>
      <trkpt lat="42.08201" lon="9.15599">
        <ele>1575</ele>
        <time>2015-06-23T04:55:39Z</time>
      </trkpt>
      <trkpt lat="42.08206" lon="9.15598">
        <ele>1573.6</ele>
        <time>2015-06-23T04:55:44Z</time>
      </trkpt>
      <trkpt lat="42.08211" lon="9.15596">
        <ele>1573</ele>
        <time>2015-06-23T04:55:50Z</time>
      </trkpt>
      <trkpt lat="42.08214" lon="9.15595">
        <ele>1572</ele>
        <time>2015-06-23T04:55:56Z</time>
      </trkpt>
      <trkpt lat="42.08215" lon="9.15594">
        <ele>1571.8</ele>
        <time>2015-06-23T04:55:58Z</time>
      </trkpt>
      <trkpt lat="42.08216" lon="9.15594">
        <ele>1571.4</ele>
        <time>2015-06-23T04:56:01Z</time>
      </trkpt>
      <trkpt lat="42.08218" lon="9.15591">
        <ele>1570</ele>
        <time>2015-06-23T04:56:04Z</time>
      </trkpt>
      <trkpt lat="42.08221" lon="9.15588">
        <ele>1567.8</ele>
        <time>2015-06-23T04:56:10Z</time>
      </trkpt>
      <trkpt lat="42.08222" lon="9.15587">
        <ele>1567.6</ele>
        <time>2015-06-23T04:56:11Z</time>
      </trkpt>
      <trkpt lat="42.08228" lon="9.15582">
        <ele>1567.2</ele>
        <time>2015-06-23T04:56:20Z</time>
      </trkpt>
      <trkpt lat="42.08231" lon="9.1558">
        <ele>1567.2</ele>
        <time>2015-06-23T04:56:30Z</time>
      </trkpt>
      <trkpt lat="42.08238" lon="9.15579">
        <ele>1566.2</ele>
        <time>2015-06-23T04:56:43Z</time>
      </trkpt>
      <trkpt lat="42.08239" lon="9.15578">
        <ele>1566.2</ele>
        <time>2015-06-23T04:56:45Z</time>
      </trkpt>
      <trkpt lat="42.08246" lon="9.15579">
        <ele>1563.8</ele>
        <time>2015-06-23T04:56:58Z</time>
      </trkpt>
      <trkpt lat="42.08247" lon="9.15578">
        <ele>1563.8</ele>
        <time>2015-06-23T04:56:59Z</time>
      </trkpt>
      <trkpt lat="42.08247" lon="9.15577">
        <ele>1563.6</ele>
        <time>2015-06-23T04:57:00Z</time>
      </trkpt>
      <trkpt lat="42.08253" lon="9.15572">
        <ele>1561.2</ele>
        <time>2015-06-23T04:57:15Z</time>
      </trkpt>
      <trkpt lat="42.08255" lon="9.15572">
        <ele>1561.2</ele>
        <time>2015-06-23T04:57:17Z</time>
      </trkpt>
      <trkpt lat="42.08256" lon="9.15572">
        <ele>1560.8</ele>
        <time>2015-06-23T04:57:20Z</time>
      </trkpt>
      <trkpt lat="42.08259" lon="9.15573">
        <ele>1558.8</ele>
        <time>2015-06-23T04:57:24Z</time>
      </trkpt>
      <trkpt lat="42.08262" lon="9.15571">
        <ele>1557.2</ele>
        <time>2015-06-23T04:57:28Z</time>
      </trkpt>
      <trkpt lat="42.08265" lon="9.1557">
        <ele>1557</ele>
        <time>2015-06-23T04:57:30Z</time>
      </trkpt>
      <trkpt lat="42.08268" lon="9.15569">
        <ele>1555.2</ele>
        <time>2015-06-23T04:57:36Z</time>
      </trkpt>
      <trkpt lat="42.08277" lon="9.15566">
        <ele>1553.8</ele>
        <time>2015-06-23T04:57:53Z</time>
      </trkpt>
      <trkpt lat="42.0828" lon="9.15564">
        <ele>1553.6</ele>
        <time>2015-06-23T04:57:56Z</time>
      </trkpt>
      <trkpt lat="42.08282" lon="9.15562">
        <ele>1553.4</ele>
        <time>2015-06-23T04:57:58Z</time>
      </trkpt>
      <trkpt lat="42.08283" lon="9.1556">
        <ele>1553.2</ele>
        <time>2015-06-23T04:58:00Z</time>
      </trkpt>
      <trkpt lat="42.08291" lon="9.15549">
        <ele>1549.2</ele>
        <time>2015-06-23T04:58:15Z</time>
      </trkpt>
      <trkpt lat="42.08293" lon="9.15547">
        <ele>1549</ele>
        <time>2015-06-23T04:58:18Z</time>
      </trkpt>
      <trkpt lat="42.08295" lon="9.15545">
        <ele>1548.8</ele>
        <time>2015-06-23T04:58:21Z</time>
      </trkpt>
      <trkpt lat="42.08298" lon="9.15541">
        <ele>1546.4</ele>
        <time>2015-06-23T04:58:27Z</time>
      </trkpt>
      <trkpt lat="42.083" lon="9.15541">
        <ele>1546.4</ele>
        <time>2015-06-23T04:58:29Z</time>
      </trkpt>
      <trkpt lat="42.08308" lon="9.15531">
        <ele>1546.4</ele>
        <time>2015-06-23T04:58:50Z</time>
      </trkpt>
      <trkpt lat="42.08309" lon="9.15526">
        <ele>1546.8</ele>
        <time>2015-06-23T04:58:55Z</time>
      </trkpt>
      <trkpt lat="42.08311" lon="9.15521">
        <ele>1545.2</ele>
        <time>2015-06-23T04:59:02Z</time>
      </trkpt>
      <trkpt lat="42.08312" lon="9.15521">
        <ele>1544.6</ele>
        <time>2015-06-23T04:59:04Z</time>
      </trkpt>
      <trkpt lat="42.08313" lon="9.15519">
        <ele>1544</ele>
        <time>2015-06-23T04:59:07Z</time>
      </trkpt>
      <trkpt lat="42.08316" lon="9.15515">
        <ele>1541.6</ele>
        <time>2015-06-23T04:59:16Z</time>
      </trkpt>
      <trkpt lat="42.08316" lon="9.15514">
        <ele>1541.6</ele>
        <time>2015-06-23T04:59:18Z</time>
      </trkpt>
      <trkpt lat="42.08317" lon="9.15513">
        <ele>1541.2</ele>
        <time>2015-06-23T04:59:20Z</time>
      </trkpt>
      <trkpt lat="42.0832" lon="9.15497">
        <ele>1537.8</ele>
        <time>2015-06-23T04:59:33Z</time>
      </trkpt>
      <trkpt lat="42.08321" lon="9.15496">
        <ele>1537.6</ele>
        <time>2015-06-23T04:59:35Z</time>
      </trkpt>
      <trkpt lat="42.08322" lon="9.15494">
        <ele>1538.8</ele>
        <time>2015-06-23T04:59:38Z</time>
      </trkpt>
      <trkpt lat="42.08326" lon="9.15492">
        <ele>1539.6</ele>
        <time>2015-06-23T04:59:48Z</time>
      </trkpt>
      <trkpt lat="42.08328" lon="9.15491">
        <ele>1539.4</ele>
        <time>2015-06-23T04:59:52Z</time>
      </trkpt>
      <trkpt lat="42.08331" lon="9.1549">
        <ele>1538.4</ele>
        <time>2015-06-23T04:59:55Z</time>
      </trkpt>
      <trkpt lat="42.08333" lon="9.15489">
        <ele>1537.4</ele>
        <time>2015-06-23T04:59:58Z</time>
      </trkpt>
      <trkpt lat="42.08335" lon="9.15485">
        <ele>1536</ele>
        <time>2015-06-23T05:00:01Z</time>
      </trkpt>
      <trkpt lat="42.0834" lon="9.15472">
        <ele>1533</ele>
        <time>2015-06-23T05:00:19Z</time>
      </trkpt>
      <trkpt lat="42.08342" lon="9.15471">
        <ele>1532.6</ele>
        <time>2015-06-23T05:00:23Z</time>
      </trkpt>
      <trkpt lat="42.08353" lon="9.15458">
        <ele>1530.8</ele>
        <time>2015-06-23T05:00:44Z</time>
      </trkpt>
      <trkpt lat="42.08354" lon="9.15458">
        <ele>1530.6</ele>
        <time>2015-06-23T05:00:45Z</time>
      </trkpt>
      <trkpt lat="42.08358" lon="9.15456">
        <ele>1530</ele>
        <time>2015-06-23T05:00:49Z</time>
      </trkpt>
      <trkpt lat="42.0836" lon="9.15455">
        <ele>1529.6</ele>
        <time>2015-06-23T05:00:51Z</time>
      </trkpt>
      <trkpt lat="42.08361" lon="9.15454">
        <ele>1529.2</ele>
        <time>2015-06-23T05:00:53Z</time>
      </trkpt>
      <trkpt lat="42.08363" lon="9.15449">
        <ele>1527.8</ele>
        <time>2015-06-23T05:00:58Z</time>
      </trkpt>
      <trkpt lat="42.08367" lon="9.15446">
        <ele>1527</ele>
        <time>2015-06-23T05:01:04Z</time>
      </trkpt>
      <trkpt lat="42.0837" lon="9.15444">
        <ele>1526.6</ele>
        <time>2015-06-23T05:01:08Z</time>
      </trkpt>
      <trkpt lat="42.08375" lon="9.15439">
        <ele>1525.6</ele>
        <time>2015-06-23T05:01:16Z</time>
      </trkpt>
      <trkpt lat="42.08377" lon="9.15436">
        <ele>1524.8</ele>
        <time>2015-06-23T05:01:22Z</time>
      </trkpt>
      <trkpt lat="42.08378" lon="9.15433">
        <ele>1524.4</ele>
        <time>2015-06-23T05:01:26Z</time>
      </trkpt>
      <trkpt lat="42.08394" lon="9.15424">
        <ele>1522.2</ele>
        <time>2015-06-23T05:01:49Z</time>
      </trkpt>
      <trkpt lat="42.08396" lon="9.15425">
        <ele>1521.6</ele>
        <time>2015-06-23T05:01:52Z</time>
      </trkpt>
      <trkpt lat="42.08399" lon="9.15424">
        <ele>1520</ele>
        <time>2015-06-23T05:01:57Z</time>
      </trkpt>
      <trkpt lat="42.08402" lon="9.15423">
        <ele>1518.6</ele>
        <time>2015-06-23T05:02:03Z</time>
      </trkpt>
      <trkpt lat="42.08404" lon="9.15422">
        <ele>1518.2</ele>
        <time>2015-06-23T05:02:06Z</time>
      </trkpt>
      <trkpt lat="42.08407" lon="9.15419">
        <ele>1517</ele>
        <time>2015-06-23T05:02:10Z</time>
      </trkpt>
      <trkpt lat="42.08408" lon="9.15418">
        <ele>1516.8</ele>
        <time>2015-06-23T05:02:11Z</time>
      </trkpt>
      <trkpt lat="42.08411" lon="9.15415">
        <ele>1515.4</ele>
        <time>2015-06-23T05:02:16Z</time>
      </trkpt>
      <trkpt lat="42.08413" lon="9.15413">
        <ele>1515</ele>
        <time>2015-06-23T05:02:21Z</time>
      </trkpt>
      <trkpt lat="42.08417" lon="9.15412">
        <ele>1514.2</ele>
        <time>2015-06-23T05:02:26Z</time>
      </trkpt>
      <trkpt lat="42.08419" lon="9.15411">
        <ele>1514</ele>
        <time>2015-06-23T05:02:28Z</time>
      </trkpt>
      <trkpt lat="42.08423" lon="9.1541">
        <ele>1513.6</ele>
        <time>2015-06-23T05:02:31Z</time>
      </trkpt>
      <trkpt lat="42.08424" lon="9.1541">
        <ele>1513.2</ele>
        <time>2015-06-23T05:02:32Z</time>
      </trkpt>
      <trkpt lat="42.08428" lon="9.1541">
        <ele>1512.6</ele>
        <time>2015-06-23T05:02:36Z</time>
      </trkpt>
      <trkpt lat="42.08428" lon="9.1541">
        <ele>1512.2</ele>
        <time>2015-06-23T05:02:37Z</time>
      </trkpt>
      <trkpt lat="42.0843" lon="9.15408">
        <ele>1510.4</ele>
        <time>2015-06-23T05:02:45Z</time>
      </trkpt>
      <trkpt lat="42.08432" lon="9.15405">
        <ele>1509.6</ele>
        <time>2015-06-23T05:02:50Z</time>
      </trkpt>
      <trkpt lat="42.08434" lon="9.15403">
        <ele>1509.2</ele>
        <time>2015-06-23T05:02:53Z</time>
      </trkpt>
      <trkpt lat="42.08433" lon="9.15399">
        <ele>1507.2</ele>
        <time>2015-06-23T05:02:58Z</time>
      </trkpt>
      <trkpt lat="42.08439" lon="9.15396">
        <ele>1505.2</ele>
        <time>2015-06-23T05:03:07Z</time>
      </trkpt>
      <trkpt lat="42.08442" lon="9.15395">
        <ele>1504.8</ele>
        <time>2015-06-23T05:03:11Z</time>
      </trkpt>
      <trkpt lat="42.08446" lon="9.15394">
        <ele>1503.8</ele>
        <time>2015-06-23T05:03:16Z</time>
      </trkpt>
      <trkpt lat="42.08448" lon="9.15389">
        <ele>1502</ele>
        <time>2015-06-23T05:03:26Z</time>
      </trkpt>
      <trkpt lat="42.08452" lon="9.15385">
        <ele>1500.6</ele>
        <time>2015-06-23T05:03:36Z</time>
      </trkpt>
      <trkpt lat="42.08454" lon="9.15382">
        <ele>1500</ele>
        <time>2015-06-23T05:03:41Z</time>
      </trkpt>
      <trkpt lat="42.08462" lon="9.15377">
        <ele>1498.6</ele>
        <time>2015-06-23T05:03:50Z</time>
      </trkpt>
      <trkpt lat="42.08465" lon="9.15374">
        <ele>1497.6</ele>
        <time>2015-06-23T05:03:56Z</time>
      </trkpt>
      <trkpt lat="42.08468" lon="9.15374">
        <ele>1496.2</ele>
        <time>2015-06-23T05:04:03Z</time>
      </trkpt>
      <trkpt lat="42.08471" lon="9.15378">
        <ele>1495.4</ele>
        <time>2015-06-23T05:04:09Z</time>
      </trkpt>
      <trkpt lat="42.08471" lon="9.15379">
        <ele>1495</ele>
        <time>2015-06-23T05:04:12Z</time>
      </trkpt>
      <trkpt lat="42.08473" lon="9.1538">
        <ele>1493.2</ele>
        <time>2015-06-23T05:04:17Z</time>
      </trkpt>
      <trkpt lat="42.08476" lon="9.1538">
        <ele>1492.2</ele>
        <time>2015-06-23T05:04:21Z</time>
      </trkpt>
      <trkpt lat="42.0848" lon="9.15389">
        <ele>1489.6</ele>
        <time>2015-06-23T05:04:39Z</time>
      </trkpt>
      <trkpt lat="42.08481" lon="9.15391">
        <ele>1489.4</ele>
        <time>2015-06-23T05:04:43Z</time>
      </trkpt>
      <trkpt lat="42.08483" lon="9.15391">
        <ele>1489</ele>
        <time>2015-06-23T05:04:46Z</time>
      </trkpt>
      <trkpt lat="42.08485" lon="9.15393">
        <ele>1487.4</ele>
        <time>2015-06-23T05:04:51Z</time>
      </trkpt>
      <trkpt lat="42.08486" lon="9.15395">
        <ele>1485.8</ele>
        <time>2015-06-23T05:04:58Z</time>
      </trkpt>
      <trkpt lat="42.08486" lon="9.15395">
        <ele>1484.8</ele>
        <time>2015-06-23T05:05:04Z</time>
      </trkpt>
      <trkpt lat="42.08488" lon="9.15395">
        <ele>1484.4</ele>
        <time>2015-06-23T05:05:07Z</time>
      </trkpt>
      <trkpt lat="42.08489" lon="9.15397">
        <ele>1483.4</ele>
        <time>2015-06-23T05:05:10Z</time>
      </trkpt>
      <trkpt lat="42.08489" lon="9.154">
        <ele>1481.6</ele>
        <time>2015-06-23T05:05:14Z</time>
      </trkpt>
      <trkpt lat="42.08489" lon="9.15402">
        <ele>1480.4</ele>
        <time>2015-06-23T05:05:19Z</time>
      </trkpt>
      <trkpt lat="42.08489" lon="9.15401">
        <ele>1479</ele>
        <time>2015-06-23T05:05:23Z</time>
      </trkpt>
      <trkpt lat="42.0849" lon="9.15403">
        <ele>1477.6</ele>
        <time>2015-06-23T05:05:28Z</time>
      </trkpt>
      <trkpt lat="42.08491" lon="9.15406">
        <ele>1476.6</ele>
        <time>2015-06-23T05:05:33Z</time>
      </trkpt>
      <trkpt lat="42.08493" lon="9.15408">
        <ele>1475.6</ele>
        <time>2015-06-23T05:05:37Z</time>
      </trkpt>
      <trkpt lat="42.08493" lon="9.1541">
        <ele>1475.2</ele>
        <time>2015-06-23T05:05:40Z</time>
      </trkpt>
      <trkpt lat="42.08495" lon="9.15411">
        <ele>1472.2</ele>
        <time>2015-06-23T05:05:50Z</time>
      </trkpt>
      <trkpt lat="42.08497" lon="9.15411">
        <ele>1471.4</ele>
        <time>2015-06-23T05:05:57Z</time>
      </trkpt>
      <trkpt lat="42.08499" lon="9.15415">
        <ele>1470.8</ele>
        <time>2015-06-23T05:06:02Z</time>
      </trkpt>
      <trkpt lat="42.08504" lon="9.15415">
        <ele>1469.4</ele>
        <time>2015-06-23T05:06:08Z</time>
      </trkpt>
      <trkpt lat="42.08505" lon="9.15416">
        <ele>1469.2</ele>
        <time>2015-06-23T05:06:09Z</time>
      </trkpt>
      <trkpt lat="42.08507" lon="9.15416">
        <ele>1468.8</ele>
        <time>2015-06-23T05:06:11Z</time>
      </trkpt>
      <trkpt lat="42.08508" lon="9.15416">
        <ele>1468.6</ele>
        <time>2015-06-23T05:06:13Z</time>
      </trkpt>
      <trkpt lat="42.08511" lon="9.15413">
        <ele>1467</ele>
        <time>2015-06-23T05:06:19Z</time>
      </trkpt>
      <trkpt lat="42.08513" lon="9.15414">
        <ele>1466.2</ele>
        <time>2015-06-23T05:06:23Z</time>
      </trkpt>
      <trkpt lat="42.08517" lon="9.15413">
        <ele>1464.6</ele>
        <time>2015-06-23T05:06:30Z</time>
      </trkpt>
      <trkpt lat="42.08522" lon="9.15406">
        <ele>1462.8</ele>
        <time>2015-06-23T05:06:46Z</time>
      </trkpt>
      <trkpt lat="42.08528" lon="9.15404">
        <ele>1462</ele>
        <time>2015-06-23T05:06:56Z</time>
      </trkpt>
      <trkpt lat="42.08532" lon="9.15403">
        <ele>1461.4</ele>
        <time>2015-06-23T05:07:01Z</time>
      </trkpt>
      <trkpt lat="42.08536" lon="9.15405">
        <ele>1460.8</ele>
        <time>2015-06-23T05:07:05Z</time>
      </trkpt>
      <trkpt lat="42.08536" lon="9.15409">
        <ele>1460</ele>
        <time>2015-06-23T05:07:08Z</time>
      </trkpt>
      <trkpt lat="42.08537" lon="9.1541">
        <ele>1459.6</ele>
        <time>2015-06-23T05:07:09Z</time>
      </trkpt>
      <trkpt lat="42.08538" lon="9.15419">
        <ele>1457.4</ele>
        <time>2015-06-23T05:07:16Z</time>
      </trkpt>
      <trkpt lat="42.08536" lon="9.15427">
        <ele>1456.6</ele>
        <time>2015-06-23T05:07:24Z</time>
      </trkpt>
      <trkpt lat="42.08536" lon="9.15427">
        <ele>1456</ele>
        <time>2015-06-23T05:07:28Z</time>
      </trkpt>
      <trkpt lat="42.08539" lon="9.15425">
        <ele>1454.6</ele>
        <time>2015-06-23T05:07:33Z</time>
      </trkpt>
      <trkpt lat="42.08541" lon="9.15424">
        <ele>1454</ele>
        <time>2015-06-23T05:07:36Z</time>
      </trkpt>
      <trkpt lat="42.08543" lon="9.15424">
        <ele>1453.6</ele>
        <time>2015-06-23T05:07:38Z</time>
      </trkpt>
      <trkpt lat="42.08545" lon="9.15424">
        <ele>1453</ele>
        <time>2015-06-23T05:07:40Z</time>
      </trkpt>
      <trkpt lat="42.08547" lon="9.15426">
        <ele>1451.2</ele>
        <time>2015-06-23T05:07:43Z</time>
      </trkpt>
      <trkpt lat="42.08552" lon="9.15427">
        <ele>1449.4</ele>
        <time>2015-06-23T05:07:47Z</time>
      </trkpt>
      <trkpt lat="42.08557" lon="9.15428">
        <ele>1447.8</ele>
        <time>2015-06-23T05:07:57Z</time>
      </trkpt>
      <trkpt lat="42.08562" lon="9.15428">
        <ele>1447.4</ele>
        <time>2015-06-23T05:08:02Z</time>
      </trkpt>
      <trkpt lat="42.08562" lon="9.15428">
        <ele>1447.2</ele>
        <time>2015-06-23T05:08:03Z</time>
      </trkpt>
      <trkpt lat="42.0856" lon="9.15438">
        <ele>1445.4</ele>
        <time>2015-06-23T05:08:50Z</time>
      </trkpt>
      <trkpt lat="42.0856" lon="9.15441">
        <ele>1445</ele>
        <time>2015-06-23T05:08:54Z</time>
      </trkpt>
      <trkpt lat="42.08561" lon="9.15441">
        <ele>1444.2</ele>
        <time>2015-06-23T05:08:57Z</time>
      </trkpt>
      <trkpt lat="42.08563" lon="9.15443">
        <ele>1442.4</ele>
        <time>2015-06-23T05:09:03Z</time>
      </trkpt>
      <trkpt lat="42.08565" lon="9.15448">
        <ele>1440.8</ele>
        <time>2015-06-23T05:09:11Z</time>
      </trkpt>
      <trkpt lat="42.08568" lon="9.15449">
        <ele>1439.6</ele>
        <time>2015-06-23T05:09:19Z</time>
      </trkpt>
      <trkpt lat="42.08575" lon="9.15447">
        <ele>1438.8</ele>
        <time>2015-06-23T05:09:26Z</time>
      </trkpt>
      <trkpt lat="42.08578" lon="9.15445">
        <ele>1437.8</ele>
        <time>2015-06-23T05:09:32Z</time>
      </trkpt>
      <trkpt lat="42.08578" lon="9.15442">
        <ele>1436.4</ele>
        <time>2015-06-23T05:09:40Z</time>
      </trkpt>
      <trkpt lat="42.08577" lon="9.15432">
        <ele>1435.4</ele>
        <time>2015-06-23T05:09:48Z</time>
      </trkpt>
      <trkpt lat="42.08584" lon="9.15431">
        <ele>1434.6</ele>
        <time>2015-06-23T05:10:03Z</time>
      </trkpt>
      <trkpt lat="42.08598" lon="9.15435">
        <ele>1435</ele>
        <time>2015-06-23T05:10:13Z</time>
      </trkpt>
      <trkpt lat="42.08601" lon="9.15439">
        <ele>1434.6</ele>
        <time>2015-06-23T05:10:17Z</time>
      </trkpt>
      <trkpt lat="42.08603" lon="9.15442">
        <ele>1433.6</ele>
        <time>2015-06-23T05:10:21Z</time>
      </trkpt>
      <trkpt lat="42.08606" lon="9.15446">
        <ele>1432.6</ele>
        <time>2015-06-23T05:10:26Z</time>
      </trkpt>
      <trkpt lat="42.08614" lon="9.15454">
        <ele>1432.8</ele>
        <time>2015-06-23T05:10:34Z</time>
      </trkpt>
      <trkpt lat="42.08623" lon="9.15467">
        <ele>1434.2</ele>
        <time>2015-06-23T05:10:45Z</time>
      </trkpt>
      <trkpt lat="42.0863" lon="9.15477">
        <ele>1434.8</ele>
        <time>2015-06-23T05:10:55Z</time>
      </trkpt>
      <trkpt lat="42.08646" lon="9.15504">
        <ele>1435.8</ele>
        <time>2015-06-23T05:11:17Z</time>
      </trkpt>
      <trkpt lat="42.0865" lon="9.15508">
        <ele>1434.4</ele>
        <time>2015-06-23T05:11:23Z</time>
      </trkpt>
      <trkpt lat="42.08653" lon="9.15511">
        <ele>1433.4</ele>
        <time>2015-06-23T05:11:28Z</time>
      </trkpt>
      <trkpt lat="42.08657" lon="9.15516">
        <ele>1432.8</ele>
        <time>2015-06-23T05:11:32Z</time>
      </trkpt>
      <trkpt lat="42.08659" lon="9.15522">
        <ele>1432</ele>
        <time>2015-06-23T05:11:37Z</time>
      </trkpt>
      <trkpt lat="42.08667" lon="9.15537">
        <ele>1431.8</ele>
        <time>2015-06-23T05:11:49Z</time>
      </trkpt>
      <trkpt lat="42.08669" lon="9.15544">
        <ele>1432.6</ele>
        <time>2015-06-23T05:11:54Z</time>
      </trkpt>
      <trkpt lat="42.08688" lon="9.15578">
        <ele>1434.6</ele>
        <time>2015-06-23T05:12:21Z</time>
      </trkpt>
      <trkpt lat="42.08691" lon="9.1558">
        <ele>1434.6</ele>
        <time>2015-06-23T05:12:25Z</time>
      </trkpt>
      <trkpt lat="42.08692" lon="9.1558">
        <ele>1434.8</ele>
        <time>2015-06-23T05:12:27Z</time>
      </trkpt>
      <trkpt lat="42.08693" lon="9.1558">
        <ele>1435</ele>
        <time>2015-06-23T05:12:28Z</time>
      </trkpt>
      <trkpt lat="42.08707" lon="9.15566">
        <ele>1435.8</ele>
        <time>2015-06-23T05:12:46Z</time>
      </trkpt>
      <trkpt lat="42.0871" lon="9.1556">
        <ele>1434.6</ele>
        <time>2015-06-23T05:12:51Z</time>
      </trkpt>
      <trkpt lat="42.08712" lon="9.15553">
        <ele>1433.2</ele>
        <time>2015-06-23T05:12:57Z</time>
      </trkpt>
      <trkpt lat="42.0874" lon="9.1552">
        <ele>1432.2</ele>
        <time>2015-06-23T05:13:35Z</time>
      </trkpt>
      <trkpt lat="42.08748" lon="9.15512">
        <ele>1433.6</ele>
        <time>2015-06-23T05:13:44Z</time>
      </trkpt>
      <trkpt lat="42.08759" lon="9.155">
        <ele>1435.2</ele>
        <time>2015-06-23T05:14:01Z</time>
      </trkpt>
      <trkpt lat="42.08775" lon="9.15496">
        <ele>1435.8</ele>
        <time>2015-06-23T05:14:16Z</time>
      </trkpt>
      <trkpt lat="42.08798" lon="9.15483">
        <ele>1435</ele>
        <time>2015-06-23T05:14:41Z</time>
      </trkpt>
      <trkpt lat="42.08818" lon="9.15468">
        <ele>1434.8</ele>
        <time>2015-06-23T05:15:02Z</time>
      </trkpt>
      <trkpt lat="42.08833" lon="9.15445">
        <ele>1435.2</ele>
        <time>2015-06-23T05:15:27Z</time>
      </trkpt>
      <trkpt lat="42.08833" lon="9.15443">
        <ele>1435.4</ele>
        <time>2015-06-23T05:15:29Z</time>
      </trkpt>
      <trkpt lat="42.08861" lon="9.15416">
        <ele>1435.4</ele>
        <time>2015-06-23T05:16:04Z</time>
      </trkpt>
      <trkpt lat="42.08877" lon="9.15406">
        <ele>1434.6</ele>
        <time>2015-06-23T05:16:23Z</time>
      </trkpt>
      <trkpt lat="42.08892" lon="9.15398">
        <ele>1434</ele>
        <time>2015-06-23T05:16:38Z</time>
      </trkpt>
      <trkpt lat="42.08902" lon="9.15392">
        <ele>1433.2</ele>
        <time>2015-06-23T05:16:49Z</time>
      </trkpt>
      <trkpt lat="42.08921" lon="9.15384">
        <ele>1432</ele>
        <time>2015-06-23T05:17:12Z</time>
      </trkpt>
      <trkpt lat="42.08933" lon="9.1538">
        <ele>1431.6</ele>
        <time>2015-06-23T05:17:24Z</time>
      </trkpt>
      <trkpt lat="42.08938" lon="9.15379">
        <ele>1431.2</ele>
        <time>2015-06-23T05:17:30Z</time>
      </trkpt>
      <trkpt lat="42.08956" lon="9.15372">
        <ele>1430.2</ele>
        <time>2015-06-23T05:17:45Z</time>
      </trkpt>
      <trkpt lat="42.08995" lon="9.15352">
        <ele>1430</ele>
        <time>2015-06-23T05:18:48Z</time>
      </trkpt>
      <trkpt lat="42.09002" lon="9.15344">
        <ele>1428.6</ele>
        <time>2015-06-23T05:18:57Z</time>
      </trkpt>
      <trkpt lat="42.09008" lon="9.1534">
        <ele>1427.8</ele>
        <time>2015-06-23T05:19:08Z</time>
      </trkpt>
      <trkpt lat="42.09011" lon="9.15338">
        <ele>1427.2</ele>
        <time>2015-06-23T05:19:18Z</time>
      </trkpt>
      <trkpt lat="42.09016" lon="9.15332">
        <ele>1426.8</ele>
        <time>2015-06-23T05:19:27Z</time>
      </trkpt>
      <trkpt lat="42.0902" lon="9.15327">
        <ele>1426</ele>
        <time>2015-06-23T05:19:34Z</time>
      </trkpt>
      <trkpt lat="42.09024" lon="9.15327">
        <ele>1425.6</ele>
        <time>2015-06-23T05:19:50Z</time>
      </trkpt>
      <trkpt lat="42.09025" lon="9.15327">
        <ele>1426</ele>
        <time>2015-06-23T05:19:54Z</time>
      </trkpt>
      <trkpt lat="42.09026" lon="9.15329">
        <ele>1427.8</ele>
        <time>2015-06-23T05:20:14Z</time>
      </trkpt>
      <trkpt lat="42.09024" lon="9.15331">
        <ele>1428.4</ele>
        <time>2015-06-23T05:20:29Z</time>
      </trkpt>
      <trkpt lat="42.09024" lon="9.15331">
        <ele>1427.8</ele>
        <time>2015-06-23T05:20:34Z</time>
      </trkpt>
      <trkpt lat="42.09024" lon="9.15332">
        <ele>1426</ele>
        <time>2015-06-23T05:21:02Z</time>
      </trkpt>
      <trkpt lat="42.09025" lon="9.15323">
        <ele>1425</ele>
        <time>2015-06-23T05:22:18Z</time>
      </trkpt>
      <trkpt lat="42.09039" lon="9.15359">
        <ele>1424.6</ele>
        <time>2015-06-23T05:22:58Z</time>
      </trkpt>
      <trkpt lat="42.09041" lon="9.15361">
        <ele>1425</ele>
        <time>2015-06-23T05:23:01Z</time>
      </trkpt>
      <trkpt lat="42.09042" lon="9.15362">
        <ele>1426.8</ele>
        <time>2015-06-23T05:23:05Z</time>
      </trkpt>
      <trkpt lat="42.09045" lon="9.15361">
        <ele>1428.8</ele>
        <time>2015-06-23T05:23:10Z</time>
      </trkpt>
      <trkpt lat="42.09046" lon="9.15356">
        <ele>1430</ele>
        <time>2015-06-23T05:23:16Z</time>
      </trkpt>
      <trkpt lat="42.09048" lon="9.15352">
        <ele>1431.2</ele>
        <time>2015-06-23T05:23:21Z</time>
      </trkpt>
      <trkpt lat="42.09051" lon="9.15343">
        <ele>1433</ele>
        <time>2015-06-23T05:23:32Z</time>
      </trkpt>
      <trkpt lat="42.0905" lon="9.15333">
        <ele>1434</ele>
        <time>2015-06-23T05:23:41Z</time>
      </trkpt>
      <trkpt lat="42.0905" lon="9.1533">
        <ele>1434.4</ele>
        <time>2015-06-23T05:23:45Z</time>
      </trkpt>
      <trkpt lat="42.0905" lon="9.15329">
        <ele>1434.6</ele>
        <time>2015-06-23T05:23:46Z</time>
      </trkpt>
      <trkpt lat="42.09054" lon="9.15321">
        <ele>1436.2</ele>
        <time>2015-06-23T05:23:56Z</time>
      </trkpt>
      <trkpt lat="42.09058" lon="9.15312">
        <ele>1437.6</ele>
        <time>2015-06-23T05:24:05Z</time>
      </trkpt>
      <trkpt lat="42.09062" lon="9.15295">
        <ele>1439</ele>
        <time>2015-06-23T05:24:30Z</time>
      </trkpt>
      <trkpt lat="42.09065" lon="9.15295">
        <ele>1439.4</ele>
        <time>2015-06-23T05:24:37Z</time>
      </trkpt>
      <trkpt lat="42.09067" lon="9.15297">
        <ele>1440.6</ele>
        <time>2015-06-23T05:24:45Z</time>
      </trkpt>
      <trkpt lat="42.09071" lon="9.15302">
        <ele>1442</ele>
        <time>2015-06-23T05:24:56Z</time>
      </trkpt>
      <trkpt lat="42.09072" lon="9.15309">
        <ele>1442.6</ele>
        <time>2015-06-23T05:25:02Z</time>
      </trkpt>
      <trkpt lat="42.09076" lon="9.15321">
        <ele>1444</ele>
        <time>2015-06-23T05:25:12Z</time>
      </trkpt>
      <trkpt lat="42.09082" lon="9.15337">
        <ele>1445.6</ele>
        <time>2015-06-23T05:25:23Z</time>
      </trkpt>
      <trkpt lat="42.09086" lon="9.15352">
        <ele>1446.6</ele>
        <time>2015-06-23T05:25:37Z</time>
      </trkpt>
      <trkpt lat="42.09085" lon="9.15366">
        <ele>1447.8</ele>
        <time>2015-06-23T05:25:52Z</time>
      </trkpt>
      <trkpt lat="42.09089" lon="9.15375">
        <ele>1448.8</ele>
        <time>2015-06-23T05:26:04Z</time>
      </trkpt>
      <trkpt lat="42.09091" lon="9.1538">
        <ele>1449</ele>
        <time>2015-06-23T05:26:08Z</time>
      </trkpt>
      <trkpt lat="42.09093" lon="9.15389">
        <ele>1450</ele>
        <time>2015-06-23T05:26:16Z</time>
      </trkpt>
      <trkpt lat="42.09096" lon="9.15431">
        <ele>1451</ele>
        <time>2015-06-23T05:26:59Z</time>
      </trkpt>
      <trkpt lat="42.09097" lon="9.15451">
        <ele>1452.2</ele>
        <time>2015-06-23T05:27:12Z</time>
      </trkpt>
      <trkpt lat="42.09099" lon="9.15466">
        <ele>1453.4</ele>
        <time>2015-06-23T05:27:26Z</time>
      </trkpt>
      <trkpt lat="42.091" lon="9.15475">
        <ele>1454.4</ele>
        <time>2015-06-23T05:27:37Z</time>
      </trkpt>
      <trkpt lat="42.09103" lon="9.15483">
        <ele>1455.2</ele>
        <time>2015-06-23T05:27:47Z</time>
      </trkpt>
      <trkpt lat="42.09103" lon="9.15493">
        <ele>1456.4</ele>
        <time>2015-06-23T05:27:57Z</time>
      </trkpt>
      <trkpt lat="42.09102" lon="9.15499">
        <ele>1456.8</ele>
        <time>2015-06-23T05:28:03Z</time>
      </trkpt>
      <trkpt lat="42.09101" lon="9.15512">
        <ele>1458.6</ele>
        <time>2015-06-23T05:28:16Z</time>
      </trkpt>
      <trkpt lat="42.09102" lon="9.15536">
        <ele>1459.6</ele>
        <time>2015-06-23T05:28:44Z</time>
      </trkpt>
      <trkpt lat="42.091" lon="9.15544">
        <ele>1460.8</ele>
        <time>2015-06-23T05:28:55Z</time>
      </trkpt>
      <trkpt lat="42.0909" lon="9.15563">
        <ele>1461.4</ele>
        <time>2015-06-23T05:29:15Z</time>
      </trkpt>
      <trkpt lat="42.09082" lon="9.15595">
        <ele>1462.8</ele>
        <time>2015-06-23T05:29:40Z</time>
      </trkpt>
      <trkpt lat="42.09083" lon="9.15603">
        <ele>1462.8</ele>
        <time>2015-06-23T05:29:51Z</time>
      </trkpt>
      <trkpt lat="42.09076" lon="9.1564">
        <ele>1462.6</ele>
        <time>2015-06-23T05:30:22Z</time>
      </trkpt>
      <trkpt lat="42.0907" lon="9.15673">
        <ele>1462</ele>
        <time>2015-06-23T05:30:51Z</time>
      </trkpt>
      <trkpt lat="42.09071" lon="9.15683">
        <ele>1462.8</ele>
        <time>2015-06-23T05:30:59Z</time>
      </trkpt>
      <trkpt lat="42.09076" lon="9.1571">
        <ele>1464.2</ele>
        <time>2015-06-23T05:31:22Z</time>
      </trkpt>
      <trkpt lat="42.0908" lon="9.15724">
        <ele>1465</ele>
        <time>2015-06-23T05:31:37Z</time>
      </trkpt>
      <trkpt lat="42.09086" lon="9.1574">
        <ele>1466</ele>
        <time>2015-06-23T05:31:52Z</time>
      </trkpt>
      <trkpt lat="42.09094" lon="9.15762">
        <ele>1466.8</ele>
        <time>2015-06-23T05:32:14Z</time>
      </trkpt>
      <trkpt lat="42.09098" lon="9.15772">
        <ele>1467.6</ele>
        <time>2015-06-23T05:32:26Z</time>
      </trkpt>
      <trkpt lat="42.09099" lon="9.15777">
        <ele>1468</ele>
        <time>2015-06-23T05:32:30Z</time>
      </trkpt>
      <trkpt lat="42.09101" lon="9.1578">
        <ele>1469</ele>
        <time>2015-06-23T05:32:34Z</time>
      </trkpt>
      <trkpt lat="42.09101" lon="9.15781">
        <ele>1469</ele>
        <time>2015-06-23T05:32:35Z</time>
      </trkpt>
      <trkpt lat="42.09108" lon="9.1579">
        <ele>1471.2</ele>
        <time>2015-06-23T05:32:50Z</time>
      </trkpt>
      <trkpt lat="42.09112" lon="9.15794">
        <ele>1471.8</ele>
        <time>2015-06-23T05:32:58Z</time>
      </trkpt>
      <trkpt lat="42.09148" lon="9.15814">
        <ele>1472.4</ele>
        <time>2015-06-23T05:33:53Z</time>
      </trkpt>
      <trkpt lat="42.0918" lon="9.15808">
        <ele>1474</ele>
        <time>2015-06-23T05:34:23Z</time>
      </trkpt>
      <trkpt lat="42.0919" lon="9.15809">
        <ele>1474.4</ele>
        <time>2015-06-23T05:34:35Z</time>
      </trkpt>
      <trkpt lat="42.09194" lon="9.15808">
        <ele>1474.6</ele>
        <time>2015-06-23T05:34:39Z</time>
      </trkpt>
      <trkpt lat="42.09196" lon="9.15808">
        <ele>1474.8</ele>
        <time>2015-06-23T05:34:41Z</time>
      </trkpt>
      <trkpt lat="42.09198" lon="9.15807">
        <ele>1475</ele>
        <time>2015-06-23T05:34:44Z</time>
      </trkpt>
      <trkpt lat="42.09201" lon="9.15804">
        <ele>1477</ele>
        <time>2015-06-23T05:34:48Z</time>
      </trkpt>
      <trkpt lat="42.09204" lon="9.15804">
        <ele>1478.4</ele>
        <time>2015-06-23T05:34:53Z</time>
      </trkpt>
      <trkpt lat="42.09216" lon="9.15803">
        <ele>1480.2</ele>
        <time>2015-06-23T05:35:10Z</time>
      </trkpt>
      <trkpt lat="42.09235" lon="9.1579">
        <ele>1480</ele>
        <time>2015-06-23T05:35:39Z</time>
      </trkpt>
      <trkpt lat="42.09237" lon="9.15788">
        <ele>1480.4</ele>
        <time>2015-06-23T05:35:41Z</time>
      </trkpt>
      <trkpt lat="42.09238" lon="9.15786">
        <ele>1480.6</ele>
        <time>2015-06-23T05:35:43Z</time>
      </trkpt>
      <trkpt lat="42.09245" lon="9.15777">
        <ele>1481.2</ele>
        <time>2015-06-23T05:36:00Z</time>
      </trkpt>
      <trkpt lat="42.09249" lon="9.1577">
        <ele>1482.2</ele>
        <time>2015-06-23T05:36:08Z</time>
      </trkpt>
      <trkpt lat="42.09255" lon="9.15764">
        <ele>1483.2</ele>
        <time>2015-06-23T05:36:17Z</time>
      </trkpt>
      <trkpt lat="42.09257" lon="9.1576">
        <ele>1483.8</ele>
        <time>2015-06-23T05:36:21Z</time>
      </trkpt>
      <trkpt lat="42.09258" lon="9.15759">
        <ele>1483.8</ele>
        <time>2015-06-23T05:36:22Z</time>
      </trkpt>
      <trkpt lat="42.09259" lon="9.15757">
        <ele>1484.4</ele>
        <time>2015-06-23T05:36:24Z</time>
      </trkpt>
      <trkpt lat="42.0927" lon="9.15747">
        <ele>1487</ele>
        <time>2015-06-23T05:36:38Z</time>
      </trkpt>
      <trkpt lat="42.09275" lon="9.15742">
        <ele>1488</ele>
        <time>2015-06-23T05:36:45Z</time>
      </trkpt>
      <trkpt lat="42.09279" lon="9.15736">
        <ele>1489</ele>
        <time>2015-06-23T05:36:53Z</time>
      </trkpt>
      <trkpt lat="42.0928" lon="9.15733">
        <ele>1489.4</ele>
        <time>2015-06-23T05:36:57Z</time>
      </trkpt>
      <trkpt lat="42.09285" lon="9.15726">
        <ele>1491.6</ele>
        <time>2015-06-23T05:37:07Z</time>
      </trkpt>
      <trkpt lat="42.09286" lon="9.15726">
        <ele>1491.6</ele>
        <time>2015-06-23T05:37:08Z</time>
      </trkpt>
      <trkpt lat="42.09294" lon="9.15717">
        <ele>1492.8</ele>
        <time>2015-06-23T05:37:25Z</time>
      </trkpt>
      <trkpt lat="42.09307" lon="9.15708">
        <ele>1493.4</ele>
        <time>2015-06-23T05:37:43Z</time>
      </trkpt>
      <trkpt lat="42.09331" lon="9.15687">
        <ele>1494.4</ele>
        <time>2015-06-23T05:38:33Z</time>
      </trkpt>
      <trkpt lat="42.09335" lon="9.15685">
        <ele>1494.6</ele>
        <time>2015-06-23T05:38:36Z</time>
      </trkpt>
      <trkpt lat="42.09336" lon="9.15684">
        <ele>1494.6</ele>
        <time>2015-06-23T05:38:38Z</time>
      </trkpt>
      <trkpt lat="42.09345" lon="9.1568">
        <ele>1496.2</ele>
        <time>2015-06-23T05:38:51Z</time>
      </trkpt>
      <trkpt lat="42.09349" lon="9.15675">
        <ele>1496.8</ele>
        <time>2015-06-23T05:38:58Z</time>
      </trkpt>
      <trkpt lat="42.09357" lon="9.1567">
        <ele>1498.6</ele>
        <time>2015-06-23T05:39:13Z</time>
      </trkpt>
      <trkpt lat="42.09362" lon="9.15666">
        <ele>1499.4</ele>
        <time>2015-06-23T05:39:20Z</time>
      </trkpt>
      <trkpt lat="42.09367" lon="9.15663">
        <ele>1500.6</ele>
        <time>2015-06-23T05:39:28Z</time>
      </trkpt>
      <trkpt lat="42.0937" lon="9.1566">
        <ele>1501.4</ele>
        <time>2015-06-23T05:39:34Z</time>
      </trkpt>
      <trkpt lat="42.09374" lon="9.15657">
        <ele>1503</ele>
        <time>2015-06-23T05:39:42Z</time>
      </trkpt>
      <trkpt lat="42.09387" lon="9.1565">
        <ele>1504.4</ele>
        <time>2015-06-23T05:40:03Z</time>
      </trkpt>
      <trkpt lat="42.09389" lon="9.15646">
        <ele>1505.2</ele>
        <time>2015-06-23T05:40:09Z</time>
      </trkpt>
      <trkpt lat="42.09397" lon="9.15636">
        <ele>1507</ele>
        <time>2015-06-23T05:40:24Z</time>
      </trkpt>
      <trkpt lat="42.094" lon="9.15632">
        <ele>1507.6</ele>
        <time>2015-06-23T05:40:30Z</time>
      </trkpt>
      <trkpt lat="42.09408" lon="9.15621">
        <ele>1509.2</ele>
        <time>2015-06-23T05:40:45Z</time>
      </trkpt>
      <trkpt lat="42.09412" lon="9.15615">
        <ele>1510</ele>
        <time>2015-06-23T05:40:52Z</time>
      </trkpt>
      <trkpt lat="42.09423" lon="9.15593">
        <ele>1511.2</ele>
        <time>2015-06-23T05:41:19Z</time>
      </trkpt>
      <trkpt lat="42.09424" lon="9.15584">
        <ele>1513</ele>
        <time>2015-06-23T05:41:33Z</time>
      </trkpt>
      <trkpt lat="42.09426" lon="9.15581">
        <ele>1513.4</ele>
        <time>2015-06-23T05:41:37Z</time>
      </trkpt>
      <trkpt lat="42.09432" lon="9.15573">
        <ele>1515</ele>
        <time>2015-06-23T05:41:45Z</time>
      </trkpt>
      <trkpt lat="42.09435" lon="9.1557">
        <ele>1515.2</ele>
        <time>2015-06-23T05:41:49Z</time>
      </trkpt>
      <trkpt lat="42.09436" lon="9.15567">
        <ele>1516</ele>
        <time>2015-06-23T05:41:53Z</time>
      </trkpt>
      <trkpt lat="42.09438" lon="9.15561">
        <ele>1518</ele>
        <time>2015-06-23T05:42:00Z</time>
      </trkpt>
      <trkpt lat="42.09441" lon="9.15557">
        <ele>1519.2</ele>
        <time>2015-06-23T05:42:07Z</time>
      </trkpt>
      <trkpt lat="42.09446" lon="9.15555">
        <ele>1520.4</ele>
        <time>2015-06-23T05:42:13Z</time>
      </trkpt>
      <trkpt lat="42.09448" lon="9.15553">
        <ele>1520.8</ele>
        <time>2015-06-23T05:42:17Z</time>
      </trkpt>
      <trkpt lat="42.09463" lon="9.15526">
        <ele>1523.4</ele>
        <time>2015-06-23T05:42:51Z</time>
      </trkpt>
      <trkpt lat="42.09465" lon="9.15522">
        <ele>1523.8</ele>
        <time>2015-06-23T05:42:56Z</time>
      </trkpt>
      <trkpt lat="42.09466" lon="9.15502">
        <ele>1525.6</ele>
        <time>2015-06-23T05:43:22Z</time>
      </trkpt>
      <trkpt lat="42.09467" lon="9.15498">
        <ele>1526.4</ele>
        <time>2015-06-23T05:43:28Z</time>
      </trkpt>
      <trkpt lat="42.09468" lon="9.15494">
        <ele>1526.8</ele>
        <time>2015-06-23T05:43:32Z</time>
      </trkpt>
      <trkpt lat="42.09473" lon="9.1548">
        <ele>1529.2</ele>
        <time>2015-06-23T05:43:47Z</time>
      </trkpt>
      <trkpt lat="42.09476" lon="9.15474">
        <ele>1530.2</ele>
        <time>2015-06-23T05:43:54Z</time>
      </trkpt>
      <trkpt lat="42.09485" lon="9.1545">
        <ele>1531.8</ele>
        <time>2015-06-23T05:44:25Z</time>
      </trkpt>
      <trkpt lat="42.09487" lon="9.15444">
        <ele>1532.8</ele>
        <time>2015-06-23T05:44:35Z</time>
      </trkpt>
      <trkpt lat="42.09491" lon="9.15441">
        <ele>1533.6</ele>
        <time>2015-06-23T05:44:42Z</time>
      </trkpt>
      <trkpt lat="42.09492" lon="9.15431">
        <ele>1535</ele>
        <time>2015-06-23T05:44:51Z</time>
      </trkpt>
      <trkpt lat="42.09492" lon="9.15428">
        <ele>1535.4</ele>
        <time>2015-06-23T05:44:53Z</time>
      </trkpt>
      <trkpt lat="42.095" lon="9.154">
        <ele>1535</ele>
        <time>2015-06-23T05:45:26Z</time>
      </trkpt>
      <trkpt lat="42.09504" lon="9.1539">
        <ele>1535</ele>
        <time>2015-06-23T05:45:48Z</time>
      </trkpt>
      <trkpt lat="42.09512" lon="9.15375">
        <ele>1535.6</ele>
        <time>2015-06-23T05:46:22Z</time>
      </trkpt>
      <trkpt lat="42.09516" lon="9.15377">
        <ele>1536</ele>
        <time>2015-06-23T05:46:38Z</time>
      </trkpt>
      <trkpt lat="42.09516" lon="9.15377">
        <ele>1535.8</ele>
        <time>2015-06-23T05:46:40Z</time>
      </trkpt>
      <trkpt lat="42.09523" lon="9.15381">
        <ele>1533.6</ele>
        <time>2015-06-23T05:47:06Z</time>
      </trkpt>
      <trkpt lat="42.09556" lon="9.1542">
        <ele>1532.4</ele>
        <time>2015-06-23T05:48:14Z</time>
      </trkpt>
      <trkpt lat="42.09558" lon="9.15422">
        <ele>1532.4</ele>
        <time>2015-06-23T05:48:18Z</time>
      </trkpt>
      <trkpt lat="42.09572" lon="9.15425">
        <ele>1531.8</ele>
        <time>2015-06-23T05:48:33Z</time>
      </trkpt>
      <trkpt lat="42.09574" lon="9.15426">
        <ele>1531.6</ele>
        <time>2015-06-23T05:48:35Z</time>
      </trkpt>
      <trkpt lat="42.09575" lon="9.15426">
        <ele>1531.8</ele>
        <time>2015-06-23T05:48:37Z</time>
      </trkpt>
      <trkpt lat="42.09582" lon="9.15429">
        <ele>1531.8</ele>
        <time>2015-06-23T05:48:44Z</time>
      </trkpt>
      <trkpt lat="42.0959" lon="9.15429">
        <ele>1532</ele>
        <time>2015-06-23T05:48:51Z</time>
      </trkpt>
      <trkpt lat="42.09595" lon="9.15431">
        <ele>1531.6</ele>
        <time>2015-06-23T05:48:56Z</time>
      </trkpt>
      <trkpt lat="42.0963" lon="9.15428">
        <ele>1531.4</ele>
        <time>2015-06-23T05:49:43Z</time>
      </trkpt>
      <trkpt lat="42.09633" lon="9.1543">
        <ele>1531.2</ele>
        <time>2015-06-23T05:49:48Z</time>
      </trkpt>
      <trkpt lat="42.09645" lon="9.15442">
        <ele>1529.4</ele>
        <time>2015-06-23T05:50:05Z</time>
      </trkpt>
      <trkpt lat="42.09652" lon="9.15456">
        <ele>1529.4</ele>
        <time>2015-06-23T05:50:20Z</time>
      </trkpt>
      <trkpt lat="42.09657" lon="9.15502">
        <ele>1530.4</ele>
        <time>2015-06-23T05:50:59Z</time>
      </trkpt>
      <trkpt lat="42.0966" lon="9.15509">
        <ele>1530.4</ele>
        <time>2015-06-23T05:51:10Z</time>
      </trkpt>
      <trkpt lat="42.09675" lon="9.15513">
        <ele>1528.8</ele>
        <time>2015-06-23T05:51:29Z</time>
      </trkpt>
      <trkpt lat="42.09682" lon="9.15513">
        <ele>1528.4</ele>
        <time>2015-06-23T05:51:39Z</time>
      </trkpt>
      <trkpt lat="42.09685" lon="9.15515">
        <ele>1527.8</ele>
        <time>2015-06-23T05:51:44Z</time>
      </trkpt>
      <trkpt lat="42.0969" lon="9.15516">
        <ele>1527.4</ele>
        <time>2015-06-23T05:51:50Z</time>
      </trkpt>
      <trkpt lat="42.09706" lon="9.15522">
        <ele>1528</ele>
        <time>2015-06-23T05:52:14Z</time>
      </trkpt>
      <trkpt lat="42.09712" lon="9.15521">
        <ele>1527.8</ele>
        <time>2015-06-23T05:52:22Z</time>
      </trkpt>
      <trkpt lat="42.09724" lon="9.15518">
        <ele>1526.8</ele>
        <time>2015-06-23T05:52:36Z</time>
      </trkpt>
      <trkpt lat="42.09728" lon="9.15516">
        <ele>1526.2</ele>
        <time>2015-06-23T05:52:42Z</time>
      </trkpt>
      <trkpt lat="42.09738" lon="9.15515">
        <ele>1524.6</ele>
        <time>2015-06-23T05:52:57Z</time>
      </trkpt>
      <trkpt lat="42.09761" lon="9.15551">
        <ele>1523.6</ele>
        <time>2015-06-23T05:53:35Z</time>
      </trkpt>
      <trkpt lat="42.09765" lon="9.15563">
        <ele>1522.6</ele>
        <time>2015-06-23T05:53:45Z</time>
      </trkpt>
      <trkpt lat="42.09766" lon="9.15565">
        <ele>1522.2</ele>
        <time>2015-06-23T05:53:47Z</time>
      </trkpt>
      <trkpt lat="42.09772" lon="9.15572">
        <ele>1521.2</ele>
        <time>2015-06-23T05:53:57Z</time>
      </trkpt>
      <trkpt lat="42.09781" lon="9.15577">
        <ele>1521</ele>
        <time>2015-06-23T05:54:06Z</time>
      </trkpt>
      <trkpt lat="42.09782" lon="9.15578">
        <ele>1521</ele>
        <time>2015-06-23T05:54:07Z</time>
      </trkpt>
      <trkpt lat="42.09797" lon="9.1559">
        <ele>1520</ele>
        <time>2015-06-23T05:54:41Z</time>
      </trkpt>
      <trkpt lat="42.098" lon="9.15591">
        <ele>1519.6</ele>
        <time>2015-06-23T05:54:45Z</time>
      </trkpt>
      <trkpt lat="42.09801" lon="9.15593">
        <ele>1519.4</ele>
        <time>2015-06-23T05:54:47Z</time>
      </trkpt>
      <trkpt lat="42.09803" lon="9.15595">
        <ele>1519</ele>
        <time>2015-06-23T05:54:50Z</time>
      </trkpt>
      <trkpt lat="42.09812" lon="9.15598">
        <ele>1518.8</ele>
        <time>2015-06-23T05:55:01Z</time>
      </trkpt>
      <trkpt lat="42.09813" lon="9.15598">
        <ele>1518.8</ele>
        <time>2015-06-23T05:55:02Z</time>
      </trkpt>
      <trkpt lat="42.09819" lon="9.15609">
        <ele>1519.2</ele>
        <time>2015-06-23T05:55:16Z</time>
      </trkpt>
      <trkpt lat="42.09822" lon="9.15647">
        <ele>1518.6</ele>
        <time>2015-06-23T05:55:41Z</time>
      </trkpt>
      <trkpt lat="42.09823" lon="9.15657">
        <ele>1518.2</ele>
        <time>2015-06-23T05:55:48Z</time>
      </trkpt>
      <trkpt lat="42.09826" lon="9.15663">
        <ele>1518</ele>
        <time>2015-06-23T05:55:53Z</time>
      </trkpt>
      <trkpt lat="42.09829" lon="9.15669">
        <ele>1518</ele>
        <time>2015-06-23T05:55:59Z</time>
      </trkpt>
      <trkpt lat="42.09836" lon="9.15679">
        <ele>1518.2</ele>
        <time>2015-06-23T05:56:10Z</time>
      </trkpt>
      <trkpt lat="42.09843" lon="9.15682">
        <ele>1519.2</ele>
        <time>2015-06-23T05:56:19Z</time>
      </trkpt>
      <trkpt lat="42.09846" lon="9.15683">
        <ele>1519.4</ele>
        <time>2015-06-23T05:56:22Z</time>
      </trkpt>
      <trkpt lat="42.09851" lon="9.15687">
        <ele>1520.2</ele>
        <time>2015-06-23T05:56:28Z</time>
      </trkpt>
      <trkpt lat="42.09855" lon="9.15688">
        <ele>1521.6</ele>
        <time>2015-06-23T05:56:35Z</time>
      </trkpt>
      <trkpt lat="42.09863" lon="9.15695">
        <ele>1522.6</ele>
        <time>2015-06-23T05:56:45Z</time>
      </trkpt>
      <trkpt lat="42.09881" lon="9.1571">
        <ele>1523.6</ele>
        <time>2015-06-23T05:57:08Z</time>
      </trkpt>
      <trkpt lat="42.09911" lon="9.15755">
        <ele>1523.6</ele>
        <time>2015-06-23T05:57:54Z</time>
      </trkpt>
      <trkpt lat="42.09918" lon="9.15762">
        <ele>1522.6</ele>
        <time>2015-06-23T05:58:03Z</time>
      </trkpt>
      <trkpt lat="42.0994" lon="9.15785">
        <ele>1522</ele>
        <time>2015-06-23T05:58:37Z</time>
      </trkpt>
      <trkpt lat="42.09943" lon="9.15797">
        <ele>1520.8</ele>
        <time>2015-06-23T05:58:48Z</time>
      </trkpt>
      <trkpt lat="42.09947" lon="9.15804">
        <ele>1519.6</ele>
        <time>2015-06-23T05:58:57Z</time>
      </trkpt>
      <trkpt lat="42.09949" lon="9.15808">
        <ele>1519.2</ele>
        <time>2015-06-23T05:59:01Z</time>
      </trkpt>
      <trkpt lat="42.09981" lon="9.15824">
        <ele>1518.6</ele>
        <time>2015-06-23T05:59:38Z</time>
      </trkpt>
      <trkpt lat="42.09984" lon="9.15823">
        <ele>1518.2</ele>
        <time>2015-06-23T05:59:42Z</time>
      </trkpt>
      <trkpt lat="42.09988" lon="9.15824">
        <ele>1518</ele>
        <time>2015-06-23T05:59:46Z</time>
      </trkpt>
      <trkpt lat="42.09992" lon="9.15828">
        <ele>1518</ele>
        <time>2015-06-23T05:59:50Z</time>
      </trkpt>
      <trkpt lat="42.10001" lon="9.1584">
        <ele>1517.2</ele>
        <time>2015-06-23T06:00:03Z</time>
      </trkpt>
      <trkpt lat="42.10014" lon="9.15849">
        <ele>1516.8</ele>
        <time>2015-06-23T06:00:20Z</time>
      </trkpt>
      <trkpt lat="42.1002" lon="9.15851">
        <ele>1516.8</ele>
        <time>2015-06-23T06:00:25Z</time>
      </trkpt>
      <trkpt lat="42.10024" lon="9.1585">
        <ele>1516</ele>
        <time>2015-06-23T06:00:29Z</time>
      </trkpt>
      <trkpt lat="42.1003" lon="9.15856">
        <ele>1514.2</ele>
        <time>2015-06-23T06:00:40Z</time>
      </trkpt>
      <trkpt lat="42.10031" lon="9.15858">
        <ele>1514.2</ele>
        <time>2015-06-23T06:00:42Z</time>
      </trkpt>
      <trkpt lat="42.10043" lon="9.1591">
        <ele>1515.4</ele>
        <time>2015-06-23T06:01:29Z</time>
      </trkpt>
      <trkpt lat="42.10054" lon="9.15925">
        <ele>1516.4</ele>
        <time>2015-06-23T06:01:43Z</time>
      </trkpt>
      <trkpt lat="42.1008" lon="9.15943">
        <ele>1516.6</ele>
        <time>2015-06-23T06:02:15Z</time>
      </trkpt>
      <trkpt lat="42.10078" lon="9.15952">
        <ele>1516.6</ele>
        <time>2015-06-23T06:02:21Z</time>
      </trkpt>
      <trkpt lat="42.10076" lon="9.15963">
        <ele>1515.4</ele>
        <time>2015-06-23T06:02:28Z</time>
      </trkpt>
      <trkpt lat="42.10075" lon="9.15967">
        <ele>1515</ele>
        <time>2015-06-23T06:02:32Z</time>
      </trkpt>
      <trkpt lat="42.10073" lon="9.15978">
        <ele>1514</ele>
        <time>2015-06-23T06:02:42Z</time>
      </trkpt>
      <trkpt lat="42.10074" lon="9.15986">
        <ele>1515.4</ele>
        <time>2015-06-23T06:02:51Z</time>
      </trkpt>
      <trkpt lat="42.10075" lon="9.15988">
        <ele>1515.6</ele>
        <time>2015-06-23T06:02:53Z</time>
      </trkpt>
      <trkpt lat="42.10078" lon="9.15998">
        <ele>1515.8</ele>
        <time>2015-06-23T06:03:00Z</time>
      </trkpt>
      <trkpt lat="42.10079" lon="9.16016">
        <ele>1516.2</ele>
        <time>2015-06-23T06:03:14Z</time>
      </trkpt>
      <trkpt lat="42.10079" lon="9.16016">
        <ele>1516.2</ele>
        <time>2015-06-23T06:03:15Z</time>
      </trkpt>
      <trkpt lat="42.10081" lon="9.16042">
        <ele>1517.6</ele>
        <time>2015-06-23T06:03:37Z</time>
      </trkpt>
      <trkpt lat="42.10084" lon="9.16095">
        <ele>1517.4</ele>
        <time>2015-06-23T06:04:16Z</time>
      </trkpt>
      <trkpt lat="42.10085" lon="9.16113">
        <ele>1517</ele>
        <time>2015-06-23T06:04:29Z</time>
      </trkpt>
      <trkpt lat="42.10085" lon="9.16132">
        <ele>1517</ele>
        <time>2015-06-23T06:04:43Z</time>
      </trkpt>
      <trkpt lat="42.10099" lon="9.16162">
        <ele>1515.8</ele>
        <time>2015-06-23T06:05:12Z</time>
      </trkpt>
      <trkpt lat="42.10101" lon="9.16165">
        <ele>1517</ele>
        <time>2015-06-23T06:05:17Z</time>
      </trkpt>
      <trkpt lat="42.10104" lon="9.16166">
        <ele>1517.8</ele>
        <time>2015-06-23T06:05:21Z</time>
      </trkpt>
      <trkpt lat="42.10104" lon="9.1617">
        <ele>1518.4</ele>
        <time>2015-06-23T06:05:26Z</time>
      </trkpt>
      <trkpt lat="42.10126" lon="9.16183">
        <ele>1518.8</ele>
        <time>2015-06-23T06:06:01Z</time>
      </trkpt>
      <trkpt lat="42.10132" lon="9.16181">
        <ele>1518.8</ele>
        <time>2015-06-23T06:06:08Z</time>
      </trkpt>
      <trkpt lat="42.10167" lon="9.16179">
        <ele>1518.8</ele>
        <time>2015-06-23T06:06:49Z</time>
      </trkpt>
      <trkpt lat="42.10178" lon="9.16191">
        <ele>1519.2</ele>
        <time>2015-06-23T06:07:01Z</time>
      </trkpt>
      <trkpt lat="42.10181" lon="9.16197">
        <ele>1519.4</ele>
        <time>2015-06-23T06:07:06Z</time>
      </trkpt>
      <trkpt lat="42.10201" lon="9.16205">
        <ele>1519.6</ele>
        <time>2015-06-23T06:07:40Z</time>
      </trkpt>
      <trkpt lat="42.10215" lon="9.16232">
        <ele>1519.6</ele>
        <time>2015-06-23T06:08:17Z</time>
      </trkpt>
      <trkpt lat="42.10215" lon="9.16234">
        <ele>1519.6</ele>
        <time>2015-06-23T06:08:20Z</time>
      </trkpt>
      <trkpt lat="42.10215" lon="9.16243">
        <ele>1520.6</ele>
        <time>2015-06-23T06:08:30Z</time>
      </trkpt>
      <trkpt lat="42.10214" lon="9.1625">
        <ele>1521.2</ele>
        <time>2015-06-23T06:08:35Z</time>
      </trkpt>
      <trkpt lat="42.10215" lon="9.16272">
        <ele>1521.6</ele>
        <time>2015-06-23T06:08:56Z</time>
      </trkpt>
      <trkpt lat="42.10217" lon="9.16279">
        <ele>1521.4</ele>
        <time>2015-06-23T06:09:03Z</time>
      </trkpt>
      <trkpt lat="42.10218" lon="9.16286">
        <ele>1521.4</ele>
        <time>2015-06-23T06:09:08Z</time>
      </trkpt>
      <trkpt lat="42.1023" lon="9.16329">
        <ele>1522.4</ele>
        <time>2015-06-23T06:09:52Z</time>
      </trkpt>
      <trkpt lat="42.10234" lon="9.16353">
        <ele>1523.6</ele>
        <time>2015-06-23T06:10:09Z</time>
      </trkpt>
      <trkpt lat="42.1023" lon="9.16382">
        <ele>1524.4</ele>
        <time>2015-06-23T06:10:28Z</time>
      </trkpt>
      <trkpt lat="42.10233" lon="9.16395">
        <ele>1525.4</ele>
        <time>2015-06-23T06:10:38Z</time>
      </trkpt>
      <trkpt lat="42.10232" lon="9.16403">
        <ele>1525.8</ele>
        <time>2015-06-23T06:10:46Z</time>
      </trkpt>
      <trkpt lat="42.10234" lon="9.16422">
        <ele>1527.2</ele>
        <time>2015-06-23T06:11:01Z</time>
      </trkpt>
      <trkpt lat="42.10235" lon="9.16428">
        <ele>1527.8</ele>
        <time>2015-06-23T06:11:06Z</time>
      </trkpt>
      <trkpt lat="42.10239" lon="9.1644">
        <ele>1529.4</ele>
        <time>2015-06-23T06:11:18Z</time>
      </trkpt>
      <trkpt lat="42.10246" lon="9.16448">
        <ele>1530.6</ele>
        <time>2015-06-23T06:11:31Z</time>
      </trkpt>
      <trkpt lat="42.10247" lon="9.1645">
        <ele>1530.6</ele>
        <time>2015-06-23T06:11:33Z</time>
      </trkpt>
      <trkpt lat="42.10257" lon="9.16453">
        <ele>1530.4</ele>
        <time>2015-06-23T06:11:47Z</time>
      </trkpt>
      <trkpt lat="42.10259" lon="9.16459">
        <ele>1530.6</ele>
        <time>2015-06-23T06:11:52Z</time>
      </trkpt>
      <trkpt lat="42.10274" lon="9.165">
        <ele>1532.2</ele>
        <time>2015-06-23T06:12:24Z</time>
      </trkpt>
      <trkpt lat="42.10278" lon="9.16525">
        <ele>1530.4</ele>
        <time>2015-06-23T06:12:46Z</time>
      </trkpt>
      <trkpt lat="42.10279" lon="9.16532">
        <ele>1529.8</ele>
        <time>2015-06-23T06:12:50Z</time>
      </trkpt>
      <trkpt lat="42.1028" lon="9.16536">
        <ele>1528.6</ele>
        <time>2015-06-23T06:12:54Z</time>
      </trkpt>
      <trkpt lat="42.10281" lon="9.16539">
        <ele>1527.2</ele>
        <time>2015-06-23T06:12:58Z</time>
      </trkpt>
      <trkpt lat="42.10281" lon="9.16545">
        <ele>1525.4</ele>
        <time>2015-06-23T06:13:04Z</time>
      </trkpt>
      <trkpt lat="42.1028" lon="9.1655">
        <ele>1524.2</ele>
        <time>2015-06-23T06:13:11Z</time>
      </trkpt>
      <trkpt lat="42.10279" lon="9.16558">
        <ele>1523</ele>
        <time>2015-06-23T06:13:18Z</time>
      </trkpt>
      <trkpt lat="42.10285" lon="9.16562">
        <ele>1521.8</ele>
        <time>2015-06-23T06:13:26Z</time>
      </trkpt>
      <trkpt lat="42.1029" lon="9.16561">
        <ele>1521</ele>
        <time>2015-06-23T06:13:31Z</time>
      </trkpt>
      <trkpt lat="42.10292" lon="9.1656">
        <ele>1520.6</ele>
        <time>2015-06-23T06:13:34Z</time>
      </trkpt>
      <trkpt lat="42.10295" lon="9.1656">
        <ele>1520.2</ele>
        <time>2015-06-23T06:13:36Z</time>
      </trkpt>
      <trkpt lat="42.10307" lon="9.16558">
        <ele>1519.6</ele>
        <time>2015-06-23T06:13:48Z</time>
      </trkpt>
      <trkpt lat="42.10308" lon="9.16558">
        <ele>1519.6</ele>
        <time>2015-06-23T06:13:50Z</time>
      </trkpt>
      <trkpt lat="42.10318" lon="9.16559">
        <ele>1519.8</ele>
        <time>2015-06-23T06:13:59Z</time>
      </trkpt>
      <trkpt lat="42.10325" lon="9.1656">
        <ele>1520</ele>
        <time>2015-06-23T06:14:07Z</time>
      </trkpt>
      <trkpt lat="42.10365" lon="9.16577">
        <ele>1520.6</ele>
        <time>2015-06-23T06:15:01Z</time>
      </trkpt>
      <trkpt lat="42.10366" lon="9.16578">
        <ele>1520.6</ele>
        <time>2015-06-23T06:15:02Z</time>
      </trkpt>
      <trkpt lat="42.10373" lon="9.16581">
        <ele>1521</ele>
        <time>2015-06-23T06:15:07Z</time>
      </trkpt>
      <trkpt lat="42.10391" lon="9.16591">
        <ele>1522.6</ele>
        <time>2015-06-23T06:15:24Z</time>
      </trkpt>
      <trkpt lat="42.10398" lon="9.16594">
        <ele>1523.6</ele>
        <time>2015-06-23T06:15:32Z</time>
      </trkpt>
      <trkpt lat="42.10403" lon="9.16596">
        <ele>1524.4</ele>
        <time>2015-06-23T06:15:37Z</time>
      </trkpt>
      <trkpt lat="42.10405" lon="9.16598">
        <ele>1524.8</ele>
        <time>2015-06-23T06:15:40Z</time>
      </trkpt>
      <trkpt lat="42.10417" lon="9.16615">
        <ele>1524.8</ele>
        <time>2015-06-23T06:16:00Z</time>
      </trkpt>
      <trkpt lat="42.1042" lon="9.16626">
        <ele>1524.4</ele>
        <time>2015-06-23T06:16:08Z</time>
      </trkpt>
      <trkpt lat="42.10419" lon="9.16631">
        <ele>1523.6</ele>
        <time>2015-06-23T06:16:13Z</time>
      </trkpt>
      <trkpt lat="42.10423" lon="9.16645">
        <ele>1522.6</ele>
        <time>2015-06-23T06:16:29Z</time>
      </trkpt>
      <trkpt lat="42.10423" lon="9.1665">
        <ele>1523</ele>
        <time>2015-06-23T06:16:33Z</time>
      </trkpt>
      <trkpt lat="42.10419" lon="9.16675">
        <ele>1523.4</ele>
        <time>2015-06-23T06:16:58Z</time>
      </trkpt>
      <trkpt lat="42.10417" lon="9.16682">
        <ele>1523.8</ele>
        <time>2015-06-23T06:17:05Z</time>
      </trkpt>
      <trkpt lat="42.10415" lon="9.16686">
        <ele>1524.4</ele>
        <time>2015-06-23T06:17:09Z</time>
      </trkpt>
      <trkpt lat="42.10412" lon="9.16694">
        <ele>1523.8</ele>
        <time>2015-06-23T06:17:17Z</time>
      </trkpt>
      <trkpt lat="42.10411" lon="9.16699">
        <ele>1522.8</ele>
        <time>2015-06-23T06:17:25Z</time>
      </trkpt>
      <trkpt lat="42.10409" lon="9.16701">
        <ele>1522.6</ele>
        <time>2015-06-23T06:17:28Z</time>
      </trkpt>
      <trkpt lat="42.10408" lon="9.16706">
        <ele>1522</ele>
        <time>2015-06-23T06:17:31Z</time>
      </trkpt>
      <trkpt lat="42.10406" lon="9.16714">
        <ele>1521</ele>
        <time>2015-06-23T06:17:37Z</time>
      </trkpt>
      <trkpt lat="42.10404" lon="9.16726">
        <ele>1520</ele>
        <time>2015-06-23T06:17:43Z</time>
      </trkpt>
      <trkpt lat="42.10402" lon="9.16735">
        <ele>1518.8</ele>
        <time>2015-06-23T06:17:49Z</time>
      </trkpt>
      <trkpt lat="42.10397" lon="9.16744">
        <ele>1517</ele>
        <time>2015-06-23T06:17:59Z</time>
      </trkpt>
      <trkpt lat="42.10391" lon="9.16758">
        <ele>1516.2</ele>
        <time>2015-06-23T06:18:10Z</time>
      </trkpt>
      <trkpt lat="42.10388" lon="9.16769">
        <ele>1516.2</ele>
        <time>2015-06-23T06:18:18Z</time>
      </trkpt>
      <trkpt lat="42.10387" lon="9.16791">
        <ele>1517</ele>
        <time>2015-06-23T06:18:33Z</time>
      </trkpt>
      <trkpt lat="42.10385" lon="9.16797">
        <ele>1517.2</ele>
        <time>2015-06-23T06:18:38Z</time>
      </trkpt>
      <trkpt lat="42.10379" lon="9.16812">
        <ele>1518.6</ele>
        <time>2015-06-23T06:18:54Z</time>
      </trkpt>
      <trkpt lat="42.10376" lon="9.1682">
        <ele>1517.4</ele>
        <time>2015-06-23T06:19:00Z</time>
      </trkpt>
      <trkpt lat="42.10373" lon="9.16824">
        <ele>1516.8</ele>
        <time>2015-06-23T06:19:05Z</time>
      </trkpt>
      <trkpt lat="42.10369" lon="9.16829">
        <ele>1516.6</ele>
        <time>2015-06-23T06:19:11Z</time>
      </trkpt>
      <trkpt lat="42.10366" lon="9.16834">
        <ele>1516.6</ele>
        <time>2015-06-23T06:19:17Z</time>
      </trkpt>
      <trkpt lat="42.10364" lon="9.16841">
        <ele>1516.8</ele>
        <time>2015-06-23T06:19:26Z</time>
      </trkpt>
      <trkpt lat="42.10363" lon="9.16846">
        <ele>1516.4</ele>
        <time>2015-06-23T06:19:31Z</time>
      </trkpt>
      <trkpt lat="42.10362" lon="9.16854">
        <ele>1515.2</ele>
        <time>2015-06-23T06:19:36Z</time>
      </trkpt>
      <trkpt lat="42.10359" lon="9.16876">
        <ele>1514.4</ele>
        <time>2015-06-23T06:19:55Z</time>
      </trkpt>
      <trkpt lat="42.10359" lon="9.16879">
        <ele>1514.6</ele>
        <time>2015-06-23T06:19:58Z</time>
      </trkpt>
      <trkpt lat="42.10356" lon="9.16888">
        <ele>1514.6</ele>
        <time>2015-06-23T06:20:06Z</time>
      </trkpt>
      <trkpt lat="42.10352" lon="9.16892">
        <ele>1514.2</ele>
        <time>2015-06-23T06:20:10Z</time>
      </trkpt>
      <trkpt lat="42.10346" lon="9.16902">
        <ele>1514.2</ele>
        <time>2015-06-23T06:20:16Z</time>
      </trkpt>
      <trkpt lat="42.10338" lon="9.1691">
        <ele>1514.4</ele>
        <time>2015-06-23T06:20:25Z</time>
      </trkpt>
      <trkpt lat="42.10336" lon="9.16913">
        <ele>1514.4</ele>
        <time>2015-06-23T06:20:28Z</time>
      </trkpt>
      <trkpt lat="42.10334" lon="9.16917">
        <ele>1513.4</ele>
        <time>2015-06-23T06:20:32Z</time>
      </trkpt>
      <trkpt lat="42.10304" lon="9.16963">
        <ele>1511.4</ele>
        <time>2015-06-23T06:21:12Z</time>
      </trkpt>
      <trkpt lat="42.10303" lon="9.16967">
        <ele>1511.4</ele>
        <time>2015-06-23T06:21:15Z</time>
      </trkpt>
      <trkpt lat="42.10303" lon="9.1697">
        <ele>1511.2</ele>
        <time>2015-06-23T06:21:17Z</time>
      </trkpt>
      <trkpt lat="42.10295" lon="9.16985">
        <ele>1508.4</ele>
        <time>2015-06-23T06:21:35Z</time>
      </trkpt>
      <trkpt lat="42.10285" lon="9.17006">
        <ele>1508.2</ele>
        <time>2015-06-23T06:21:55Z</time>
      </trkpt>
      <trkpt lat="42.10284" lon="9.17007">
        <ele>1508.2</ele>
        <time>2015-06-23T06:21:57Z</time>
      </trkpt>
      <trkpt lat="42.10282" lon="9.1701">
        <ele>1508.2</ele>
        <time>2015-06-23T06:21:59Z</time>
      </trkpt>
      <trkpt lat="42.10281" lon="9.17013">
        <ele>1508.2</ele>
        <time>2015-06-23T06:22:02Z</time>
      </trkpt>
      <trkpt lat="42.10275" lon="9.17041">
        <ele>1507.2</ele>
        <time>2015-06-23T06:22:25Z</time>
      </trkpt>
      <trkpt lat="42.10273" lon="9.17044">
        <ele>1506.6</ele>
        <time>2015-06-23T06:22:29Z</time>
      </trkpt>
      <trkpt lat="42.1027" lon="9.17048">
        <ele>1505.8</ele>
        <time>2015-06-23T06:22:34Z</time>
      </trkpt>
      <trkpt lat="42.10259" lon="9.17078">
        <ele>1503.6</ele>
        <time>2015-06-23T06:22:54Z</time>
      </trkpt>
      <trkpt lat="42.10261" lon="9.17089">
        <ele>1502</ele>
        <time>2015-06-23T06:23:06Z</time>
      </trkpt>
      <trkpt lat="42.10259" lon="9.17093">
        <ele>1502</ele>
        <time>2015-06-23T06:23:09Z</time>
      </trkpt>
      <trkpt lat="42.10251" lon="9.17154">
        <ele>1501.6</ele>
        <time>2015-06-23T06:23:47Z</time>
      </trkpt>
      <trkpt lat="42.10252" lon="9.17161">
        <ele>1501</ele>
        <time>2015-06-23T06:23:53Z</time>
      </trkpt>
      <trkpt lat="42.10249" lon="9.17205">
        <ele>1499.8</ele>
        <time>2015-06-23T06:24:24Z</time>
      </trkpt>
      <trkpt lat="42.10255" lon="9.17239">
        <ele>1499</ele>
        <time>2015-06-23T06:24:48Z</time>
      </trkpt>
      <trkpt lat="42.10256" lon="9.17242">
        <ele>1498.8</ele>
        <time>2015-06-23T06:24:50Z</time>
      </trkpt>
      <trkpt lat="42.10268" lon="9.17253">
        <ele>1497.8</ele>
        <time>2015-06-23T06:25:04Z</time>
      </trkpt>
      <trkpt lat="42.1027" lon="9.17253">
        <ele>1497.4</ele>
        <time>2015-06-23T06:25:10Z</time>
      </trkpt>
      <trkpt lat="42.10276" lon="9.17264">
        <ele>1496.8</ele>
        <time>2015-06-23T06:25:33Z</time>
      </trkpt>
      <trkpt lat="42.10277" lon="9.17264">
        <ele>1496.8</ele>
        <time>2015-06-23T06:25:35Z</time>
      </trkpt>
      <trkpt lat="42.10285" lon="9.17269">
        <ele>1495.8</ele>
        <time>2015-06-23T06:25:54Z</time>
      </trkpt>
      <trkpt lat="42.10285" lon="9.17269">
        <ele>1495.6</ele>
        <time>2015-06-23T06:25:57Z</time>
      </trkpt>
      <trkpt lat="42.10285" lon="9.1727">
        <ele>1494.6</ele>
        <time>2015-06-23T06:26:04Z</time>
      </trkpt>
      <trkpt lat="42.10286" lon="9.17271">
        <ele>1494.6</ele>
        <time>2015-06-23T06:26:13Z</time>
      </trkpt>
      <trkpt lat="42.10285" lon="9.17271">
        <ele>1495.4</ele>
        <time>2015-06-23T06:26:26Z</time>
      </trkpt>
      <trkpt lat="42.10275" lon="9.17259">
        <ele>1496</ele>
        <time>2015-06-23T06:26:46Z</time>
      </trkpt>
      <trkpt lat="42.10274" lon="9.17256">
        <ele>1496.4</ele>
        <time>2015-06-23T06:26:50Z</time>
      </trkpt>
      <trkpt lat="42.10274" lon="9.17259">
        <ele>1497</ele>
        <time>2015-06-23T06:26:58Z</time>
      </trkpt>
      <trkpt lat="42.10271" lon="9.17248">
        <ele>1497.4</ele>
        <time>2015-06-23T06:27:43Z</time>
      </trkpt>
      <trkpt lat="42.10272" lon="9.17252">
        <ele>1497.2</ele>
        <time>2015-06-23T06:27:47Z</time>
      </trkpt>
      <trkpt lat="42.10274" lon="9.17254">
        <ele>1498.8</ele>
        <time>2015-06-23T06:27:55Z</time>
      </trkpt>
      <trkpt lat="42.10274" lon="9.17254">
        <ele>1498.8</ele>
        <time>2015-06-23T06:27:57Z</time>
      </trkpt>
      <trkpt lat="42.10275" lon="9.17254">
        <ele>1497</ele>
        <time>2015-06-23T06:28:10Z</time>
      </trkpt>
      <trkpt lat="42.10274" lon="9.17255">
        <ele>1496.8</ele>
        <time>2015-06-23T06:28:49Z</time>
      </trkpt>
      <trkpt lat="42.10274" lon="9.17255">
        <ele>1496.2</ele>
        <time>2015-06-23T06:29:08Z</time>
      </trkpt>
      <trkpt lat="42.10273" lon="9.17254">
        <ele>1497.6</ele>
        <time>2015-06-23T06:29:21Z</time>
      </trkpt>
      <trkpt lat="42.10273" lon="9.17254">
        <ele>1498</ele>
        <time>2015-06-23T06:29:30Z</time>
      </trkpt>
      <trkpt lat="42.10272" lon="9.17254">
        <ele>1498</ele>
        <time>2015-06-23T06:29:34Z</time>
      </trkpt>
      <trkpt lat="42.10277" lon="9.1725">
        <ele>1496.6</ele>
        <time>2015-06-23T06:30:30Z</time>
      </trkpt>
      <trkpt lat="42.10274" lon="9.1725">
        <ele>1495.2</ele>
        <time>2015-06-23T06:31:08Z</time>
      </trkpt>
      <trkpt lat="42.10276" lon="9.1725">
        <ele>1496.2</ele>
        <time>2015-06-23T06:31:27Z</time>
      </trkpt>
      <trkpt lat="42.10279" lon="9.17247">
        <ele>1497</ele>
        <time>2015-06-23T06:32:08Z</time>
      </trkpt>
      <trkpt lat="42.10279" lon="9.17248">
        <ele>1498</ele>
        <time>2015-06-23T06:32:25Z</time>
      </trkpt>
      <trkpt lat="42.10279" lon="9.17248">
        <ele>1498</ele>
        <time>2015-06-23T06:32:52Z</time>
      </trkpt>
      <trkpt lat="42.10281" lon="9.17249">
        <ele>1497.6</ele>
        <time>2015-06-23T06:32:56Z</time>
      </trkpt>
      <trkpt lat="42.10291" lon="9.17242">
        <ele>1495.8</ele>
        <time>2015-06-23T06:33:10Z</time>
      </trkpt>
      <trkpt lat="42.10298" lon="9.17235">
        <ele>1496.4</ele>
        <time>2015-06-23T06:33:20Z</time>
      </trkpt>
      <trkpt lat="42.1033" lon="9.17191">
        <ele>1495.6</ele>
        <time>2015-06-23T06:34:04Z</time>
      </trkpt>
      <trkpt lat="42.10361" lon="9.1716">
        <ele>1496</ele>
        <time>2015-06-23T06:34:39Z</time>
      </trkpt>
      <trkpt lat="42.10366" lon="9.17155">
        <ele>1496</ele>
        <time>2015-06-23T06:34:47Z</time>
      </trkpt>
      <trkpt lat="42.10381" lon="9.1714">
        <ele>1496.6</ele>
        <time>2015-06-23T06:35:05Z</time>
      </trkpt>
      <trkpt lat="42.1039" lon="9.17133">
        <ele>1496.2</ele>
        <time>2015-06-23T06:35:17Z</time>
      </trkpt>
      <trkpt lat="42.10393" lon="9.17131">
        <ele>1496.4</ele>
        <time>2015-06-23T06:35:20Z</time>
      </trkpt>
      <trkpt lat="42.10397" lon="9.17128">
        <ele>1497.6</ele>
        <time>2015-06-23T06:35:24Z</time>
      </trkpt>
      <trkpt lat="42.10413" lon="9.17117">
        <ele>1500.4</ele>
        <time>2015-06-23T06:35:41Z</time>
      </trkpt>
      <trkpt lat="42.10419" lon="9.17112">
        <ele>1501</ele>
        <time>2015-06-23T06:35:48Z</time>
      </trkpt>
      <trkpt lat="42.10423" lon="9.17109">
        <ele>1501</ele>
        <time>2015-06-23T06:35:54Z</time>
      </trkpt>
      <trkpt lat="42.1044" lon="9.17095">
        <ele>1500.4</ele>
        <time>2015-06-23T06:36:14Z</time>
      </trkpt>
      <trkpt lat="42.10444" lon="9.17094">
        <ele>1500.6</ele>
        <time>2015-06-23T06:36:16Z</time>
      </trkpt>
      <trkpt lat="42.10448" lon="9.17091">
        <ele>1500.6</ele>
        <time>2015-06-23T06:36:20Z</time>
      </trkpt>
      <trkpt lat="42.10455" lon="9.17077">
        <ele>1500.6</ele>
        <time>2015-06-23T06:36:31Z</time>
      </trkpt>
      <trkpt lat="42.10457" lon="9.17075">
        <ele>1501</ele>
        <time>2015-06-23T06:36:33Z</time>
      </trkpt>
      <trkpt lat="42.10459" lon="9.17069">
        <ele>1501.4</ele>
        <time>2015-06-23T06:36:38Z</time>
      </trkpt>
      <trkpt lat="42.10466" lon="9.17057">
        <ele>1501.4</ele>
        <time>2015-06-23T06:36:49Z</time>
      </trkpt>
      <trkpt lat="42.10469" lon="9.17055">
        <ele>1500.8</ele>
        <time>2015-06-23T06:36:52Z</time>
      </trkpt>
      <trkpt lat="42.10478" lon="9.17046">
        <ele>1499.6</ele>
        <time>2015-06-23T06:37:08Z</time>
      </trkpt>
      <trkpt lat="42.10482" lon="9.17042">
        <ele>1499</ele>
        <time>2015-06-23T06:37:14Z</time>
      </trkpt>
      <trkpt lat="42.10484" lon="9.17041">
        <ele>1498.6</ele>
        <time>2015-06-23T06:37:16Z</time>
      </trkpt>
      <trkpt lat="42.10486" lon="9.17038">
        <ele>1498.2</ele>
        <time>2015-06-23T06:37:19Z</time>
      </trkpt>
      <trkpt lat="42.10502" lon="9.17025">
        <ele>1497.6</ele>
        <time>2015-06-23T06:37:32Z</time>
      </trkpt>
      <trkpt lat="42.10518" lon="9.17002">
        <ele>1498.4</ele>
        <time>2015-06-23T06:37:54Z</time>
      </trkpt>
      <trkpt lat="42.10524" lon="9.16997">
        <ele>1498</ele>
        <time>2015-06-23T06:37:59Z</time>
      </trkpt>
      <trkpt lat="42.10525" lon="9.16996">
        <ele>1497.8</ele>
        <time>2015-06-23T06:38:00Z</time>
      </trkpt>
      <trkpt lat="42.10529" lon="9.16993">
        <ele>1497.2</ele>
        <time>2015-06-23T06:38:04Z</time>
      </trkpt>
      <trkpt lat="42.10531" lon="9.16992">
        <ele>1496.8</ele>
        <time>2015-06-23T06:38:07Z</time>
      </trkpt>
      <trkpt lat="42.10533" lon="9.1699">
        <ele>1496.4</ele>
        <time>2015-06-23T06:38:09Z</time>
      </trkpt>
      <trkpt lat="42.10534" lon="9.16986">
        <ele>1495.2</ele>
        <time>2015-06-23T06:38:13Z</time>
      </trkpt>
      <trkpt lat="42.10539" lon="9.16974">
        <ele>1493.4</ele>
        <time>2015-06-23T06:38:24Z</time>
      </trkpt>
      <trkpt lat="42.1054" lon="9.16972">
        <ele>1493</ele>
        <time>2015-06-23T06:38:26Z</time>
      </trkpt>
      <trkpt lat="42.10542" lon="9.16968">
        <ele>1493</ele>
        <time>2015-06-23T06:38:29Z</time>
      </trkpt>
      <trkpt lat="42.10564" lon="9.16915">
        <ele>1491.6</ele>
        <time>2015-06-23T06:39:14Z</time>
      </trkpt>
      <trkpt lat="42.10566" lon="9.16911">
        <ele>1491.2</ele>
        <time>2015-06-23T06:39:18Z</time>
      </trkpt>
      <trkpt lat="42.10568" lon="9.16908">
        <ele>1490.6</ele>
        <time>2015-06-23T06:39:23Z</time>
      </trkpt>
      <trkpt lat="42.1057" lon="9.16902">
        <ele>1489</ele>
        <time>2015-06-23T06:39:32Z</time>
      </trkpt>
      <trkpt lat="42.10575" lon="9.16899">
        <ele>1489</ele>
        <time>2015-06-23T06:39:36Z</time>
      </trkpt>
      <trkpt lat="42.10582" lon="9.1689">
        <ele>1489.2</ele>
        <time>2015-06-23T06:39:47Z</time>
      </trkpt>
      <trkpt lat="42.10584" lon="9.16884">
        <ele>1490.8</ele>
        <time>2015-06-23T06:39:55Z</time>
      </trkpt>
      <trkpt lat="42.10588" lon="9.16863">
        <ele>1492.4</ele>
        <time>2015-06-23T06:40:20Z</time>
      </trkpt>
      <trkpt lat="42.1059" lon="9.16856">
        <ele>1492.8</ele>
        <time>2015-06-23T06:40:26Z</time>
      </trkpt>
      <trkpt lat="42.1059" lon="9.1685">
        <ele>1493.8</ele>
        <time>2015-06-23T06:40:31Z</time>
      </trkpt>
      <trkpt lat="42.10591" lon="9.16848">
        <ele>1494.2</ele>
        <time>2015-06-23T06:40:33Z</time>
      </trkpt>
      <trkpt lat="42.10591" lon="9.16835">
        <ele>1495.4</ele>
        <time>2015-06-23T06:40:49Z</time>
      </trkpt>
      <trkpt lat="42.10595" lon="9.16833">
        <ele>1496</ele>
        <time>2015-06-23T06:40:54Z</time>
      </trkpt>
      <trkpt lat="42.10597" lon="9.1683">
        <ele>1496.8</ele>
        <time>2015-06-23T06:40:58Z</time>
      </trkpt>
      <trkpt lat="42.10599" lon="9.16826">
        <ele>1498</ele>
        <time>2015-06-23T06:41:03Z</time>
      </trkpt>
      <trkpt lat="42.10605" lon="9.16818">
        <ele>1499</ele>
        <time>2015-06-23T06:41:12Z</time>
      </trkpt>
      <trkpt lat="42.10607" lon="9.16815">
        <ele>1499</ele>
        <time>2015-06-23T06:41:15Z</time>
      </trkpt>
      <trkpt lat="42.10615" lon="9.16805">
        <ele>1498.8</ele>
        <time>2015-06-23T06:41:23Z</time>
      </trkpt>
      <trkpt lat="42.10616" lon="9.16803">
        <ele>1498.8</ele>
        <time>2015-06-23T06:41:25Z</time>
      </trkpt>
      <trkpt lat="42.10616" lon="9.168">
        <ele>1498.8</ele>
        <time>2015-06-23T06:41:29Z</time>
      </trkpt>
      <trkpt lat="42.10618" lon="9.16794">
        <ele>1499.2</ele>
        <time>2015-06-23T06:41:36Z</time>
      </trkpt>
      <trkpt lat="42.1062" lon="9.1679">
        <ele>1499.8</ele>
        <time>2015-06-23T06:41:42Z</time>
      </trkpt>
      <trkpt lat="42.10624" lon="9.16783">
        <ele>1501.4</ele>
        <time>2015-06-23T06:41:49Z</time>
      </trkpt>
      <trkpt lat="42.10627" lon="9.16774">
        <ele>1502.6</ele>
        <time>2015-06-23T06:41:58Z</time>
      </trkpt>
      <trkpt lat="42.10627" lon="9.16773">
        <ele>1502.8</ele>
        <time>2015-06-23T06:41:59Z</time>
      </trkpt>
      <trkpt lat="42.10627" lon="9.16771">
        <ele>1503</ele>
        <time>2015-06-23T06:42:01Z</time>
      </trkpt>
      <trkpt lat="42.1063" lon="9.16764">
        <ele>1503.4</ele>
        <time>2015-06-23T06:42:07Z</time>
      </trkpt>
      <trkpt lat="42.1063" lon="9.16762">
        <ele>1503.4</ele>
        <time>2015-06-23T06:42:09Z</time>
      </trkpt>
      <trkpt lat="42.10633" lon="9.16755">
        <ele>1503.8</ele>
        <time>2015-06-23T06:42:19Z</time>
      </trkpt>
      <trkpt lat="42.10634" lon="9.16751">
        <ele>1504.6</ele>
        <time>2015-06-23T06:42:27Z</time>
      </trkpt>
      <trkpt lat="42.1064" lon="9.16749">
        <ele>1505.4</ele>
        <time>2015-06-23T06:42:35Z</time>
      </trkpt>
      <trkpt lat="42.10642" lon="9.16749">
        <ele>1505.8</ele>
        <time>2015-06-23T06:42:38Z</time>
      </trkpt>
      <trkpt lat="42.10645" lon="9.16749">
        <ele>1506</ele>
        <time>2015-06-23T06:42:40Z</time>
      </trkpt>
      <trkpt lat="42.10652" lon="9.16749">
        <ele>1506.8</ele>
        <time>2015-06-23T06:42:49Z</time>
      </trkpt>
      <trkpt lat="42.10657" lon="9.1675">
        <ele>1507.8</ele>
        <time>2015-06-23T06:42:57Z</time>
      </trkpt>
      <trkpt lat="42.10675" lon="9.16749">
        <ele>1508.8</ele>
        <time>2015-06-23T06:43:33Z</time>
      </trkpt>
      <trkpt lat="42.10678" lon="9.16748">
        <ele>1509.8</ele>
        <time>2015-06-23T06:43:40Z</time>
      </trkpt>
      <trkpt lat="42.10681" lon="9.16749">
        <ele>1510.4</ele>
        <time>2015-06-23T06:43:45Z</time>
      </trkpt>
      <trkpt lat="42.10685" lon="9.16748">
        <ele>1512</ele>
        <time>2015-06-23T06:43:53Z</time>
      </trkpt>
      <trkpt lat="42.10697" lon="9.16748">
        <ele>1513.2</ele>
        <time>2015-06-23T06:44:13Z</time>
      </trkpt>
      <trkpt lat="42.10716" lon="9.16744">
        <ele>1513.2</ele>
        <time>2015-06-23T06:44:43Z</time>
      </trkpt>
      <trkpt lat="42.10717" lon="9.16742">
        <ele>1513.6</ele>
        <time>2015-06-23T06:44:48Z</time>
      </trkpt>
      <trkpt lat="42.10719" lon="9.16739">
        <ele>1515</ele>
        <time>2015-06-23T06:44:55Z</time>
      </trkpt>
      <trkpt lat="42.10721" lon="9.16733">
        <ele>1515.8</ele>
        <time>2015-06-23T06:45:04Z</time>
      </trkpt>
      <trkpt lat="42.10725" lon="9.1673">
        <ele>1517</ele>
        <time>2015-06-23T06:45:12Z</time>
      </trkpt>
      <trkpt lat="42.10742" lon="9.16716">
        <ele>1518</ele>
        <time>2015-06-23T06:45:40Z</time>
      </trkpt>
      <trkpt lat="42.10745" lon="9.16711">
        <ele>1518.8</ele>
        <time>2015-06-23T06:45:48Z</time>
      </trkpt>
      <trkpt lat="42.10754" lon="9.16711">
        <ele>1520</ele>
        <time>2015-06-23T06:46:05Z</time>
      </trkpt>
      <trkpt lat="42.10759" lon="9.16712">
        <ele>1520.2</ele>
        <time>2015-06-23T06:46:09Z</time>
      </trkpt>
      <trkpt lat="42.10777" lon="9.16715">
        <ele>1520.6</ele>
        <time>2015-06-23T06:46:27Z</time>
      </trkpt>
      <trkpt lat="42.10785" lon="9.16717">
        <ele>1521.4</ele>
        <time>2015-06-23T06:46:38Z</time>
      </trkpt>
      <trkpt lat="42.1079" lon="9.16722">
        <ele>1522.4</ele>
        <time>2015-06-23T06:46:47Z</time>
      </trkpt>
      <trkpt lat="42.10802" lon="9.1673">
        <ele>1522.8</ele>
        <time>2015-06-23T06:47:03Z</time>
      </trkpt>
      <trkpt lat="42.10807" lon="9.16733">
        <ele>1522.6</ele>
        <time>2015-06-23T06:47:10Z</time>
      </trkpt>
      <trkpt lat="42.1081" lon="9.16735">
        <ele>1523</ele>
        <time>2015-06-23T06:47:17Z</time>
      </trkpt>
      <trkpt lat="42.10812" lon="9.16739">
        <ele>1524</ele>
        <time>2015-06-23T06:47:24Z</time>
      </trkpt>
      <trkpt lat="42.10817" lon="9.16743">
        <ele>1525.2</ele>
        <time>2015-06-23T06:47:34Z</time>
      </trkpt>
      <trkpt lat="42.1082" lon="9.16745">
        <ele>1525.4</ele>
        <time>2015-06-23T06:47:37Z</time>
      </trkpt>
      <trkpt lat="42.10823" lon="9.16748">
        <ele>1525.8</ele>
        <time>2015-06-23T06:47:41Z</time>
      </trkpt>
      <trkpt lat="42.10832" lon="9.16757">
        <ele>1527.4</ele>
        <time>2015-06-23T06:47:58Z</time>
      </trkpt>
      <trkpt lat="42.10842" lon="9.16761">
        <ele>1527.8</ele>
        <time>2015-06-23T06:48:11Z</time>
      </trkpt>
      <trkpt lat="42.10848" lon="9.16763">
        <ele>1529</ele>
        <time>2015-06-23T06:48:21Z</time>
      </trkpt>
      <trkpt lat="42.10855" lon="9.1677">
        <ele>1529.2</ele>
        <time>2015-06-23T06:48:31Z</time>
      </trkpt>
      <trkpt lat="42.10869" lon="9.16778">
        <ele>1529.4</ele>
        <time>2015-06-23T06:48:51Z</time>
      </trkpt>
      <trkpt lat="42.1087" lon="9.16779">
        <ele>1530.2</ele>
        <time>2015-06-23T06:48:56Z</time>
      </trkpt>
      <trkpt lat="42.10873" lon="9.16783">
        <ele>1531.4</ele>
        <time>2015-06-23T06:49:02Z</time>
      </trkpt>
      <trkpt lat="42.10876" lon="9.16785">
        <ele>1532</ele>
        <time>2015-06-23T06:49:05Z</time>
      </trkpt>
      <trkpt lat="42.10883" lon="9.1679">
        <ele>1532.8</ele>
        <time>2015-06-23T06:49:17Z</time>
      </trkpt>
      <trkpt lat="42.1089" lon="9.16796">
        <ele>1532.6</ele>
        <time>2015-06-23T06:49:37Z</time>
      </trkpt>
      <trkpt lat="42.10891" lon="9.16797">
        <ele>1532.8</ele>
        <time>2015-06-23T06:49:38Z</time>
      </trkpt>
      <trkpt lat="42.10893" lon="9.16805">
        <ele>1531.4</ele>
        <time>2015-06-23T06:49:52Z</time>
      </trkpt>
      <trkpt lat="42.10897" lon="9.16807">
        <ele>1531.2</ele>
        <time>2015-06-23T06:49:56Z</time>
      </trkpt>
      <trkpt lat="42.10926" lon="9.16791">
        <ele>1530.2</ele>
        <time>2015-06-23T06:50:42Z</time>
      </trkpt>
      <trkpt lat="42.10931" lon="9.16731">
        <ele>1529.6</ele>
        <time>2015-06-23T06:51:35Z</time>
      </trkpt>
      <trkpt lat="42.10931" lon="9.16717">
        <ele>1529.6</ele>
        <time>2015-06-23T06:51:47Z</time>
      </trkpt>
      <trkpt lat="42.1093" lon="9.16713">
        <ele>1529.8</ele>
        <time>2015-06-23T06:51:51Z</time>
      </trkpt>
      <trkpt lat="42.10928" lon="9.1668">
        <ele>1530.2</ele>
        <time>2015-06-23T06:52:15Z</time>
      </trkpt>
      <trkpt lat="42.10927" lon="9.16669">
        <ele>1530.4</ele>
        <time>2015-06-23T06:52:31Z</time>
      </trkpt>
      <trkpt lat="42.1092" lon="9.16639">
        <ele>1529.2</ele>
        <time>2015-06-23T06:52:55Z</time>
      </trkpt>
      <trkpt lat="42.10917" lon="9.16624">
        <ele>1528.2</ele>
        <time>2015-06-23T06:53:06Z</time>
      </trkpt>
      <trkpt lat="42.10909" lon="9.16565">
        <ele>1528.4</ele>
        <time>2015-06-23T06:53:54Z</time>
      </trkpt>
      <trkpt lat="42.10903" lon="9.16546">
        <ele>1527.2</ele>
        <time>2015-06-23T06:54:11Z</time>
      </trkpt>
      <trkpt lat="42.10894" lon="9.16496">
        <ele>1527.4</ele>
        <time>2015-06-23T06:54:50Z</time>
      </trkpt>
      <trkpt lat="42.10894" lon="9.16488">
        <ele>1528.2</ele>
        <time>2015-06-23T06:54:58Z</time>
      </trkpt>
      <trkpt lat="42.10894" lon="9.1648">
        <ele>1528.4</ele>
        <time>2015-06-23T06:55:04Z</time>
      </trkpt>
      <trkpt lat="42.10894" lon="9.16476">
        <ele>1528.6</ele>
        <time>2015-06-23T06:55:07Z</time>
      </trkpt>
      <trkpt lat="42.10889" lon="9.16466">
        <ele>1526.4</ele>
        <time>2015-06-23T06:55:18Z</time>
      </trkpt>
      <trkpt lat="42.10885" lon="9.16451">
        <ele>1527.8</ele>
        <time>2015-06-23T06:55:34Z</time>
      </trkpt>
      <trkpt lat="42.10885" lon="9.16447">
        <ele>1528</ele>
        <time>2015-06-23T06:55:38Z</time>
      </trkpt>
      <trkpt lat="42.10884" lon="9.16446">
        <ele>1528.2</ele>
        <time>2015-06-23T06:55:40Z</time>
      </trkpt>
      <trkpt lat="42.10884" lon="9.16445">
        <ele>1528.6</ele>
        <time>2015-06-23T06:55:41Z</time>
      </trkpt>
      <trkpt lat="42.10885" lon="9.16443">
        <ele>1528.8</ele>
        <time>2015-06-23T06:55:43Z</time>
      </trkpt>
      <trkpt lat="42.10888" lon="9.16442">
        <ele>1531.6</ele>
        <time>2015-06-23T06:55:50Z</time>
      </trkpt>
      <trkpt lat="42.10884" lon="9.16433">
        <ele>1533</ele>
        <time>2015-06-23T06:56:00Z</time>
      </trkpt>
      <trkpt lat="42.10878" lon="9.16404">
        <ele>1534</ele>
        <time>2015-06-23T06:56:31Z</time>
      </trkpt>
      <trkpt lat="42.10875" lon="9.16398">
        <ele>1535</ele>
        <time>2015-06-23T06:56:39Z</time>
      </trkpt>
      <trkpt lat="42.10871" lon="9.16386">
        <ele>1536.2</ele>
        <time>2015-06-23T06:56:54Z</time>
      </trkpt>
      <trkpt lat="42.10871" lon="9.16378">
        <ele>1537.6</ele>
        <time>2015-06-23T06:57:04Z</time>
      </trkpt>
      <trkpt lat="42.10869" lon="9.16367">
        <ele>1538.4</ele>
        <time>2015-06-23T06:57:18Z</time>
      </trkpt>
      <trkpt lat="42.10869" lon="9.16353">
        <ele>1539.8</ele>
        <time>2015-06-23T06:57:35Z</time>
      </trkpt>
      <trkpt lat="42.1087" lon="9.16351">
        <ele>1539.8</ele>
        <time>2015-06-23T06:57:37Z</time>
      </trkpt>
      <trkpt lat="42.10871" lon="9.16348">
        <ele>1540</ele>
        <time>2015-06-23T06:57:40Z</time>
      </trkpt>
      <trkpt lat="42.10871" lon="9.16337">
        <ele>1540.4</ele>
        <time>2015-06-23T06:57:50Z</time>
      </trkpt>
      <trkpt lat="42.10864" lon="9.16302">
        <ele>1539.8</ele>
        <time>2015-06-23T06:58:21Z</time>
      </trkpt>
      <trkpt lat="42.10855" lon="9.16283">
        <ele>1540.8</ele>
        <time>2015-06-23T06:58:41Z</time>
      </trkpt>
      <trkpt lat="42.10849" lon="9.1627">
        <ele>1540</ele>
        <time>2015-06-23T06:58:57Z</time>
      </trkpt>
      <trkpt lat="42.10848" lon="9.16265">
        <ele>1541.8</ele>
        <time>2015-06-23T06:59:08Z</time>
      </trkpt>
      <trkpt lat="42.10841" lon="9.16239">
        <ele>1542.2</ele>
        <time>2015-06-23T06:59:30Z</time>
      </trkpt>
      <trkpt lat="42.10843" lon="9.16236">
        <ele>1542</ele>
        <time>2015-06-23T06:59:32Z</time>
      </trkpt>
      <trkpt lat="42.10847" lon="9.16209">
        <ele>1541.2</ele>
        <time>2015-06-23T06:59:57Z</time>
      </trkpt>
      <trkpt lat="42.10847" lon="9.16195">
        <ele>1540.6</ele>
        <time>2015-06-23T07:00:08Z</time>
      </trkpt>
      <trkpt lat="42.10847" lon="9.16194">
        <ele>1540.6</ele>
        <time>2015-06-23T07:00:09Z</time>
      </trkpt>
      <trkpt lat="42.10846" lon="9.16194">
        <ele>1541.4</ele>
        <time>2015-06-23T07:00:16Z</time>
      </trkpt>
      <trkpt lat="42.10845" lon="9.16189">
        <ele>1542.2</ele>
        <time>2015-06-23T07:00:53Z</time>
      </trkpt>
      <trkpt lat="42.10845" lon="9.16189">
        <ele>1542</ele>
        <time>2015-06-23T07:00:56Z</time>
      </trkpt>
      <trkpt lat="42.10845" lon="9.16188">
        <ele>1539</ele>
        <time>2015-06-23T07:01:05Z</time>
      </trkpt>
      <trkpt lat="42.10843" lon="9.16188">
        <ele>1539.2</ele>
        <time>2015-06-23T07:01:27Z</time>
      </trkpt>
      <trkpt lat="42.10843" lon="9.16189">
        <ele>1539.4</ele>
        <time>2015-06-23T07:01:32Z</time>
      </trkpt>
      <trkpt lat="42.10842" lon="9.1619">
        <ele>1540.8</ele>
        <time>2015-06-23T07:01:39Z</time>
      </trkpt>
      <trkpt lat="42.10841" lon="9.1619">
        <ele>1541.6</ele>
        <time>2015-06-23T07:01:45Z</time>
      </trkpt>
      <trkpt lat="42.10841" lon="9.1619">
        <ele>1541.8</ele>
        <time>2015-06-23T07:01:47Z</time>
      </trkpt>
      <trkpt lat="42.1084" lon="9.1619">
        <ele>1543.2</ele>
        <time>2015-06-23T07:02:01Z</time>
      </trkpt>
      <trkpt lat="42.10841" lon="9.16189">
        <ele>1543</ele>
        <time>2015-06-23T07:02:29Z</time>
      </trkpt>
      <trkpt lat="42.10843" lon="9.16188">
        <ele>1543.2</ele>
        <time>2015-06-23T07:02:45Z</time>
      </trkpt>
      <trkpt lat="42.10841" lon="9.16189">
        <ele>1543.4</ele>
        <time>2015-06-23T07:02:51Z</time>
      </trkpt>
      <trkpt lat="42.10843" lon="9.16189">
        <ele>1543.4</ele>
        <time>2015-06-23T07:02:56Z</time>
      </trkpt>
      <trkpt lat="42.10844" lon="9.1618">
        <ele>1542.6</ele>
        <time>2015-06-23T07:03:34Z</time>
      </trkpt>
      <trkpt lat="42.10846" lon="9.16155">
        <ele>1541.8</ele>
        <time>2015-06-23T07:04:07Z</time>
      </trkpt>
      <trkpt lat="42.10842" lon="9.16112">
        <ele>1540.4</ele>
        <time>2015-06-23T07:04:42Z</time>
      </trkpt>
      <trkpt lat="42.10841" lon="9.16111">
        <ele>1540.4</ele>
        <time>2015-06-23T07:04:44Z</time>
      </trkpt>
      <trkpt lat="42.10841" lon="9.16109">
        <ele>1540.4</ele>
        <time>2015-06-23T07:04:46Z</time>
      </trkpt>
      <trkpt lat="42.1084" lon="9.16107">
        <ele>1540.4</ele>
        <time>2015-06-23T07:04:48Z</time>
      </trkpt>
      <trkpt lat="42.1084" lon="9.16105">
        <ele>1540.2</ele>
        <time>2015-06-23T07:04:50Z</time>
      </trkpt>
      <trkpt lat="42.10838" lon="9.16101">
        <ele>1540.4</ele>
        <time>2015-06-23T07:04:53Z</time>
      </trkpt>
      <trkpt lat="42.10838" lon="9.16099">
        <ele>1540.4</ele>
        <time>2015-06-23T07:04:55Z</time>
      </trkpt>
      <trkpt lat="42.10837" lon="9.16091">
        <ele>1540.4</ele>
        <time>2015-06-23T07:05:01Z</time>
      </trkpt>
      <trkpt lat="42.10838" lon="9.16076">
        <ele>1541.2</ele>
        <time>2015-06-23T07:05:15Z</time>
      </trkpt>
      <trkpt lat="42.10839" lon="9.1607">
        <ele>1541.4</ele>
        <time>2015-06-23T07:05:20Z</time>
      </trkpt>
      <trkpt lat="42.1084" lon="9.16067">
        <ele>1541.4</ele>
        <time>2015-06-23T07:05:22Z</time>
      </trkpt>
      <trkpt lat="42.1084" lon="9.16064">
        <ele>1541.6</ele>
        <time>2015-06-23T07:05:25Z</time>
      </trkpt>
      <trkpt lat="42.10845" lon="9.16004">
        <ele>1540.8</ele>
        <time>2015-06-23T07:06:19Z</time>
      </trkpt>
      <trkpt lat="42.10845" lon="9.15994">
        <ele>1540.6</ele>
        <time>2015-06-23T07:06:28Z</time>
      </trkpt>
      <trkpt lat="42.10851" lon="9.15969">
        <ele>1539.4</ele>
        <time>2015-06-23T07:06:52Z</time>
      </trkpt>
      <trkpt lat="42.10855" lon="9.15949">
        <ele>1538.8</ele>
        <time>2015-06-23T07:07:09Z</time>
      </trkpt>
      <trkpt lat="42.10856" lon="9.15921">
        <ele>1539</ele>
        <time>2015-06-23T07:08:12Z</time>
      </trkpt>
      <trkpt lat="42.10855" lon="9.15891">
        <ele>1538.2</ele>
        <time>2015-06-23T07:08:37Z</time>
      </trkpt>
      <trkpt lat="42.10859" lon="9.15888">
        <ele>1538.4</ele>
        <time>2015-06-23T07:08:41Z</time>
      </trkpt>
      <trkpt lat="42.10875" lon="9.15856">
        <ele>1537.2</ele>
        <time>2015-06-23T07:09:13Z</time>
      </trkpt>
      <trkpt lat="42.10869" lon="9.15834">
        <ele>1536</ele>
        <time>2015-06-23T07:09:31Z</time>
      </trkpt>
      <trkpt lat="42.10869" lon="9.15827">
        <ele>1536</ele>
        <time>2015-06-23T07:09:36Z</time>
      </trkpt>
      <trkpt lat="42.10882" lon="9.15801">
        <ele>1536.2</ele>
        <time>2015-06-23T07:10:14Z</time>
      </trkpt>
      <trkpt lat="42.10892" lon="9.158">
        <ele>1537.6</ele>
        <time>2015-06-23T07:10:25Z</time>
      </trkpt>
      <trkpt lat="42.10899" lon="9.15797">
        <ele>1538.4</ele>
        <time>2015-06-23T07:10:36Z</time>
      </trkpt>
      <trkpt lat="42.10903" lon="9.15788">
        <ele>1539.4</ele>
        <time>2015-06-23T07:10:46Z</time>
      </trkpt>
      <trkpt lat="42.10905" lon="9.15778">
        <ele>1540.4</ele>
        <time>2015-06-23T07:10:55Z</time>
      </trkpt>
      <trkpt lat="42.10909" lon="9.15767">
        <ele>1541.8</ele>
        <time>2015-06-23T07:11:05Z</time>
      </trkpt>
      <trkpt lat="42.10914" lon="9.15756">
        <ele>1542.8</ele>
        <time>2015-06-23T07:11:17Z</time>
      </trkpt>
      <trkpt lat="42.10917" lon="9.15748">
        <ele>1543.6</ele>
        <time>2015-06-23T07:11:25Z</time>
      </trkpt>
      <trkpt lat="42.10919" lon="9.1574">
        <ele>1544.8</ele>
        <time>2015-06-23T07:11:33Z</time>
      </trkpt>
      <trkpt lat="42.10924" lon="9.15732">
        <ele>1546</ele>
        <time>2015-06-23T07:11:43Z</time>
      </trkpt>
      <trkpt lat="42.1093" lon="9.15722">
        <ele>1547</ele>
        <time>2015-06-23T07:11:53Z</time>
      </trkpt>
      <trkpt lat="42.10934" lon="9.15714">
        <ele>1548</ele>
        <time>2015-06-23T07:12:02Z</time>
      </trkpt>
      <trkpt lat="42.10955" lon="9.15701">
        <ele>1549.6</ele>
        <time>2015-06-23T07:13:23Z</time>
      </trkpt>
      <trkpt lat="42.10958" lon="9.15684">
        <ele>1550.8</ele>
        <time>2015-06-23T07:14:21Z</time>
      </trkpt>
      <trkpt lat="42.10964" lon="9.15677">
        <ele>1551.6</ele>
        <time>2015-06-23T07:14:33Z</time>
      </trkpt>
      <trkpt lat="42.10977" lon="9.15674">
        <ele>1552.8</ele>
        <time>2015-06-23T07:14:51Z</time>
      </trkpt>
      <trkpt lat="42.10981" lon="9.15675">
        <ele>1553.4</ele>
        <time>2015-06-23T07:14:57Z</time>
      </trkpt>
      <trkpt lat="42.10985" lon="9.15676">
        <ele>1553.8</ele>
        <time>2015-06-23T07:15:01Z</time>
      </trkpt>
      <trkpt lat="42.10987" lon="9.15677">
        <ele>1554</ele>
        <time>2015-06-23T07:15:03Z</time>
      </trkpt>
      <trkpt lat="42.10994" lon="9.15678">
        <ele>1555</ele>
        <time>2015-06-23T07:15:11Z</time>
      </trkpt>
      <trkpt lat="42.11" lon="9.1568">
        <ele>1555.6</ele>
        <time>2015-06-23T07:15:18Z</time>
      </trkpt>
      <trkpt lat="42.11022" lon="9.15692">
        <ele>1557.4</ele>
        <time>2015-06-23T07:15:55Z</time>
      </trkpt>
      <trkpt lat="42.11036" lon="9.15698">
        <ele>1558.6</ele>
        <time>2015-06-23T07:16:12Z</time>
      </trkpt>
      <trkpt lat="42.11036" lon="9.15699">
        <ele>1558.6</ele>
        <time>2015-06-23T07:16:13Z</time>
      </trkpt>
      <trkpt lat="42.11038" lon="9.15698">
        <ele>1558.6</ele>
        <time>2015-06-23T07:16:14Z</time>
      </trkpt>
      <trkpt lat="42.11044" lon="9.157">
        <ele>1558.8</ele>
        <time>2015-06-23T07:16:21Z</time>
      </trkpt>
      <trkpt lat="42.11049" lon="9.15702">
        <ele>1560</ele>
        <time>2015-06-23T07:16:30Z</time>
      </trkpt>
      <trkpt lat="42.11065" lon="9.15708">
        <ele>1561</ele>
        <time>2015-06-23T07:16:51Z</time>
      </trkpt>
      <trkpt lat="42.11089" lon="9.15732">
        <ele>1562</ele>
        <time>2015-06-23T07:17:25Z</time>
      </trkpt>
      <trkpt lat="42.11095" lon="9.15738">
        <ele>1563.2</ele>
        <time>2015-06-23T07:17:36Z</time>
      </trkpt>
      <trkpt lat="42.11099" lon="9.15743">
        <ele>1563.8</ele>
        <time>2015-06-23T07:17:43Z</time>
      </trkpt>
      <trkpt lat="42.11105" lon="9.1575">
        <ele>1565</ele>
        <time>2015-06-23T07:17:52Z</time>
      </trkpt>
      <trkpt lat="42.11111" lon="9.15752">
        <ele>1566</ele>
        <time>2015-06-23T07:18:01Z</time>
      </trkpt>
      <trkpt lat="42.11116" lon="9.15752">
        <ele>1567.2</ele>
        <time>2015-06-23T07:18:10Z</time>
      </trkpt>
      <trkpt lat="42.1112" lon="9.15755">
        <ele>1568.2</ele>
        <time>2015-06-23T07:18:20Z</time>
      </trkpt>
      <trkpt lat="42.11123" lon="9.15759">
        <ele>1569.4</ele>
        <time>2015-06-23T07:18:28Z</time>
      </trkpt>
      <trkpt lat="42.11126" lon="9.15762">
        <ele>1570.2</ele>
        <time>2015-06-23T07:18:35Z</time>
      </trkpt>
      <trkpt lat="42.11129" lon="9.15765">
        <ele>1571.2</ele>
        <time>2015-06-23T07:18:43Z</time>
      </trkpt>
      <trkpt lat="42.11136" lon="9.15772">
        <ele>1573</ele>
        <time>2015-06-23T07:19:00Z</time>
      </trkpt>
      <trkpt lat="42.11141" lon="9.15775">
        <ele>1573.6</ele>
        <time>2015-06-23T07:19:10Z</time>
      </trkpt>
      <trkpt lat="42.1115" lon="9.15784">
        <ele>1574.8</ele>
        <time>2015-06-23T07:19:25Z</time>
      </trkpt>
      <trkpt lat="42.11154" lon="9.15788">
        <ele>1575.4</ele>
        <time>2015-06-23T07:19:35Z</time>
      </trkpt>
      <trkpt lat="42.11157" lon="9.15792">
        <ele>1576.4</ele>
        <time>2015-06-23T07:19:43Z</time>
      </trkpt>
      <trkpt lat="42.1116" lon="9.15795">
        <ele>1577.2</ele>
        <time>2015-06-23T07:19:49Z</time>
      </trkpt>
      <trkpt lat="42.11164" lon="9.15799">
        <ele>1578.4</ele>
        <time>2015-06-23T07:19:56Z</time>
      </trkpt>
      <trkpt lat="42.1117" lon="9.15803">
        <ele>1580</ele>
        <time>2015-06-23T07:20:07Z</time>
      </trkpt>
      <trkpt lat="42.11177" lon="9.15804">
        <ele>1580.8</ele>
        <time>2015-06-23T07:20:19Z</time>
      </trkpt>
      <trkpt lat="42.11184" lon="9.15805">
        <ele>1581.6</ele>
        <time>2015-06-23T07:20:32Z</time>
      </trkpt>
      <trkpt lat="42.11186" lon="9.15805">
        <ele>1582</ele>
        <time>2015-06-23T07:20:37Z</time>
      </trkpt>
      <trkpt lat="42.11188" lon="9.15806">
        <ele>1583</ele>
        <time>2015-06-23T07:20:42Z</time>
      </trkpt>
      <trkpt lat="42.11189" lon="9.15805">
        <ele>1584.2</ele>
        <time>2015-06-23T07:20:47Z</time>
      </trkpt>
      <trkpt lat="42.11191" lon="9.15804">
        <ele>1585.4</ele>
        <time>2015-06-23T07:20:53Z</time>
      </trkpt>
      <trkpt lat="42.11193" lon="9.15806">
        <ele>1585.8</ele>
        <time>2015-06-23T07:20:58Z</time>
      </trkpt>
      <trkpt lat="42.11199" lon="9.15812">
        <ele>1588</ele>
        <time>2015-06-23T07:21:09Z</time>
      </trkpt>
      <trkpt lat="42.11201" lon="9.15812">
        <ele>1588.2</ele>
        <time>2015-06-23T07:21:12Z</time>
      </trkpt>
      <trkpt lat="42.11204" lon="9.15811">
        <ele>1588.4</ele>
        <time>2015-06-23T07:21:18Z</time>
      </trkpt>
      <trkpt lat="42.1121" lon="9.15813">
        <ele>1589.6</ele>
        <time>2015-06-23T07:21:25Z</time>
      </trkpt>
      <trkpt lat="42.11214" lon="9.15814">
        <ele>1590.6</ele>
        <time>2015-06-23T07:21:31Z</time>
      </trkpt>
      <trkpt lat="42.1122" lon="9.15813">
        <ele>1592</ele>
        <time>2015-06-23T07:21:40Z</time>
      </trkpt>
      <trkpt lat="42.1123" lon="9.15808">
        <ele>1593.4</ele>
        <time>2015-06-23T07:21:55Z</time>
      </trkpt>
      <trkpt lat="42.1124" lon="9.1581">
        <ele>1594.4</ele>
        <time>2015-06-23T07:22:08Z</time>
      </trkpt>
      <trkpt lat="42.11256" lon="9.15805">
        <ele>1595.6</ele>
        <time>2015-06-23T07:22:34Z</time>
      </trkpt>
      <trkpt lat="42.11259" lon="9.15804">
        <ele>1596.2</ele>
        <time>2015-06-23T07:22:39Z</time>
      </trkpt>
      <trkpt lat="42.11263" lon="9.15803">
        <ele>1597.6</ele>
        <time>2015-06-23T07:22:46Z</time>
      </trkpt>
      <trkpt lat="42.11275" lon="9.15798">
        <ele>1599.4</ele>
        <time>2015-06-23T07:23:05Z</time>
      </trkpt>
      <trkpt lat="42.11278" lon="9.15798">
        <ele>1599.6</ele>
        <time>2015-06-23T07:23:11Z</time>
      </trkpt>
      <trkpt lat="42.11288" lon="9.15793">
        <ele>1601</ele>
        <time>2015-06-23T07:23:29Z</time>
      </trkpt>
      <trkpt lat="42.11294" lon="9.15792">
        <ele>1602.2</ele>
        <time>2015-06-23T07:23:39Z</time>
      </trkpt>
      <trkpt lat="42.11306" lon="9.15792">
        <ele>1603</ele>
        <time>2015-06-23T07:23:58Z</time>
      </trkpt>
      <trkpt lat="42.11308" lon="9.15791">
        <ele>1604</ele>
        <time>2015-06-23T07:24:06Z</time>
      </trkpt>
      <trkpt lat="42.11312" lon="9.15788">
        <ele>1605</ele>
        <time>2015-06-23T07:24:13Z</time>
      </trkpt>
      <trkpt lat="42.11319" lon="9.15787">
        <ele>1606.4</ele>
        <time>2015-06-23T07:24:22Z</time>
      </trkpt>
      <trkpt lat="42.11334" lon="9.15782">
        <ele>1607.6</ele>
        <time>2015-06-23T07:24:49Z</time>
      </trkpt>
      <trkpt lat="42.11339" lon="9.15781">
        <ele>1608</ele>
        <time>2015-06-23T07:24:56Z</time>
      </trkpt>
      <trkpt lat="42.11356" lon="9.15777">
        <ele>1609.6</ele>
        <time>2015-06-23T07:25:28Z</time>
      </trkpt>
      <trkpt lat="42.1136" lon="9.15778">
        <ele>1610.2</ele>
        <time>2015-06-23T07:25:35Z</time>
      </trkpt>
      <trkpt lat="42.11364" lon="9.15777">
        <ele>1611</ele>
        <time>2015-06-23T07:25:40Z</time>
      </trkpt>
      <trkpt lat="42.11366" lon="9.15776">
        <ele>1611.8</ele>
        <time>2015-06-23T07:25:44Z</time>
      </trkpt>
      <trkpt lat="42.11374" lon="9.15774">
        <ele>1614</ele>
        <time>2015-06-23T07:26:01Z</time>
      </trkpt>
      <trkpt lat="42.11383" lon="9.15771">
        <ele>1614.8</ele>
        <time>2015-06-23T07:26:14Z</time>
      </trkpt>
      <trkpt lat="42.11395" lon="9.1577">
        <ele>1615.8</ele>
        <time>2015-06-23T07:26:32Z</time>
      </trkpt>
      <trkpt lat="42.11398" lon="9.15768">
        <ele>1616.4</ele>
        <time>2015-06-23T07:26:38Z</time>
      </trkpt>
      <trkpt lat="42.11399" lon="9.15767">
        <ele>1616.4</ele>
        <time>2015-06-23T07:26:40Z</time>
      </trkpt>
      <trkpt lat="42.11399" lon="9.15766">
        <ele>1616.6</ele>
        <time>2015-06-23T07:26:41Z</time>
      </trkpt>
      <trkpt lat="42.11401" lon="9.15765">
        <ele>1617.4</ele>
        <time>2015-06-23T07:26:44Z</time>
      </trkpt>
      <trkpt lat="42.11401" lon="9.15757">
        <ele>1620.4</ele>
        <time>2015-06-23T07:26:58Z</time>
      </trkpt>
      <trkpt lat="42.11402" lon="9.15756">
        <ele>1620.4</ele>
        <time>2015-06-23T07:27:00Z</time>
      </trkpt>
      <trkpt lat="42.11405" lon="9.15752">
        <ele>1621</ele>
        <time>2015-06-23T07:27:09Z</time>
      </trkpt>
      <trkpt lat="42.11405" lon="9.15745">
        <ele>1621</ele>
        <time>2015-06-23T07:27:25Z</time>
      </trkpt>
      <trkpt lat="42.11404" lon="9.15744">
        <ele>1622.2</ele>
        <time>2015-06-23T07:27:34Z</time>
      </trkpt>
      <trkpt lat="42.11407" lon="9.15743">
        <ele>1623.2</ele>
        <time>2015-06-23T07:28:38Z</time>
      </trkpt>
      <trkpt lat="42.11407" lon="9.15739">
        <ele>1622.6</ele>
        <time>2015-06-23T07:28:52Z</time>
      </trkpt>
      <trkpt lat="42.11407" lon="9.15734">
        <ele>1623</ele>
        <time>2015-06-23T07:28:56Z</time>
      </trkpt>
      <trkpt lat="42.1141" lon="9.15718">
        <ele>1623.8</ele>
        <time>2015-06-23T07:29:10Z</time>
      </trkpt>
      <trkpt lat="42.11415" lon="9.1571">
        <ele>1623</ele>
        <time>2015-06-23T07:29:19Z</time>
      </trkpt>
      <trkpt lat="42.11418" lon="9.15703">
        <ele>1622.4</ele>
        <time>2015-06-23T07:29:38Z</time>
      </trkpt>
      <trkpt lat="42.11424" lon="9.15698">
        <ele>1622.8</ele>
        <time>2015-06-23T07:29:48Z</time>
      </trkpt>
      <trkpt lat="42.11431" lon="9.15693">
        <ele>1622.4</ele>
        <time>2015-06-23T07:29:56Z</time>
      </trkpt>
      <trkpt lat="42.11436" lon="9.15689">
        <ele>1622.2</ele>
        <time>2015-06-23T07:30:01Z</time>
      </trkpt>
      <trkpt lat="42.11437" lon="9.15688">
        <ele>1621.8</ele>
        <time>2015-06-23T07:30:03Z</time>
      </trkpt>
      <trkpt lat="42.11439" lon="9.15687">
        <ele>1621.2</ele>
        <time>2015-06-23T07:30:05Z</time>
      </trkpt>
      <trkpt lat="42.1144" lon="9.15685">
        <ele>1620.4</ele>
        <time>2015-06-23T07:30:07Z</time>
      </trkpt>
      <trkpt lat="42.11442" lon="9.15681">
        <ele>1618.4</ele>
        <time>2015-06-23T07:30:11Z</time>
      </trkpt>
      <trkpt lat="42.11442" lon="9.15675">
        <ele>1617.8</ele>
        <time>2015-06-23T07:30:16Z</time>
      </trkpt>
      <trkpt lat="42.11444" lon="9.15673">
        <ele>1617.4</ele>
        <time>2015-06-23T07:30:18Z</time>
      </trkpt>
      <trkpt lat="42.11446" lon="9.15673">
        <ele>1617.4</ele>
        <time>2015-06-23T07:30:20Z</time>
      </trkpt>
      <trkpt lat="42.11446" lon="9.15673">
        <ele>1617</ele>
        <time>2015-06-23T07:30:21Z</time>
      </trkpt>
      <trkpt lat="42.11449" lon="9.15671">
        <ele>1616.8</ele>
        <time>2015-06-23T07:30:25Z</time>
      </trkpt>
      <trkpt lat="42.11452" lon="9.15664">
        <ele>1616.2</ele>
        <time>2015-06-23T07:30:35Z</time>
      </trkpt>
      <trkpt lat="42.11453" lon="9.15663">
        <ele>1616</ele>
        <time>2015-06-23T07:30:36Z</time>
      </trkpt>
      <trkpt lat="42.11454" lon="9.1566">
        <ele>1615.8</ele>
        <time>2015-06-23T07:30:39Z</time>
      </trkpt>
      <trkpt lat="42.11457" lon="9.15647">
        <ele>1612.2</ele>
        <time>2015-06-23T07:30:55Z</time>
      </trkpt>
      <trkpt lat="42.11458" lon="9.15644">
        <ele>1612</ele>
        <time>2015-06-23T07:30:59Z</time>
      </trkpt>
      <trkpt lat="42.1146" lon="9.15629">
        <ele>1609.6</ele>
        <time>2015-06-23T07:31:22Z</time>
      </trkpt>
      <trkpt lat="42.11459" lon="9.15625">
        <ele>1609.8</ele>
        <time>2015-06-23T07:31:25Z</time>
      </trkpt>
      <trkpt lat="42.11459" lon="9.15622">
        <ele>1609</ele>
        <time>2015-06-23T07:31:28Z</time>
      </trkpt>
      <trkpt lat="42.11459" lon="9.15618">
        <ele>1608.2</ele>
        <time>2015-06-23T07:31:31Z</time>
      </trkpt>
      <trkpt lat="42.11459" lon="9.15616">
        <ele>1607.8</ele>
        <time>2015-06-23T07:31:33Z</time>
      </trkpt>
      <trkpt lat="42.11461" lon="9.1561">
        <ele>1606.6</ele>
        <time>2015-06-23T07:31:38Z</time>
      </trkpt>
      <trkpt lat="42.11462" lon="9.15609">
        <ele>1605.8</ele>
        <time>2015-06-23T07:31:40Z</time>
      </trkpt>
      <trkpt lat="42.11463" lon="9.15606">
        <ele>1605</ele>
        <time>2015-06-23T07:31:43Z</time>
      </trkpt>
      <trkpt lat="42.11464" lon="9.15603">
        <ele>1603.6</ele>
        <time>2015-06-23T07:31:46Z</time>
      </trkpt>
      <trkpt lat="42.11465" lon="9.15599">
        <ele>1602.4</ele>
        <time>2015-06-23T07:31:50Z</time>
      </trkpt>
      <trkpt lat="42.11466" lon="9.15597">
        <ele>1602.2</ele>
        <time>2015-06-23T07:31:53Z</time>
      </trkpt>
      <trkpt lat="42.11467" lon="9.15592">
        <ele>1602</ele>
        <time>2015-06-23T07:31:57Z</time>
      </trkpt>
      <trkpt lat="42.11466" lon="9.1558">
        <ele>1602</ele>
        <time>2015-06-23T07:32:08Z</time>
      </trkpt>
      <trkpt lat="42.11466" lon="9.15571">
        <ele>1601.2</ele>
        <time>2015-06-23T07:32:19Z</time>
      </trkpt>
      <trkpt lat="42.11466" lon="9.15564">
        <ele>1601.4</ele>
        <time>2015-06-23T07:32:27Z</time>
      </trkpt>
      <trkpt lat="42.11465" lon="9.1556">
        <ele>1601.4</ele>
        <time>2015-06-23T07:32:31Z</time>
      </trkpt>
      <trkpt lat="42.11461" lon="9.1555">
        <ele>1599.6</ele>
        <time>2015-06-23T07:32:41Z</time>
      </trkpt>
      <trkpt lat="42.1146" lon="9.1554">
        <ele>1598.6</ele>
        <time>2015-06-23T07:32:52Z</time>
      </trkpt>
      <trkpt lat="42.11457" lon="9.15533">
        <ele>1597.6</ele>
        <time>2015-06-23T07:32:59Z</time>
      </trkpt>
      <trkpt lat="42.11456" lon="9.15531">
        <ele>1597.6</ele>
        <time>2015-06-23T07:33:01Z</time>
      </trkpt>
      <trkpt lat="42.11456" lon="9.15529">
        <ele>1597.2</ele>
        <time>2015-06-23T07:33:03Z</time>
      </trkpt>
      <trkpt lat="42.11453" lon="9.1552">
        <ele>1595.4</ele>
        <time>2015-06-23T07:33:13Z</time>
      </trkpt>
      <trkpt lat="42.11452" lon="9.15517">
        <ele>1595</ele>
        <time>2015-06-23T07:33:18Z</time>
      </trkpt>
      <trkpt lat="42.11453" lon="9.15514">
        <ele>1593.8</ele>
        <time>2015-06-23T07:33:23Z</time>
      </trkpt>
      <trkpt lat="42.11452" lon="9.15511">
        <ele>1592.2</ele>
        <time>2015-06-23T07:33:31Z</time>
      </trkpt>
      <trkpt lat="42.11445" lon="9.15486">
        <ele>1591</ele>
        <time>2015-06-23T07:34:07Z</time>
      </trkpt>
      <trkpt lat="42.11444" lon="9.15483">
        <ele>1590.4</ele>
        <time>2015-06-23T07:34:12Z</time>
      </trkpt>
      <trkpt lat="42.11443" lon="9.15479">
        <ele>1589.2</ele>
        <time>2015-06-23T07:34:18Z</time>
      </trkpt>
      <trkpt lat="42.11441" lon="9.15477">
        <ele>1588.4</ele>
        <time>2015-06-23T07:34:23Z</time>
      </trkpt>
      <trkpt lat="42.1144" lon="9.15472">
        <ele>1587.2</ele>
        <time>2015-06-23T07:34:30Z</time>
      </trkpt>
      <trkpt lat="42.11439" lon="9.1547">
        <ele>1586.8</ele>
        <time>2015-06-23T07:34:33Z</time>
      </trkpt>
      <trkpt lat="42.11437" lon="9.15467">
        <ele>1585.8</ele>
        <time>2015-06-23T07:34:37Z</time>
      </trkpt>
      <trkpt lat="42.11426" lon="9.1545">
        <ele>1584</ele>
        <time>2015-06-23T07:34:57Z</time>
      </trkpt>
      <trkpt lat="42.11423" lon="9.15446">
        <ele>1584.8</ele>
        <time>2015-06-23T07:35:03Z</time>
      </trkpt>
      <trkpt lat="42.11419" lon="9.15444">
        <ele>1586.2</ele>
        <time>2015-06-23T07:35:10Z</time>
      </trkpt>
      <trkpt lat="42.11415" lon="9.15442">
        <ele>1586.8</ele>
        <time>2015-06-23T07:35:16Z</time>
      </trkpt>
      <trkpt lat="42.11411" lon="9.15434">
        <ele>1587.4</ele>
        <time>2015-06-23T07:35:25Z</time>
      </trkpt>
      <trkpt lat="42.11408" lon="9.15431">
        <ele>1587.2</ele>
        <time>2015-06-23T07:35:30Z</time>
      </trkpt>
      <trkpt lat="42.11405" lon="9.15429">
        <ele>1586.6</ele>
        <time>2015-06-23T07:35:34Z</time>
      </trkpt>
      <trkpt lat="42.11402" lon="9.15426">
        <ele>1585.6</ele>
        <time>2015-06-23T07:35:38Z</time>
      </trkpt>
      <trkpt lat="42.11396" lon="9.15418">
        <ele>1584</ele>
        <time>2015-06-23T07:35:50Z</time>
      </trkpt>
      <trkpt lat="42.1139" lon="9.15409">
        <ele>1585.4</ele>
        <time>2015-06-23T07:36:01Z</time>
      </trkpt>
      <trkpt lat="42.11388" lon="9.15404">
        <ele>1583.8</ele>
        <time>2015-06-23T07:36:07Z</time>
      </trkpt>
      <trkpt lat="42.11385" lon="9.15401">
        <ele>1582.8</ele>
        <time>2015-06-23T07:36:12Z</time>
      </trkpt>
      <trkpt lat="42.11382" lon="9.15398">
        <ele>1581.8</ele>
        <time>2015-06-23T07:36:17Z</time>
      </trkpt>
      <trkpt lat="42.1137" lon="9.15383">
        <ele>1580</ele>
        <time>2015-06-23T07:36:39Z</time>
      </trkpt>
      <trkpt lat="42.11366" lon="9.15381">
        <ele>1579.6</ele>
        <time>2015-06-23T07:36:43Z</time>
      </trkpt>
      <trkpt lat="42.11365" lon="9.15378">
        <ele>1579.2</ele>
        <time>2015-06-23T07:36:46Z</time>
      </trkpt>
      <trkpt lat="42.11367" lon="9.15378">
        <ele>1578.4</ele>
        <time>2015-06-23T07:36:50Z</time>
      </trkpt>
      <trkpt lat="42.11388" lon="9.15381">
        <ele>1577.6</ele>
        <time>2015-06-23T07:37:22Z</time>
      </trkpt>
      <trkpt lat="42.1139" lon="9.15381">
        <ele>1577.4</ele>
        <time>2015-06-23T07:37:24Z</time>
      </trkpt>
      <trkpt lat="42.11393" lon="9.15385">
        <ele>1573.6</ele>
        <time>2015-06-23T07:37:35Z</time>
      </trkpt>
      <trkpt lat="42.11395" lon="9.15385">
        <ele>1573.2</ele>
        <time>2015-06-23T07:37:42Z</time>
      </trkpt>
      <trkpt lat="42.11403" lon="9.15388">
        <ele>1571.8</ele>
        <time>2015-06-23T07:37:53Z</time>
      </trkpt>
      <trkpt lat="42.11414" lon="9.15387">
        <ele>1570.8</ele>
        <time>2015-06-23T07:38:08Z</time>
      </trkpt>
      <trkpt lat="42.11421" lon="9.15388">
        <ele>1570</ele>
        <time>2015-06-23T07:38:16Z</time>
      </trkpt>
      <trkpt lat="42.11424" lon="9.15388">
        <ele>1569</ele>
        <time>2015-06-23T07:38:24Z</time>
      </trkpt>
      <trkpt lat="42.11427" lon="9.15389">
        <ele>1568.6</ele>
        <time>2015-06-23T07:38:28Z</time>
      </trkpt>
      <trkpt lat="42.11429" lon="9.15388">
        <ele>1566.8</ele>
        <time>2015-06-23T07:38:35Z</time>
      </trkpt>
      <trkpt lat="42.1143" lon="9.15382">
        <ele>1565.6</ele>
        <time>2015-06-23T07:38:42Z</time>
      </trkpt>
      <trkpt lat="42.11431" lon="9.1538">
        <ele>1565.2</ele>
        <time>2015-06-23T07:38:46Z</time>
      </trkpt>
      <trkpt lat="42.11434" lon="9.15379">
        <ele>1563.2</ele>
        <time>2015-06-23T07:38:57Z</time>
      </trkpt>
      <trkpt lat="42.11435" lon="9.15379">
        <ele>1563</ele>
        <time>2015-06-23T07:39:00Z</time>
      </trkpt>
      <trkpt lat="42.11436" lon="9.15378">
        <ele>1562.2</ele>
        <time>2015-06-23T07:39:03Z</time>
      </trkpt>
      <trkpt lat="42.1144" lon="9.15377">
        <ele>1559.6</ele>
        <time>2015-06-23T07:39:10Z</time>
      </trkpt>
      <trkpt lat="42.1144" lon="9.15375">
        <ele>1559.4</ele>
        <time>2015-06-23T07:39:13Z</time>
      </trkpt>
      <trkpt lat="42.1143" lon="9.15363">
        <ele>1557.8</ele>
        <time>2015-06-23T07:39:35Z</time>
      </trkpt>
      <trkpt lat="42.11417" lon="9.15344">
        <ele>1557.8</ele>
        <time>2015-06-23T07:40:00Z</time>
      </trkpt>
      <trkpt lat="42.11413" lon="9.15337">
        <ele>1557.2</ele>
        <time>2015-06-23T07:40:08Z</time>
      </trkpt>
      <trkpt lat="42.11412" lon="9.15325">
        <ele>1556</ele>
        <time>2015-06-23T07:40:35Z</time>
      </trkpt>
      <trkpt lat="42.11418" lon="9.15327">
        <ele>1555</ele>
        <time>2015-06-23T07:40:41Z</time>
      </trkpt>
      <trkpt lat="42.11424" lon="9.1533">
        <ele>1553.8</ele>
        <time>2015-06-23T07:40:48Z</time>
      </trkpt>
      <trkpt lat="42.11428" lon="9.15331">
        <ele>1553</ele>
        <time>2015-06-23T07:40:54Z</time>
      </trkpt>
      <trkpt lat="42.11437" lon="9.15334">
        <ele>1551.4</ele>
        <time>2015-06-23T07:41:10Z</time>
      </trkpt>
      <trkpt lat="42.11441" lon="9.15334">
        <ele>1550.4</ele>
        <time>2015-06-23T07:41:18Z</time>
      </trkpt>
      <trkpt lat="42.11443" lon="9.1533">
        <ele>1549.6</ele>
        <time>2015-06-23T07:41:26Z</time>
      </trkpt>
      <trkpt lat="42.11446" lon="9.15326">
        <ele>1548.8</ele>
        <time>2015-06-23T07:41:32Z</time>
      </trkpt>
      <trkpt lat="42.11446" lon="9.15324">
        <ele>1548.4</ele>
        <time>2015-06-23T07:41:35Z</time>
      </trkpt>
      <trkpt lat="42.11444" lon="9.15321">
        <ele>1547.2</ele>
        <time>2015-06-23T07:41:39Z</time>
      </trkpt>
      <trkpt lat="42.11449" lon="9.15318">
        <ele>1545.2</ele>
        <time>2015-06-23T07:41:46Z</time>
      </trkpt>
      <trkpt lat="42.11452" lon="9.15318">
        <ele>1544.6</ele>
        <time>2015-06-23T07:41:50Z</time>
      </trkpt>
      <trkpt lat="42.11457" lon="9.15309">
        <ele>1542.6</ele>
        <time>2015-06-23T07:42:05Z</time>
      </trkpt>
      <trkpt lat="42.11459" lon="9.15308">
        <ele>1542.6</ele>
        <time>2015-06-23T07:42:08Z</time>
      </trkpt>
      <trkpt lat="42.11462" lon="9.15308">
        <ele>1541.8</ele>
        <time>2015-06-23T07:42:12Z</time>
      </trkpt>
      <trkpt lat="42.11466" lon="9.15304">
        <ele>1539.8</ele>
        <time>2015-06-23T07:42:20Z</time>
      </trkpt>
      <trkpt lat="42.1147" lon="9.15303">
        <ele>1539.2</ele>
        <time>2015-06-23T07:42:24Z</time>
      </trkpt>
      <trkpt lat="42.11471" lon="9.15304">
        <ele>1538.8</ele>
        <time>2015-06-23T07:42:26Z</time>
      </trkpt>
      <trkpt lat="42.11473" lon="9.15304">
        <ele>1538.2</ele>
        <time>2015-06-23T07:42:29Z</time>
      </trkpt>
      <trkpt lat="42.11472" lon="9.15297">
        <ele>1534.8</ele>
        <time>2015-06-23T07:42:38Z</time>
      </trkpt>
      <trkpt lat="42.11469" lon="9.15291">
        <ele>1534</ele>
        <time>2015-06-23T07:42:44Z</time>
      </trkpt>
      <trkpt lat="42.11466" lon="9.15282">
        <ele>1532.4</ele>
        <time>2015-06-23T07:42:53Z</time>
      </trkpt>
      <trkpt lat="42.11458" lon="9.15259">
        <ele>1530.8</ele>
        <time>2015-06-23T07:43:21Z</time>
      </trkpt>
      <trkpt lat="42.11458" lon="9.15254">
        <ele>1530.4</ele>
        <time>2015-06-23T07:43:27Z</time>
      </trkpt>
      <trkpt lat="42.11459" lon="9.15251">
        <ele>1529.6</ele>
        <time>2015-06-23T07:43:32Z</time>
      </trkpt>
      <trkpt lat="42.11459" lon="9.15248">
        <ele>1529.2</ele>
        <time>2015-06-23T07:43:35Z</time>
      </trkpt>
      <trkpt lat="42.11461" lon="9.15243">
        <ele>1527.2</ele>
        <time>2015-06-23T07:43:41Z</time>
      </trkpt>
      <trkpt lat="42.11463" lon="9.15239">
        <ele>1526</ele>
        <time>2015-06-23T07:43:48Z</time>
      </trkpt>
      <trkpt lat="42.11465" lon="9.15236">
        <ele>1525.4</ele>
        <time>2015-06-23T07:43:51Z</time>
      </trkpt>
      <trkpt lat="42.11466" lon="9.15233">
        <ele>1525</ele>
        <time>2015-06-23T07:43:55Z</time>
      </trkpt>
      <trkpt lat="42.11474" lon="9.15206">
        <ele>1524</ele>
        <time>2015-06-23T07:44:24Z</time>
      </trkpt>
      <trkpt lat="42.11478" lon="9.15197">
        <ele>1522.6</ele>
        <time>2015-06-23T07:44:33Z</time>
      </trkpt>
      <trkpt lat="42.11481" lon="9.15188">
        <ele>1521.4</ele>
        <time>2015-06-23T07:44:44Z</time>
      </trkpt>
      <trkpt lat="42.11484" lon="9.15182">
        <ele>1521</ele>
        <time>2015-06-23T07:44:51Z</time>
      </trkpt>
      <trkpt lat="42.11485" lon="9.1518">
        <ele>1520.6</ele>
        <time>2015-06-23T07:44:54Z</time>
      </trkpt>
      <trkpt lat="42.11486" lon="9.15177">
        <ele>1520.4</ele>
        <time>2015-06-23T07:44:58Z</time>
      </trkpt>
      <trkpt lat="42.11488" lon="9.15172">
        <ele>1518.2</ele>
        <time>2015-06-23T07:45:08Z</time>
      </trkpt>
      <trkpt lat="42.11489" lon="9.15168">
        <ele>1517.8</ele>
        <time>2015-06-23T07:45:25Z</time>
      </trkpt>
      <trkpt lat="42.11494" lon="9.1516">
        <ele>1518.8</ele>
        <time>2015-06-23T07:45:37Z</time>
      </trkpt>
      <trkpt lat="42.11497" lon="9.15156">
        <ele>1518.2</ele>
        <time>2015-06-23T07:45:42Z</time>
      </trkpt>
      <trkpt lat="42.11501" lon="9.15152">
        <ele>1517</ele>
        <time>2015-06-23T07:45:49Z</time>
      </trkpt>
      <trkpt lat="42.11503" lon="9.15149">
        <ele>1516.4</ele>
        <time>2015-06-23T07:45:54Z</time>
      </trkpt>
      <trkpt lat="42.11509" lon="9.15144">
        <ele>1514.6</ele>
        <time>2015-06-23T07:46:03Z</time>
      </trkpt>
      <trkpt lat="42.11515" lon="9.15137">
        <ele>1513.6</ele>
        <time>2015-06-23T07:46:12Z</time>
      </trkpt>
      <trkpt lat="42.1152" lon="9.1513">
        <ele>1512.8</ele>
        <time>2015-06-23T07:46:21Z</time>
      </trkpt>
      <trkpt lat="42.11526" lon="9.1512">
        <ele>1511.6</ele>
        <time>2015-06-23T07:46:32Z</time>
      </trkpt>
      <trkpt lat="42.11528" lon="9.15115">
        <ele>1510.8</ele>
        <time>2015-06-23T07:46:40Z</time>
      </trkpt>
      <trkpt lat="42.11533" lon="9.15112">
        <ele>1510.2</ele>
        <time>2015-06-23T07:46:45Z</time>
      </trkpt>
      <trkpt lat="42.11537" lon="9.15108">
        <ele>1509.8</ele>
        <time>2015-06-23T07:46:51Z</time>
      </trkpt>
      <trkpt lat="42.11542" lon="9.15102">
        <ele>1508.8</ele>
        <time>2015-06-23T07:46:59Z</time>
      </trkpt>
      <trkpt lat="42.11549" lon="9.15087">
        <ele>1507.6</ele>
        <time>2015-06-23T07:47:19Z</time>
      </trkpt>
      <trkpt lat="42.11551" lon="9.15083">
        <ele>1506.6</ele>
        <time>2015-06-23T07:47:27Z</time>
      </trkpt>
      <trkpt lat="42.11557" lon="9.15073">
        <ele>1505.8</ele>
        <time>2015-06-23T07:47:40Z</time>
      </trkpt>
      <trkpt lat="42.11562" lon="9.15065">
        <ele>1504.8</ele>
        <time>2015-06-23T07:47:47Z</time>
      </trkpt>
      <trkpt lat="42.11566" lon="9.15061">
        <ele>1504</ele>
        <time>2015-06-23T07:47:53Z</time>
      </trkpt>
      <trkpt lat="42.11571" lon="9.15056">
        <ele>1502.8</ele>
        <time>2015-06-23T07:48:00Z</time>
      </trkpt>
      <trkpt lat="42.11575" lon="9.1505">
        <ele>1501.8</ele>
        <time>2015-06-23T07:48:08Z</time>
      </trkpt>
      <trkpt lat="42.11579" lon="9.15048">
        <ele>1501.2</ele>
        <time>2015-06-23T07:48:13Z</time>
      </trkpt>
      <trkpt lat="42.1158" lon="9.15047">
        <ele>1500.8</ele>
        <time>2015-06-23T07:48:15Z</time>
      </trkpt>
      <trkpt lat="42.11582" lon="9.15042">
        <ele>1499.6</ele>
        <time>2015-06-23T07:48:21Z</time>
      </trkpt>
      <trkpt lat="42.11588" lon="9.15034">
        <ele>1498</ele>
        <time>2015-06-23T07:48:36Z</time>
      </trkpt>
      <trkpt lat="42.1159" lon="9.15031">
        <ele>1497.6</ele>
        <time>2015-06-23T07:48:43Z</time>
      </trkpt>
      <trkpt lat="42.11593" lon="9.15029">
        <ele>1496.8</ele>
        <time>2015-06-23T07:48:48Z</time>
      </trkpt>
      <trkpt lat="42.11596" lon="9.15025">
        <ele>1495.4</ele>
        <time>2015-06-23T07:48:54Z</time>
      </trkpt>
      <trkpt lat="42.11601" lon="9.1502">
        <ele>1494</ele>
        <time>2015-06-23T07:49:01Z</time>
      </trkpt>
      <trkpt lat="42.11603" lon="9.15018">
        <ele>1493.8</ele>
        <time>2015-06-23T07:49:03Z</time>
      </trkpt>
      <trkpt lat="42.11606" lon="9.15015">
        <ele>1493</ele>
        <time>2015-06-23T07:49:08Z</time>
      </trkpt>
      <trkpt lat="42.11609" lon="9.15008">
        <ele>1491.8</ele>
        <time>2015-06-23T07:49:16Z</time>
      </trkpt>
      <trkpt lat="42.11613" lon="9.15006">
        <ele>1491.6</ele>
        <time>2015-06-23T07:49:19Z</time>
      </trkpt>
      <trkpt lat="42.11623" lon="9.14994">
        <ele>1491.4</ele>
        <time>2015-06-23T07:49:30Z</time>
      </trkpt>
      <trkpt lat="42.11625" lon="9.1499">
        <ele>1491.2</ele>
        <time>2015-06-23T07:49:34Z</time>
      </trkpt>
      <trkpt lat="42.11627" lon="9.14988">
        <ele>1490.8</ele>
        <time>2015-06-23T07:49:37Z</time>
      </trkpt>
      <trkpt lat="42.11628" lon="9.14987">
        <ele>1490.6</ele>
        <time>2015-06-23T07:49:38Z</time>
      </trkpt>
      <trkpt lat="42.11629" lon="9.14985">
        <ele>1490.4</ele>
        <time>2015-06-23T07:49:40Z</time>
      </trkpt>
      <trkpt lat="42.11632" lon="9.14984">
        <ele>1490</ele>
        <time>2015-06-23T07:49:42Z</time>
      </trkpt>
      <trkpt lat="42.11639" lon="9.14978">
        <ele>1489.2</ele>
        <time>2015-06-23T07:49:49Z</time>
      </trkpt>
      <trkpt lat="42.11643" lon="9.14967">
        <ele>1488.6</ele>
        <time>2015-06-23T07:49:58Z</time>
      </trkpt>
      <trkpt lat="42.11644" lon="9.14962">
        <ele>1488</ele>
        <time>2015-06-23T07:50:04Z</time>
      </trkpt>
      <trkpt lat="42.11648" lon="9.14958">
        <ele>1487.2</ele>
        <time>2015-06-23T07:50:08Z</time>
      </trkpt>
      <trkpt lat="42.11652" lon="9.14954">
        <ele>1486.4</ele>
        <time>2015-06-23T07:50:13Z</time>
      </trkpt>
      <trkpt lat="42.11659" lon="9.1495">
        <ele>1485.6</ele>
        <time>2015-06-23T07:50:19Z</time>
      </trkpt>
      <trkpt lat="42.11663" lon="9.14945">
        <ele>1484.6</ele>
        <time>2015-06-23T07:50:26Z</time>
      </trkpt>
      <trkpt lat="42.11666" lon="9.1494">
        <ele>1483.2</ele>
        <time>2015-06-23T07:50:33Z</time>
      </trkpt>
      <trkpt lat="42.11667" lon="9.14934">
        <ele>1482.2</ele>
        <time>2015-06-23T07:50:40Z</time>
      </trkpt>
      <trkpt lat="42.1167" lon="9.14928">
        <ele>1480.8</ele>
        <time>2015-06-23T07:50:47Z</time>
      </trkpt>
      <trkpt lat="42.11673" lon="9.14926">
        <ele>1480.4</ele>
        <time>2015-06-23T07:50:50Z</time>
      </trkpt>
      <trkpt lat="42.11677" lon="9.1492">
        <ele>1480.2</ele>
        <time>2015-06-23T07:50:56Z</time>
      </trkpt>
      <trkpt lat="42.11679" lon="9.1492">
        <ele>1480</ele>
        <time>2015-06-23T07:50:57Z</time>
      </trkpt>
      <trkpt lat="42.11681" lon="9.14917">
        <ele>1479.6</ele>
        <time>2015-06-23T07:51:00Z</time>
      </trkpt>
      <trkpt lat="42.11686" lon="9.14914">
        <ele>1479</ele>
        <time>2015-06-23T07:51:04Z</time>
      </trkpt>
      <trkpt lat="42.11688" lon="9.14912">
        <ele>1478.6</ele>
        <time>2015-06-23T07:51:07Z</time>
      </trkpt>
      <trkpt lat="42.11693" lon="9.14903">
        <ele>1477.8</ele>
        <time>2015-06-23T07:51:15Z</time>
      </trkpt>
      <trkpt lat="42.11693" lon="9.14903">
        <ele>1477.8</ele>
        <time>2015-06-23T07:51:16Z</time>
      </trkpt>
      <trkpt lat="42.11697" lon="9.14894">
        <ele>1476.8</ele>
        <time>2015-06-23T07:51:25Z</time>
      </trkpt>
      <trkpt lat="42.117" lon="9.14888">
        <ele>1476</ele>
        <time>2015-06-23T07:51:31Z</time>
      </trkpt>
      <trkpt lat="42.11704" lon="9.14881">
        <ele>1475.2</ele>
        <time>2015-06-23T07:51:37Z</time>
      </trkpt>
      <trkpt lat="42.11712" lon="9.14867">
        <ele>1473.2</ele>
        <time>2015-06-23T07:51:55Z</time>
      </trkpt>
      <trkpt lat="42.11714" lon="9.1486">
        <ele>1473.4</ele>
        <time>2015-06-23T07:52:55Z</time>
      </trkpt>
      <trkpt lat="42.11716" lon="9.14862">
        <ele>1473</ele>
        <time>2015-06-23T07:54:19Z</time>
      </trkpt>
      <trkpt lat="42.11726" lon="9.14841">
        <ele>1471.8</ele>
        <time>2015-06-23T07:54:40Z</time>
      </trkpt>
      <trkpt lat="42.11734" lon="9.14825">
        <ele>1471.6</ele>
        <time>2015-06-23T07:54:54Z</time>
      </trkpt>
      <trkpt lat="42.11737" lon="9.14817">
        <ele>1470.6</ele>
        <time>2015-06-23T07:55:01Z</time>
      </trkpt>
      <trkpt lat="42.11739" lon="9.14814">
        <ele>1470</ele>
        <time>2015-06-23T07:55:05Z</time>
      </trkpt>
      <trkpt lat="42.11744" lon="9.148">
        <ele>1468.4</ele>
        <time>2015-06-23T07:55:16Z</time>
      </trkpt>
      <trkpt lat="42.11747" lon="9.1479">
        <ele>1467.6</ele>
        <time>2015-06-23T07:55:24Z</time>
      </trkpt>
      <trkpt lat="42.11749" lon="9.14784">
        <ele>1466.8</ele>
        <time>2015-06-23T07:55:30Z</time>
      </trkpt>
      <trkpt lat="42.11751" lon="9.14775">
        <ele>1465.4</ele>
        <time>2015-06-23T07:55:37Z</time>
      </trkpt>
      <trkpt lat="42.11753" lon="9.14767">
        <ele>1464.8</ele>
        <time>2015-06-23T07:55:43Z</time>
      </trkpt>
      <trkpt lat="42.11754" lon="9.14761">
        <ele>1463.8</ele>
        <time>2015-06-23T07:55:48Z</time>
      </trkpt>
      <trkpt lat="42.11754" lon="9.1476">
        <ele>1464</ele>
        <time>2015-06-23T07:55:49Z</time>
      </trkpt>
      <trkpt lat="42.1175" lon="9.1474">
        <ele>1462.4</ele>
        <time>2015-06-23T07:56:05Z</time>
      </trkpt>
      <trkpt lat="42.11749" lon="9.14734">
        <ele>1462</ele>
        <time>2015-06-23T07:56:10Z</time>
      </trkpt>
      <trkpt lat="42.11748" lon="9.14732">
        <ele>1461.4</ele>
        <time>2015-06-23T07:56:33Z</time>
      </trkpt>
      <trkpt lat="42.1175" lon="9.14736">
        <ele>1461.2</ele>
        <time>2015-06-23T07:56:42Z</time>
      </trkpt>
      <trkpt lat="42.11741" lon="9.14723">
        <ele>1461</ele>
        <time>2015-06-23T07:57:12Z</time>
      </trkpt>
      <trkpt lat="42.11739" lon="9.14719">
        <ele>1460.8</ele>
        <time>2015-06-23T07:57:17Z</time>
      </trkpt>
      <trkpt lat="42.11737" lon="9.14718">
        <ele>1460.4</ele>
        <time>2015-06-23T07:57:21Z</time>
      </trkpt>
      <trkpt lat="42.11734" lon="9.14714">
        <ele>1459.8</ele>
        <time>2015-06-23T07:57:26Z</time>
      </trkpt>
      <trkpt lat="42.11728" lon="9.1471">
        <ele>1457.6</ele>
        <time>2015-06-23T07:57:47Z</time>
      </trkpt>
      <trkpt lat="42.11728" lon="9.14711">
        <ele>1457</ele>
        <time>2015-06-23T07:58:01Z</time>
      </trkpt>
      <trkpt lat="42.1173" lon="9.14711">
        <ele>1457</ele>
        <time>2015-06-23T07:58:22Z</time>
      </trkpt>
      <trkpt lat="42.11729" lon="9.14712">
        <ele>1457.4</ele>
        <time>2015-06-23T07:58:26Z</time>
      </trkpt>
      <trkpt lat="42.11728" lon="9.14711">
        <ele>1458</ele>
        <time>2015-06-23T07:58:35Z</time>
      </trkpt>
      <trkpt lat="42.11726" lon="9.14704">
        <ele>1457</ele>
        <time>2015-06-23T07:59:10Z</time>
      </trkpt>
      <trkpt lat="42.11726" lon="9.14697">
        <ele>1456.6</ele>
        <time>2015-06-23T07:59:17Z</time>
      </trkpt>
      <trkpt lat="42.11724" lon="9.14689">
        <ele>1455.2</ele>
        <time>2015-06-23T07:59:25Z</time>
      </trkpt>
      <trkpt lat="42.11724" lon="9.14688">
        <ele>1455</ele>
        <time>2015-06-23T07:59:26Z</time>
      </trkpt>
      <trkpt lat="42.11721" lon="9.14683">
        <ele>1454.6</ele>
        <time>2015-06-23T07:59:30Z</time>
      </trkpt>
      <trkpt lat="42.11718" lon="9.14678">
        <ele>1454.2</ele>
        <time>2015-06-23T07:59:35Z</time>
      </trkpt>
      <trkpt lat="42.11717" lon="9.14673">
        <ele>1454.2</ele>
        <time>2015-06-23T07:59:38Z</time>
      </trkpt>
      <trkpt lat="42.1171" lon="9.14646">
        <ele>1452.8</ele>
        <time>2015-06-23T07:59:59Z</time>
      </trkpt>
      <trkpt lat="42.11709" lon="9.14645">
        <ele>1452.8</ele>
        <time>2015-06-23T08:00:00Z</time>
      </trkpt>
      <trkpt lat="42.11706" lon="9.14641">
        <ele>1452.6</ele>
        <time>2015-06-23T08:00:05Z</time>
      </trkpt>
      <trkpt lat="42.11706" lon="9.1464">
        <ele>1452.6</ele>
        <time>2015-06-23T08:00:06Z</time>
      </trkpt>
      <trkpt lat="42.11703" lon="9.14638">
        <ele>1451.4</ele>
        <time>2015-06-23T08:00:10Z</time>
      </trkpt>
      <trkpt lat="42.11702" lon="9.14637">
        <ele>1451.4</ele>
        <time>2015-06-23T08:00:11Z</time>
      </trkpt>
      <trkpt lat="42.11694" lon="9.14627">
        <ele>1449.8</ele>
        <time>2015-06-23T08:00:19Z</time>
      </trkpt>
      <trkpt lat="42.11687" lon="9.14608">
        <ele>1448.6</ele>
        <time>2015-06-23T08:00:33Z</time>
      </trkpt>
      <trkpt lat="42.11683" lon="9.14599">
        <ele>1448</ele>
        <time>2015-06-23T08:00:39Z</time>
      </trkpt>
      <trkpt lat="42.1168" lon="9.14588">
        <ele>1446.6</ele>
        <time>2015-06-23T08:00:50Z</time>
      </trkpt>
      <trkpt lat="42.11679" lon="9.1458">
        <ele>1446</ele>
        <time>2015-06-23T08:00:56Z</time>
      </trkpt>
      <trkpt lat="42.11677" lon="9.14574">
        <ele>1444.8</ele>
        <time>2015-06-23T08:01:02Z</time>
      </trkpt>
      <trkpt lat="42.11677" lon="9.14568">
        <ele>1444</ele>
        <time>2015-06-23T08:01:07Z</time>
      </trkpt>
      <trkpt lat="42.11677" lon="9.14566">
        <ele>1443.8</ele>
        <time>2015-06-23T08:01:08Z</time>
      </trkpt>
      <trkpt lat="42.11677" lon="9.14563">
        <ele>1443.4</ele>
        <time>2015-06-23T08:01:10Z</time>
      </trkpt>
      <trkpt lat="42.11677" lon="9.14561">
        <ele>1443</ele>
        <time>2015-06-23T08:01:12Z</time>
      </trkpt>
      <trkpt lat="42.11678" lon="9.14559">
        <ele>1442.8</ele>
        <time>2015-06-23T08:01:13Z</time>
      </trkpt>
      <trkpt lat="42.11677" lon="9.14552">
        <ele>1441.8</ele>
        <time>2015-06-23T08:01:18Z</time>
      </trkpt>
      <trkpt lat="42.11676" lon="9.14544">
        <ele>1440.2</ele>
        <time>2015-06-23T08:01:24Z</time>
      </trkpt>
      <trkpt lat="42.11676" lon="9.14537">
        <ele>1439</ele>
        <time>2015-06-23T08:01:31Z</time>
      </trkpt>
      <trkpt lat="42.11676" lon="9.14534">
        <ele>1438.6</ele>
        <time>2015-06-23T08:01:35Z</time>
      </trkpt>
      <trkpt lat="42.11676" lon="9.14527">
        <ele>1437</ele>
        <time>2015-06-23T08:01:41Z</time>
      </trkpt>
      <trkpt lat="42.11675" lon="9.14522">
        <ele>1436.6</ele>
        <time>2015-06-23T08:01:45Z</time>
      </trkpt>
      <trkpt lat="42.11675" lon="9.1452">
        <ele>1435.8</ele>
        <time>2015-06-23T08:01:47Z</time>
      </trkpt>
      <trkpt lat="42.11675" lon="9.14517">
        <ele>1435.2</ele>
        <time>2015-06-23T08:01:50Z</time>
      </trkpt>
      <trkpt lat="42.11677" lon="9.14514">
        <ele>1434.6</ele>
        <time>2015-06-23T08:01:54Z</time>
      </trkpt>
      <trkpt lat="42.11679" lon="9.14506">
        <ele>1432.4</ele>
        <time>2015-06-23T08:02:02Z</time>
      </trkpt>
      <trkpt lat="42.11678" lon="9.14503">
        <ele>1432.2</ele>
        <time>2015-06-23T08:02:04Z</time>
      </trkpt>
      <trkpt lat="42.11676" lon="9.14499">
        <ele>1432</ele>
        <time>2015-06-23T08:02:07Z</time>
      </trkpt>
      <trkpt lat="42.11676" lon="9.14497">
        <ele>1432</ele>
        <time>2015-06-23T08:02:08Z</time>
      </trkpt>
      <trkpt lat="42.11675" lon="9.14495">
        <ele>1431</ele>
        <time>2015-06-23T08:02:11Z</time>
      </trkpt>
      <trkpt lat="42.11674" lon="9.14493">
        <ele>1430.4</ele>
        <time>2015-06-23T08:02:13Z</time>
      </trkpt>
      <trkpt lat="42.11671" lon="9.14489">
        <ele>1428.6</ele>
        <time>2015-06-23T08:02:21Z</time>
      </trkpt>
      <trkpt lat="42.11668" lon="9.14487">
        <ele>1428.4</ele>
        <time>2015-06-23T08:02:24Z</time>
      </trkpt>
      <trkpt lat="42.11666" lon="9.14488">
        <ele>1428</ele>
        <time>2015-06-23T08:02:27Z</time>
      </trkpt>
      <trkpt lat="42.11662" lon="9.14486">
        <ele>1427.2</ele>
        <time>2015-06-23T08:02:31Z</time>
      </trkpt>
      <trkpt lat="42.11659" lon="9.14485">
        <ele>1427</ele>
        <time>2015-06-23T08:02:34Z</time>
      </trkpt>
      <trkpt lat="42.11658" lon="9.14486">
        <ele>1425.8</ele>
        <time>2015-06-23T08:02:37Z</time>
      </trkpt>
      <trkpt lat="42.11656" lon="9.14486">
        <ele>1424.8</ele>
        <time>2015-06-23T08:02:44Z</time>
      </trkpt>
      <trkpt lat="42.11653" lon="9.14489">
        <ele>1424</ele>
        <time>2015-06-23T08:02:49Z</time>
      </trkpt>
      <trkpt lat="42.11646" lon="9.14492">
        <ele>1422.4</ele>
        <time>2015-06-23T08:02:58Z</time>
      </trkpt>
      <trkpt lat="42.11644" lon="9.14492">
        <ele>1422.4</ele>
        <time>2015-06-23T08:02:59Z</time>
      </trkpt>
      <trkpt lat="42.11643" lon="9.14492">
        <ele>1422.2</ele>
        <time>2015-06-23T08:03:00Z</time>
      </trkpt>
      <trkpt lat="42.11634" lon="9.1449">
        <ele>1421.2</ele>
        <time>2015-06-23T08:03:07Z</time>
      </trkpt>
      <trkpt lat="42.11626" lon="9.14486">
        <ele>1420.2</ele>
        <time>2015-06-23T08:03:17Z</time>
      </trkpt>
      <trkpt lat="42.11619" lon="9.14483">
        <ele>1419</ele>
        <time>2015-06-23T08:03:25Z</time>
      </trkpt>
      <trkpt lat="42.11609" lon="9.1448">
        <ele>1417.8</ele>
        <time>2015-06-23T08:03:35Z</time>
      </trkpt>
      <trkpt lat="42.11606" lon="9.14477">
        <ele>1417.4</ele>
        <time>2015-06-23T08:03:39Z</time>
      </trkpt>
      <trkpt lat="42.11604" lon="9.14476">
        <ele>1417</ele>
        <time>2015-06-23T08:03:41Z</time>
      </trkpt>
      <trkpt lat="42.11603" lon="9.14476">
        <ele>1416.6</ele>
        <time>2015-06-23T08:03:43Z</time>
      </trkpt>
      <trkpt lat="42.11597" lon="9.14478">
        <ele>1414.6</ele>
        <time>2015-06-23T08:03:51Z</time>
      </trkpt>
      <trkpt lat="42.11591" lon="9.1448">
        <ele>1413.4</ele>
        <time>2015-06-23T08:04:00Z</time>
      </trkpt>
      <trkpt lat="42.11589" lon="9.14478">
        <ele>1412.8</ele>
        <time>2015-06-23T08:04:05Z</time>
      </trkpt>
      <trkpt lat="42.11585" lon="9.14477">
        <ele>1412.6</ele>
        <time>2015-06-23T08:04:07Z</time>
      </trkpt>
      <trkpt lat="42.11584" lon="9.14477">
        <ele>1411.8</ele>
        <time>2015-06-23T08:04:09Z</time>
      </trkpt>
      <trkpt lat="42.1158" lon="9.14476">
        <ele>1411.6</ele>
        <time>2015-06-23T08:04:11Z</time>
      </trkpt>
      <trkpt lat="42.11577" lon="9.14474">
        <ele>1411.2</ele>
        <time>2015-06-23T08:04:15Z</time>
      </trkpt>
      <trkpt lat="42.11573" lon="9.14473">
        <ele>1410.8</ele>
        <time>2015-06-23T08:04:18Z</time>
      </trkpt>
      <trkpt lat="42.11571" lon="9.14471">
        <ele>1410.6</ele>
        <time>2015-06-23T08:04:20Z</time>
      </trkpt>
      <trkpt lat="42.11571" lon="9.1447">
        <ele>1410.6</ele>
        <time>2015-06-23T08:04:21Z</time>
      </trkpt>
      <trkpt lat="42.1157" lon="9.14468">
        <ele>1410.6</ele>
        <time>2015-06-23T08:04:22Z</time>
      </trkpt>
      <trkpt lat="42.11571" lon="9.14467">
        <ele>1410.4</ele>
        <time>2015-06-23T08:04:24Z</time>
      </trkpt>
      <trkpt lat="42.11576" lon="9.14463">
        <ele>1409.8</ele>
        <time>2015-06-23T08:04:32Z</time>
      </trkpt>
      <trkpt lat="42.11579" lon="9.1446">
        <ele>1409.2</ele>
        <time>2015-06-23T08:04:37Z</time>
      </trkpt>
      <trkpt lat="42.11581" lon="9.14457">
        <ele>1408.2</ele>
        <time>2015-06-23T08:04:42Z</time>
      </trkpt>
      <trkpt lat="42.11585" lon="9.14454">
        <ele>1406.8</ele>
        <time>2015-06-23T08:04:48Z</time>
      </trkpt>
      <trkpt lat="42.11588" lon="9.14451">
        <ele>1405.6</ele>
        <time>2015-06-23T08:04:54Z</time>
      </trkpt>
      <trkpt lat="42.11593" lon="9.14447">
        <ele>1403.8</ele>
        <time>2015-06-23T08:05:03Z</time>
      </trkpt>
      <trkpt lat="42.11595" lon="9.14441">
        <ele>1403</ele>
        <time>2015-06-23T08:05:11Z</time>
      </trkpt>
      <trkpt lat="42.11596" lon="9.14439">
        <ele>1402.6</ele>
        <time>2015-06-23T08:05:15Z</time>
      </trkpt>
      <trkpt lat="42.116" lon="9.14438">
        <ele>1400.6</ele>
        <time>2015-06-23T08:05:25Z</time>
      </trkpt>
      <trkpt lat="42.11603" lon="9.14436">
        <ele>1400</ele>
        <time>2015-06-23T08:05:30Z</time>
      </trkpt>
      <trkpt lat="42.11607" lon="9.14434">
        <ele>1398.4</ele>
        <time>2015-06-23T08:05:37Z</time>
      </trkpt>
      <trkpt lat="42.11606" lon="9.14429">
        <ele>1397.4</ele>
        <time>2015-06-23T08:05:43Z</time>
      </trkpt>
      <trkpt lat="42.11605" lon="9.14426">
        <ele>1397.2</ele>
        <time>2015-06-23T08:05:45Z</time>
      </trkpt>
      <trkpt lat="42.11606" lon="9.14425">
        <ele>1396.6</ele>
        <time>2015-06-23T08:05:48Z</time>
      </trkpt>
      <trkpt lat="42.11608" lon="9.14425">
        <ele>1394.8</ele>
        <time>2015-06-23T08:05:56Z</time>
      </trkpt>
      <trkpt lat="42.11609" lon="9.14419">
        <ele>1394</ele>
        <time>2015-06-23T08:06:02Z</time>
      </trkpt>
      <trkpt lat="42.11609" lon="9.14418">
        <ele>1393.2</ele>
        <time>2015-06-23T08:06:07Z</time>
      </trkpt>
      <trkpt lat="42.11609" lon="9.14415">
        <ele>1392</ele>
        <time>2015-06-23T08:06:12Z</time>
      </trkpt>
      <trkpt lat="42.11608" lon="9.14415">
        <ele>1390.8</ele>
        <time>2015-06-23T08:06:18Z</time>
      </trkpt>
      <trkpt lat="42.11605" lon="9.14414">
        <ele>1389.4</ele>
        <time>2015-06-23T08:06:26Z</time>
      </trkpt>
      <trkpt lat="42.11599" lon="9.14414">
        <ele>1388</ele>
        <time>2015-06-23T08:06:35Z</time>
      </trkpt>
      <trkpt lat="42.1159" lon="9.14413">
        <ele>1386.6</ele>
        <time>2015-06-23T08:06:48Z</time>
      </trkpt>
      <trkpt lat="42.11585" lon="9.14411">
        <ele>1385.8</ele>
        <time>2015-06-23T08:06:57Z</time>
      </trkpt>
      <trkpt lat="42.11581" lon="9.14411">
        <ele>1384.6</ele>
        <time>2015-06-23T08:07:04Z</time>
      </trkpt>
      <trkpt lat="42.11579" lon="9.1441">
        <ele>1384</ele>
        <time>2015-06-23T08:07:09Z</time>
      </trkpt>
      <trkpt lat="42.11578" lon="9.14406">
        <ele>1382.8</ele>
        <time>2015-06-23T08:07:14Z</time>
      </trkpt>
      <trkpt lat="42.1158" lon="9.14397">
        <ele>1381.2</ele>
        <time>2015-06-23T08:07:22Z</time>
      </trkpt>
      <trkpt lat="42.11586" lon="9.14392">
        <ele>1379.8</ele>
        <time>2015-06-23T08:07:32Z</time>
      </trkpt>
      <trkpt lat="42.11587" lon="9.14389">
        <ele>1379.4</ele>
        <time>2015-06-23T08:07:36Z</time>
      </trkpt>
      <trkpt lat="42.11584" lon="9.14389">
        <ele>1377.6</ele>
        <time>2015-06-23T08:07:43Z</time>
      </trkpt>
      <trkpt lat="42.11581" lon="9.14388">
        <ele>1376.8</ele>
        <time>2015-06-23T08:07:49Z</time>
      </trkpt>
      <trkpt lat="42.11575" lon="9.14389">
        <ele>1375.6</ele>
        <time>2015-06-23T08:07:55Z</time>
      </trkpt>
      <trkpt lat="42.11571" lon="9.14389">
        <ele>1374.8</ele>
        <time>2015-06-23T08:07:59Z</time>
      </trkpt>
      <trkpt lat="42.11568" lon="9.14388">
        <ele>1374</ele>
        <time>2015-06-23T08:08:05Z</time>
      </trkpt>
      <trkpt lat="42.11565" lon="9.14389">
        <ele>1373.4</ele>
        <time>2015-06-23T08:08:11Z</time>
      </trkpt>
      <trkpt lat="42.11561" lon="9.14391">
        <ele>1372.2</ele>
        <time>2015-06-23T08:08:17Z</time>
      </trkpt>
      <trkpt lat="42.11555" lon="9.14392">
        <ele>1371.2</ele>
        <time>2015-06-23T08:08:24Z</time>
      </trkpt>
      <trkpt lat="42.11553" lon="9.1439">
        <ele>1370</ele>
        <time>2015-06-23T08:08:30Z</time>
      </trkpt>
      <trkpt lat="42.11553" lon="9.14387">
        <ele>1369.4</ele>
        <time>2015-06-23T08:08:34Z</time>
      </trkpt>
      <trkpt lat="42.11555" lon="9.14383">
        <ele>1367.8</ele>
        <time>2015-06-23T08:08:40Z</time>
      </trkpt>
      <trkpt lat="42.11557" lon="9.14378">
        <ele>1366.6</ele>
        <time>2015-06-23T08:08:46Z</time>
      </trkpt>
      <trkpt lat="42.11559" lon="9.14373">
        <ele>1365.6</ele>
        <time>2015-06-23T08:08:52Z</time>
      </trkpt>
      <trkpt lat="42.1156" lon="9.14369">
        <ele>1364.6</ele>
        <time>2015-06-23T08:08:58Z</time>
      </trkpt>
      <trkpt lat="42.11562" lon="9.14363">
        <ele>1363</ele>
        <time>2015-06-23T08:09:06Z</time>
      </trkpt>
      <trkpt lat="42.11565" lon="9.14361">
        <ele>1362.4</ele>
        <time>2015-06-23T08:09:11Z</time>
      </trkpt>
      <trkpt lat="42.11567" lon="9.14359">
        <ele>1361.2</ele>
        <time>2015-06-23T08:09:16Z</time>
      </trkpt>
      <trkpt lat="42.11571" lon="9.14355">
        <ele>1359.6</ele>
        <time>2015-06-23T08:09:23Z</time>
      </trkpt>
      <trkpt lat="42.11574" lon="9.14352">
        <ele>1358.8</ele>
        <time>2015-06-23T08:09:29Z</time>
      </trkpt>
      <trkpt lat="42.11577" lon="9.14348">
        <ele>1357.8</ele>
        <time>2015-06-23T08:09:35Z</time>
      </trkpt>
      <trkpt lat="42.11579" lon="9.14344">
        <ele>1356.8</ele>
        <time>2015-06-23T08:09:40Z</time>
      </trkpt>
      <trkpt lat="42.11583" lon="9.1434">
        <ele>1355.4</ele>
        <time>2015-06-23T08:09:46Z</time>
      </trkpt>
      <trkpt lat="42.11587" lon="9.14338">
        <ele>1354.4</ele>
        <time>2015-06-23T08:09:52Z</time>
      </trkpt>
      <trkpt lat="42.11588" lon="9.14333">
        <ele>1352.6</ele>
        <time>2015-06-23T08:10:02Z</time>
      </trkpt>
      <trkpt lat="42.11585" lon="9.14333">
        <ele>1352.4</ele>
        <time>2015-06-23T08:10:07Z</time>
      </trkpt>
      <trkpt lat="42.11582" lon="9.14332">
        <ele>1351.4</ele>
        <time>2015-06-23T08:10:12Z</time>
      </trkpt>
      <trkpt lat="42.11579" lon="9.14329">
        <ele>1349.8</ele>
        <time>2015-06-23T08:10:17Z</time>
      </trkpt>
      <trkpt lat="42.11575" lon="9.14327">
        <ele>1349</ele>
        <time>2015-06-23T08:10:22Z</time>
      </trkpt>
      <trkpt lat="42.1157" lon="9.14326">
        <ele>1347.6</ele>
        <time>2015-06-23T08:10:28Z</time>
      </trkpt>
      <trkpt lat="42.11569" lon="9.14325">
        <ele>1347.2</ele>
        <time>2015-06-23T08:10:30Z</time>
      </trkpt>
      <trkpt lat="42.11566" lon="9.14323">
        <ele>1346.2</ele>
        <time>2015-06-23T08:10:35Z</time>
      </trkpt>
      <trkpt lat="42.11561" lon="9.14321">
        <ele>1345</ele>
        <time>2015-06-23T08:10:42Z</time>
      </trkpt>
      <trkpt lat="42.11558" lon="9.14319">
        <ele>1344.6</ele>
        <time>2015-06-23T08:10:46Z</time>
      </trkpt>
      <trkpt lat="42.11558" lon="9.14319">
        <ele>1344.2</ele>
        <time>2015-06-23T08:10:47Z</time>
      </trkpt>
      <trkpt lat="42.11557" lon="9.14319">
        <ele>1344</ele>
        <time>2015-06-23T08:10:48Z</time>
      </trkpt>
      <trkpt lat="42.11554" lon="9.14319">
        <ele>1343</ele>
        <time>2015-06-23T08:10:52Z</time>
      </trkpt>
      <trkpt lat="42.1155" lon="9.1432">
        <ele>1341.2</ele>
        <time>2015-06-23T08:11:00Z</time>
      </trkpt>
      <trkpt lat="42.11547" lon="9.1432">
        <ele>1340.4</ele>
        <time>2015-06-23T08:11:07Z</time>
      </trkpt>
      <trkpt lat="42.11545" lon="9.14319">
        <ele>1339.6</ele>
        <time>2015-06-23T08:11:12Z</time>
      </trkpt>
      <trkpt lat="42.11543" lon="9.1432">
        <ele>1338.4</ele>
        <time>2015-06-23T08:11:18Z</time>
      </trkpt>
      <trkpt lat="42.11539" lon="9.14321">
        <ele>1337.2</ele>
        <time>2015-06-23T08:11:23Z</time>
      </trkpt>
      <trkpt lat="42.11538" lon="9.14319">
        <ele>1337</ele>
        <time>2015-06-23T08:11:26Z</time>
      </trkpt>
      <trkpt lat="42.11541" lon="9.14313">
        <ele>1336.2</ele>
        <time>2015-06-23T08:11:31Z</time>
      </trkpt>
      <trkpt lat="42.11541" lon="9.14305">
        <ele>1335.4</ele>
        <time>2015-06-23T08:11:37Z</time>
      </trkpt>
      <trkpt lat="42.11542" lon="9.14294">
        <ele>1334.6</ele>
        <time>2015-06-23T08:11:46Z</time>
      </trkpt>
      <trkpt lat="42.11542" lon="9.14293">
        <ele>1334.4</ele>
        <time>2015-06-23T08:11:47Z</time>
      </trkpt>
      <trkpt lat="42.11544" lon="9.14288">
        <ele>1333.8</ele>
        <time>2015-06-23T08:11:51Z</time>
      </trkpt>
      <trkpt lat="42.11546" lon="9.14283">
        <ele>1333</ele>
        <time>2015-06-23T08:11:56Z</time>
      </trkpt>
      <trkpt lat="42.11548" lon="9.1428">
        <ele>1331.4</ele>
        <time>2015-06-23T08:12:03Z</time>
      </trkpt>
      <trkpt lat="42.1155" lon="9.14279">
        <ele>1330.2</ele>
        <time>2015-06-23T08:12:10Z</time>
      </trkpt>
      <trkpt lat="42.11553" lon="9.14278">
        <ele>1329</ele>
        <time>2015-06-23T08:12:17Z</time>
      </trkpt>
      <trkpt lat="42.11558" lon="9.14274">
        <ele>1328.2</ele>
        <time>2015-06-23T08:12:22Z</time>
      </trkpt>
      <trkpt lat="42.11564" lon="9.14267">
        <ele>1326.2</ele>
        <time>2015-06-23T08:12:33Z</time>
      </trkpt>
      <trkpt lat="42.1156" lon="9.14265">
        <ele>1325.4</ele>
        <time>2015-06-23T08:12:42Z</time>
      </trkpt>
      <trkpt lat="42.11557" lon="9.14264">
        <ele>1324.8</ele>
        <time>2015-06-23T08:12:47Z</time>
      </trkpt>
      <trkpt lat="42.11554" lon="9.14264">
        <ele>1323.4</ele>
        <time>2015-06-23T08:12:53Z</time>
      </trkpt>
      <trkpt lat="42.11552" lon="9.14264">
        <ele>1323.2</ele>
        <time>2015-06-23T08:12:55Z</time>
      </trkpt>
      <trkpt lat="42.11547" lon="9.14264">
        <ele>1322.4</ele>
        <time>2015-06-23T08:12:59Z</time>
      </trkpt>
      <trkpt lat="42.11542" lon="9.14263">
        <ele>1320.6</ele>
        <time>2015-06-23T08:13:10Z</time>
      </trkpt>
      <trkpt lat="42.11537" lon="9.14261">
        <ele>1320.2</ele>
        <time>2015-06-23T08:13:16Z</time>
      </trkpt>
      <trkpt lat="42.11533" lon="9.14263">
        <ele>1319</ele>
        <time>2015-06-23T08:13:22Z</time>
      </trkpt>
      <trkpt lat="42.1153" lon="9.14263">
        <ele>1317.6</ele>
        <time>2015-06-23T08:13:28Z</time>
      </trkpt>
      <trkpt lat="42.11526" lon="9.14263">
        <ele>1316.4</ele>
        <time>2015-06-23T08:13:37Z</time>
      </trkpt>
      <trkpt lat="42.11521" lon="9.14268">
        <ele>1315</ele>
        <time>2015-06-23T08:13:45Z</time>
      </trkpt>
      <trkpt lat="42.11518" lon="9.14273">
        <ele>1313.8</ele>
        <time>2015-06-23T08:13:54Z</time>
      </trkpt>
      <trkpt lat="42.11515" lon="9.14278">
        <ele>1312.6</ele>
        <time>2015-06-23T08:14:02Z</time>
      </trkpt>
      <trkpt lat="42.11506" lon="9.14283">
        <ele>1311.4</ele>
        <time>2015-06-23T08:14:11Z</time>
      </trkpt>
      <trkpt lat="42.11504" lon="9.14284">
        <ele>1311.2</ele>
        <time>2015-06-23T08:14:13Z</time>
      </trkpt>
      <trkpt lat="42.11492" lon="9.14291">
        <ele>1310.4</ele>
        <time>2015-06-23T08:14:21Z</time>
      </trkpt>
      <trkpt lat="42.11486" lon="9.14295">
        <ele>1309.4</ele>
        <time>2015-06-23T08:14:28Z</time>
      </trkpt>
      <trkpt lat="42.11484" lon="9.14297">
        <ele>1308.2</ele>
        <time>2015-06-23T08:14:36Z</time>
      </trkpt>
      <trkpt lat="42.11481" lon="9.14293">
        <ele>1307.4</ele>
        <time>2015-06-23T08:14:41Z</time>
      </trkpt>
      <trkpt lat="42.11479" lon="9.14286">
        <ele>1305.8</ele>
        <time>2015-06-23T08:14:50Z</time>
      </trkpt>
      <trkpt lat="42.11478" lon="9.1428">
        <ele>1305</ele>
        <time>2015-06-23T08:14:55Z</time>
      </trkpt>
      <trkpt lat="42.11476" lon="9.1427">
        <ele>1303.4</ele>
        <time>2015-06-23T08:15:04Z</time>
      </trkpt>
      <trkpt lat="42.11476" lon="9.14263">
        <ele>1302.4</ele>
        <time>2015-06-23T08:15:11Z</time>
      </trkpt>
      <trkpt lat="42.11474" lon="9.14258">
        <ele>1301.4</ele>
        <time>2015-06-23T08:15:17Z</time>
      </trkpt>
      <trkpt lat="42.11475" lon="9.14252">
        <ele>1300</ele>
        <time>2015-06-23T08:15:23Z</time>
      </trkpt>
      <trkpt lat="42.11477" lon="9.14248">
        <ele>1299.4</ele>
        <time>2015-06-23T08:15:28Z</time>
      </trkpt>
      <trkpt lat="42.11479" lon="9.14246">
        <ele>1298.8</ele>
        <time>2015-06-23T08:15:29Z</time>
      </trkpt>
      <trkpt lat="42.11484" lon="9.14234">
        <ele>1296.8</ele>
        <time>2015-06-23T08:15:43Z</time>
      </trkpt>
      <trkpt lat="42.11488" lon="9.14228">
        <ele>1296.4</ele>
        <time>2015-06-23T08:15:50Z</time>
      </trkpt>
      <trkpt lat="42.11488" lon="9.14224">
        <ele>1295.6</ele>
        <time>2015-06-23T08:15:55Z</time>
      </trkpt>
      <trkpt lat="42.11491" lon="9.14222">
        <ele>1294.2</ele>
        <time>2015-06-23T08:16:00Z</time>
      </trkpt>
      <trkpt lat="42.11493" lon="9.14218">
        <ele>1293.6</ele>
        <time>2015-06-23T08:16:04Z</time>
      </trkpt>
      <trkpt lat="42.11493" lon="9.14215">
        <ele>1292.8</ele>
        <time>2015-06-23T08:16:06Z</time>
      </trkpt>
      <trkpt lat="42.11493" lon="9.14212">
        <ele>1291.8</ele>
        <time>2015-06-23T08:16:09Z</time>
      </trkpt>
      <trkpt lat="42.11493" lon="9.14211">
        <ele>1291.4</ele>
        <time>2015-06-23T08:16:10Z</time>
      </trkpt>
      <trkpt lat="42.11492" lon="9.14205">
        <ele>1290.4</ele>
        <time>2015-06-23T08:16:15Z</time>
      </trkpt>
      <trkpt lat="42.11493" lon="9.14203">
        <ele>1290.2</ele>
        <time>2015-06-23T08:16:17Z</time>
      </trkpt>
      <trkpt lat="42.11493" lon="9.142">
        <ele>1289.4</ele>
        <time>2015-06-23T08:16:20Z</time>
      </trkpt>
      <trkpt lat="42.11494" lon="9.14197">
        <ele>1289.2</ele>
        <time>2015-06-23T08:16:22Z</time>
      </trkpt>
      <trkpt lat="42.11497" lon="9.14192">
        <ele>1288.8</ele>
        <time>2015-06-23T08:16:28Z</time>
      </trkpt>
      <trkpt lat="42.115" lon="9.14188">
        <ele>1288.2</ele>
        <time>2015-06-23T08:16:33Z</time>
      </trkpt>
      <trkpt lat="42.11502" lon="9.14187">
        <ele>1287.8</ele>
        <time>2015-06-23T08:16:35Z</time>
      </trkpt>
      <trkpt lat="42.11509" lon="9.14179">
        <ele>1286.6</ele>
        <time>2015-06-23T08:16:44Z</time>
      </trkpt>
      <trkpt lat="42.1151" lon="9.14178">
        <ele>1286.6</ele>
        <time>2015-06-23T08:16:45Z</time>
      </trkpt>
      <trkpt lat="42.11516" lon="9.14173">
        <ele>1285.4</ele>
        <time>2015-06-23T08:16:54Z</time>
      </trkpt>
      <trkpt lat="42.11522" lon="9.14169">
        <ele>1284.4</ele>
        <time>2015-06-23T08:17:00Z</time>
      </trkpt>
      <trkpt lat="42.11532" lon="9.14166">
        <ele>1282.8</ele>
        <time>2015-06-23T08:17:12Z</time>
      </trkpt>
      <trkpt lat="42.11535" lon="9.14166">
        <ele>1282.8</ele>
        <time>2015-06-23T08:17:15Z</time>
      </trkpt>
      <trkpt lat="42.11536" lon="9.14166">
        <ele>1282.4</ele>
        <time>2015-06-23T08:17:17Z</time>
      </trkpt>
      <trkpt lat="42.11539" lon="9.14166">
        <ele>1282</ele>
        <time>2015-06-23T08:17:21Z</time>
      </trkpt>
      <trkpt lat="42.11544" lon="9.14166">
        <ele>1281</ele>
        <time>2015-06-23T08:17:28Z</time>
      </trkpt>
      <trkpt lat="42.11548" lon="9.14164">
        <ele>1280.2</ele>
        <time>2015-06-23T08:17:33Z</time>
      </trkpt>
      <trkpt lat="42.11549" lon="9.14165">
        <ele>1280</ele>
        <time>2015-06-23T08:17:34Z</time>
      </trkpt>
      <trkpt lat="42.11552" lon="9.14163">
        <ele>1279</ele>
        <time>2015-06-23T08:17:40Z</time>
      </trkpt>
      <trkpt lat="42.11554" lon="9.14156">
        <ele>1277.2</ele>
        <time>2015-06-23T08:17:51Z</time>
      </trkpt>
      <trkpt lat="42.11554" lon="9.14171">
        <ele>1275.8</ele>
        <time>2015-06-23T08:18:40Z</time>
      </trkpt>
      <trkpt lat="42.11559" lon="9.14165">
        <ele>1276</ele>
        <time>2015-06-23T08:19:41Z</time>
      </trkpt>
      <trkpt lat="42.11554" lon="9.14172">
        <ele>1276</ele>
        <time>2015-06-23T08:20:34Z</time>
      </trkpt>
      <trkpt lat="42.11546" lon="9.1416">
        <ele>1276.4</ele>
        <time>2015-06-23T08:22:03Z</time>
      </trkpt>
      <trkpt lat="42.11544" lon="9.14157">
        <ele>1276.2</ele>
        <time>2015-06-23T08:22:07Z</time>
      </trkpt>
      <trkpt lat="42.11541" lon="9.14155">
        <ele>1274.8</ele>
        <time>2015-06-23T08:22:13Z</time>
      </trkpt>
      <trkpt lat="42.11538" lon="9.1415">
        <ele>1274.2</ele>
        <time>2015-06-23T08:22:21Z</time>
      </trkpt>
      <trkpt lat="42.11533" lon="9.14148">
        <ele>1273.2</ele>
        <time>2015-06-23T08:22:31Z</time>
      </trkpt>
      <trkpt lat="42.11526" lon="9.14146">
        <ele>1272</ele>
        <time>2015-06-23T08:22:44Z</time>
      </trkpt>
      <trkpt lat="42.11521" lon="9.14145">
        <ele>1271.2</ele>
        <time>2015-06-23T08:22:50Z</time>
      </trkpt>
      <trkpt lat="42.1152" lon="9.14145">
        <ele>1271</ele>
        <time>2015-06-23T08:22:51Z</time>
      </trkpt>
      <trkpt lat="42.11514" lon="9.14144">
        <ele>1270.4</ele>
        <time>2015-06-23T08:22:57Z</time>
      </trkpt>
      <trkpt lat="42.11512" lon="9.14144">
        <ele>1267.6</ele>
        <time>2015-06-23T08:23:01Z</time>
      </trkpt>
      <trkpt lat="42.1151" lon="9.14144">
        <ele>1267.2</ele>
        <time>2015-06-23T08:23:05Z</time>
      </trkpt>
      <trkpt lat="42.11506" lon="9.14141">
        <ele>1265.8</ele>
        <time>2015-06-23T08:23:18Z</time>
      </trkpt>
      <trkpt lat="42.11501" lon="9.14145">
        <ele>1265.6</ele>
        <time>2015-06-23T08:23:26Z</time>
      </trkpt>
      <trkpt lat="42.115" lon="9.14145">
        <ele>1265.6</ele>
        <time>2015-06-23T08:23:27Z</time>
      </trkpt>
      <trkpt lat="42.11499" lon="9.14145">
        <ele>1265.2</ele>
        <time>2015-06-23T08:23:29Z</time>
      </trkpt>
      <trkpt lat="42.11499" lon="9.14144">
        <ele>1265</ele>
        <time>2015-06-23T08:23:31Z</time>
      </trkpt>
      <trkpt lat="42.115" lon="9.14142">
        <ele>1263.6</ele>
        <time>2015-06-23T08:23:38Z</time>
      </trkpt>
      <trkpt lat="42.11503" lon="9.14133">
        <ele>1262.2</ele>
        <time>2015-06-23T08:23:46Z</time>
      </trkpt>
      <trkpt lat="42.11506" lon="9.14125">
        <ele>1261</ele>
        <time>2015-06-23T08:23:55Z</time>
      </trkpt>
      <trkpt lat="42.11508" lon="9.14118">
        <ele>1260.6</ele>
        <time>2015-06-23T08:24:00Z</time>
      </trkpt>
      <trkpt lat="42.11511" lon="9.14113">
        <ele>1259.4</ele>
        <time>2015-06-23T08:24:06Z</time>
      </trkpt>
      <trkpt lat="42.11513" lon="9.14108">
        <ele>1258.2</ele>
        <time>2015-06-23T08:24:13Z</time>
      </trkpt>
      <trkpt lat="42.11517" lon="9.14104">
        <ele>1256.8</ele>
        <time>2015-06-23T08:24:21Z</time>
      </trkpt>
      <trkpt lat="42.11511" lon="9.14102">
        <ele>1255.4</ele>
        <time>2015-06-23T08:24:35Z</time>
      </trkpt>
      <trkpt lat="42.11504" lon="9.14108">
        <ele>1254.6</ele>
        <time>2015-06-23T08:24:44Z</time>
      </trkpt>
      <trkpt lat="42.11504" lon="9.14109">
        <ele>1254.6</ele>
        <time>2015-06-23T08:24:45Z</time>
      </trkpt>
      <trkpt lat="42.11501" lon="9.14113">
        <ele>1254</ele>
        <time>2015-06-23T08:24:50Z</time>
      </trkpt>
      <trkpt lat="42.115" lon="9.14115">
        <ele>1253.6</ele>
        <time>2015-06-23T08:24:52Z</time>
      </trkpt>
      <trkpt lat="42.11498" lon="9.14117">
        <ele>1253.2</ele>
        <time>2015-06-23T08:24:55Z</time>
      </trkpt>
      <trkpt lat="42.11496" lon="9.14121">
        <ele>1252.6</ele>
        <time>2015-06-23T08:25:00Z</time>
      </trkpt>
      <trkpt lat="42.11494" lon="9.14122">
        <ele>1252.4</ele>
        <time>2015-06-23T08:25:02Z</time>
      </trkpt>
      <trkpt lat="42.11493" lon="9.14123">
        <ele>1252</ele>
        <time>2015-06-23T08:25:04Z</time>
      </trkpt>
      <trkpt lat="42.11489" lon="9.14123">
        <ele>1251.6</ele>
        <time>2015-06-23T08:25:08Z</time>
      </trkpt>
      <trkpt lat="42.1149" lon="9.14122">
        <ele>1251.4</ele>
        <time>2015-06-23T08:25:10Z</time>
      </trkpt>
      <trkpt lat="42.11488" lon="9.14112">
        <ele>1250.4</ele>
        <time>2015-06-23T08:25:18Z</time>
      </trkpt>
      <trkpt lat="42.11487" lon="9.14109">
        <ele>1249.8</ele>
        <time>2015-06-23T08:25:21Z</time>
      </trkpt>
      <trkpt lat="42.11488" lon="9.14106">
        <ele>1249.6</ele>
        <time>2015-06-23T08:25:24Z</time>
      </trkpt>
      <trkpt lat="42.11488" lon="9.14098">
        <ele>1248.6</ele>
        <time>2015-06-23T08:25:30Z</time>
      </trkpt>
      <trkpt lat="42.1149" lon="9.14092">
        <ele>1247.2</ele>
        <time>2015-06-23T08:25:36Z</time>
      </trkpt>
      <trkpt lat="42.11489" lon="9.14085">
        <ele>1246</ele>
        <time>2015-06-23T08:25:43Z</time>
      </trkpt>
      <trkpt lat="42.11489" lon="9.1408">
        <ele>1245</ele>
        <time>2015-06-23T08:25:49Z</time>
      </trkpt>
      <trkpt lat="42.1149" lon="9.14077">
        <ele>1244</ele>
        <time>2015-06-23T08:25:55Z</time>
      </trkpt>
      <trkpt lat="42.11489" lon="9.14073">
        <ele>1242.6</ele>
        <time>2015-06-23T08:26:01Z</time>
      </trkpt>
      <trkpt lat="42.11488" lon="9.14075">
        <ele>1241.6</ele>
        <time>2015-06-23T08:26:08Z</time>
      </trkpt>
      <trkpt lat="42.11483" lon="9.14078">
        <ele>1240.6</ele>
        <time>2015-06-23T08:26:16Z</time>
      </trkpt>
      <trkpt lat="42.1147" lon="9.1409">
        <ele>1239</ele>
        <time>2015-06-23T08:26:37Z</time>
      </trkpt>
      <trkpt lat="42.11464" lon="9.14096">
        <ele>1238</ele>
        <time>2015-06-23T08:26:48Z</time>
      </trkpt>
      <trkpt lat="42.11463" lon="9.14096">
        <ele>1238</ele>
        <time>2015-06-23T08:26:49Z</time>
      </trkpt>
      <trkpt lat="42.11461" lon="9.14089">
        <ele>1237.2</ele>
        <time>2015-06-23T08:26:58Z</time>
      </trkpt>
      <trkpt lat="42.11461" lon="9.14085">
        <ele>1236.2</ele>
        <time>2015-06-23T08:27:05Z</time>
      </trkpt>
      <trkpt lat="42.11459" lon="9.14084">
        <ele>1234.8</ele>
        <time>2015-06-23T08:27:12Z</time>
      </trkpt>
      <trkpt lat="42.11458" lon="9.14076">
        <ele>1233.4</ele>
        <time>2015-06-23T08:27:48Z</time>
      </trkpt>
      <trkpt lat="42.11459" lon="9.14071">
        <ele>1232.8</ele>
        <time>2015-06-23T08:27:53Z</time>
      </trkpt>
      <trkpt lat="42.11461" lon="9.14066">
        <ele>1231.6</ele>
        <time>2015-06-23T08:27:59Z</time>
      </trkpt>
      <trkpt lat="42.11462" lon="9.14063">
        <ele>1230.2</ele>
        <time>2015-06-23T08:28:08Z</time>
      </trkpt>
      <trkpt lat="42.11464" lon="9.14054">
        <ele>1228.6</ele>
        <time>2015-06-23T08:28:30Z</time>
      </trkpt>
      <trkpt lat="42.11471" lon="9.14037">
        <ele>1228.2</ele>
        <time>2015-06-23T08:28:48Z</time>
      </trkpt>
      <trkpt lat="42.11472" lon="9.14027">
        <ele>1226.8</ele>
        <time>2015-06-23T08:28:56Z</time>
      </trkpt>
      <trkpt lat="42.11475" lon="9.1402">
        <ele>1225.8</ele>
        <time>2015-06-23T08:29:07Z</time>
      </trkpt>
      <trkpt lat="42.11479" lon="9.14014">
        <ele>1224.6</ele>
        <time>2015-06-23T08:29:16Z</time>
      </trkpt>
      <trkpt lat="42.11477" lon="9.14004">
        <ele>1223.2</ele>
        <time>2015-06-23T08:30:02Z</time>
      </trkpt>
      <trkpt lat="42.11485" lon="9.13995">
        <ele>1222.2</ele>
        <time>2015-06-23T08:30:15Z</time>
      </trkpt>
      <trkpt lat="42.11486" lon="9.1399">
        <ele>1221.6</ele>
        <time>2015-06-23T08:30:21Z</time>
      </trkpt>
      <trkpt lat="42.11489" lon="9.13986">
        <ele>1220.4</ele>
        <time>2015-06-23T08:30:27Z</time>
      </trkpt>
      <trkpt lat="42.11492" lon="9.1398">
        <ele>1219.4</ele>
        <time>2015-06-23T08:30:33Z</time>
      </trkpt>
      <trkpt lat="42.11496" lon="9.13977">
        <ele>1218</ele>
        <time>2015-06-23T08:30:39Z</time>
      </trkpt>
      <trkpt lat="42.11499" lon="9.13971">
        <ele>1217</ele>
        <time>2015-06-23T08:30:45Z</time>
      </trkpt>
      <trkpt lat="42.11502" lon="9.13967">
        <ele>1216.2</ele>
        <time>2015-06-23T08:30:49Z</time>
      </trkpt>
      <trkpt lat="42.11508" lon="9.13961">
        <ele>1214.4</ele>
        <time>2015-06-23T08:30:56Z</time>
      </trkpt>
      <trkpt lat="42.11511" lon="9.13955">
        <ele>1213.6</ele>
        <time>2015-06-23T08:31:02Z</time>
      </trkpt>
      <trkpt lat="42.11517" lon="9.13953">
        <ele>1212.2</ele>
        <time>2015-06-23T08:31:09Z</time>
      </trkpt>
      <trkpt lat="42.11526" lon="9.13951">
        <ele>1210.6</ele>
        <time>2015-06-23T08:31:21Z</time>
      </trkpt>
      <trkpt lat="42.11534" lon="9.13949">
        <ele>1209.8</ele>
        <time>2015-06-23T08:31:30Z</time>
      </trkpt>
      <trkpt lat="42.11542" lon="9.13952">
        <ele>1208.6</ele>
        <time>2015-06-23T08:31:38Z</time>
      </trkpt>
      <trkpt lat="42.11551" lon="9.13955">
        <ele>1207.6</ele>
        <time>2015-06-23T08:31:47Z</time>
      </trkpt>
      <trkpt lat="42.11555" lon="9.13958">
        <ele>1206.8</ele>
        <time>2015-06-23T08:31:52Z</time>
      </trkpt>
      <trkpt lat="42.11556" lon="9.13958">
        <ele>1206.6</ele>
        <time>2015-06-23T08:31:54Z</time>
      </trkpt>
      <trkpt lat="42.1156" lon="9.13955">
        <ele>1205.6</ele>
        <time>2015-06-23T08:32:12Z</time>
      </trkpt>
      <trkpt lat="42.11559" lon="9.13952">
        <ele>1205</ele>
        <time>2015-06-23T08:32:17Z</time>
      </trkpt>
      <trkpt lat="42.11553" lon="9.13948">
        <ele>1202.6</ele>
        <time>2015-06-23T08:32:38Z</time>
      </trkpt>
      <trkpt lat="42.1152" lon="9.13935">
        <ele>1201.8</ele>
        <time>2015-06-23T08:33:16Z</time>
      </trkpt>
      <trkpt lat="42.11502" lon="9.13945">
        <ele>1201.6</ele>
        <time>2015-06-23T08:33:38Z</time>
      </trkpt>
      <trkpt lat="42.11498" lon="9.13946">
        <ele>1202</ele>
        <time>2015-06-23T08:33:40Z</time>
      </trkpt>
      <trkpt lat="42.1149" lon="9.13949">
        <ele>1203.4</ele>
        <time>2015-06-23T08:33:49Z</time>
      </trkpt>
      <trkpt lat="42.11487" lon="9.13953">
        <ele>1203.4</ele>
        <time>2015-06-23T08:33:54Z</time>
      </trkpt>
      <trkpt lat="42.11478" lon="9.13956">
        <ele>1203.4</ele>
        <time>2015-06-23T08:34:01Z</time>
      </trkpt>
      <trkpt lat="42.11457" lon="9.13965">
        <ele>1203.2</ele>
        <time>2015-06-23T08:34:20Z</time>
      </trkpt>
      <trkpt lat="42.11418" lon="9.13961">
        <ele>1203</ele>
        <time>2015-06-23T08:34:58Z</time>
      </trkpt>
      <trkpt lat="42.1141" lon="9.13965">
        <ele>1202.6</ele>
        <time>2015-06-23T08:35:09Z</time>
      </trkpt>
      <trkpt lat="42.11404" lon="9.13967">
        <ele>1202.4</ele>
        <time>2015-06-23T08:35:13Z</time>
      </trkpt>
      <trkpt lat="42.114" lon="9.13969">
        <ele>1202.2</ele>
        <time>2015-06-23T08:35:18Z</time>
      </trkpt>
      <trkpt lat="42.11389" lon="9.1397">
        <ele>1202</ele>
        <time>2015-06-23T08:35:34Z</time>
      </trkpt>
      <trkpt lat="42.11385" lon="9.13967">
        <ele>1202.2</ele>
        <time>2015-06-23T08:35:39Z</time>
      </trkpt>
      <trkpt lat="42.11376" lon="9.13966">
        <ele>1202.4</ele>
        <time>2015-06-23T08:35:47Z</time>
      </trkpt>
      <trkpt lat="42.11369" lon="9.13962">
        <ele>1202.2</ele>
        <time>2015-06-23T08:35:52Z</time>
      </trkpt>
      <trkpt lat="42.1136" lon="9.13954">
        <ele>1201.2</ele>
        <time>2015-06-23T08:35:59Z</time>
      </trkpt>
      <trkpt lat="42.11336" lon="9.13926">
        <ele>1200.2</ele>
        <time>2015-06-23T08:36:36Z</time>
      </trkpt>
      <trkpt lat="42.11334" lon="9.13923">
        <ele>1200</ele>
        <time>2015-06-23T08:36:38Z</time>
      </trkpt>
      <trkpt lat="42.1133" lon="9.13915">
        <ele>1199.8</ele>
        <time>2015-06-23T08:36:42Z</time>
      </trkpt>
      <trkpt lat="42.11322" lon="9.13884">
        <ele>1199</ele>
        <time>2015-06-23T08:37:05Z</time>
      </trkpt>
      <trkpt lat="42.11309" lon="9.1387">
        <ele>1198</ele>
        <time>2015-06-23T08:37:22Z</time>
      </trkpt>
      <trkpt lat="42.11281" lon="9.13862">
        <ele>1197.6</ele>
        <time>2015-06-23T08:37:58Z</time>
      </trkpt>
      <trkpt lat="42.11272" lon="9.13862">
        <ele>1196.8</ele>
        <time>2015-06-23T08:38:11Z</time>
      </trkpt>
      <trkpt lat="42.1126" lon="9.13861">
        <ele>1195.8</ele>
        <time>2015-06-23T08:38:25Z</time>
      </trkpt>
      <trkpt lat="42.11252" lon="9.13858">
        <ele>1195</ele>
        <time>2015-06-23T08:38:33Z</time>
      </trkpt>
      <trkpt lat="42.11246" lon="9.13855">
        <ele>1194.8</ele>
        <time>2015-06-23T08:38:37Z</time>
      </trkpt>
      <trkpt lat="42.11243" lon="9.13853">
        <ele>1194.6</ele>
        <time>2015-06-23T08:38:40Z</time>
      </trkpt>
      <trkpt lat="42.11242" lon="9.13851">
        <ele>1194.6</ele>
        <time>2015-06-23T08:38:42Z</time>
      </trkpt>
      <trkpt lat="42.11233" lon="9.13845">
        <ele>1194.2</ele>
        <time>2015-06-23T08:38:53Z</time>
      </trkpt>
      <trkpt lat="42.11211" lon="9.13827">
        <ele>1194</ele>
        <time>2015-06-23T08:39:12Z</time>
      </trkpt>
      <trkpt lat="42.11204" lon="9.13818">
        <ele>1193</ele>
        <time>2015-06-23T08:39:20Z</time>
      </trkpt>
      <trkpt lat="42.11189" lon="9.138">
        <ele>1191.8</ele>
        <time>2015-06-23T08:39:38Z</time>
      </trkpt>
      <trkpt lat="42.11187" lon="9.13796">
        <ele>1191.6</ele>
        <time>2015-06-23T08:39:43Z</time>
      </trkpt>
      <trkpt lat="42.11184" lon="9.13793">
        <ele>1191.2</ele>
        <time>2015-06-23T08:39:48Z</time>
      </trkpt>
      <trkpt lat="42.11183" lon="9.13791">
        <ele>1191</ele>
        <time>2015-06-23T08:39:50Z</time>
      </trkpt>
      <trkpt lat="42.11182" lon="9.13782">
        <ele>1190.4</ele>
        <time>2015-06-23T08:39:58Z</time>
      </trkpt>
      <trkpt lat="42.1118" lon="9.13768">
        <ele>1189.8</ele>
        <time>2015-06-23T08:40:06Z</time>
      </trkpt>
      <trkpt lat="42.11183" lon="9.13752">
        <ele>1189.2</ele>
        <time>2015-06-23T08:40:17Z</time>
      </trkpt>
      <trkpt lat="42.11187" lon="9.13746">
        <ele>1188.2</ele>
        <time>2015-06-23T08:40:24Z</time>
      </trkpt>
      <trkpt lat="42.11191" lon="9.13743">
        <ele>1187</ele>
        <time>2015-06-23T08:40:45Z</time>
      </trkpt>
      <trkpt lat="42.11195" lon="9.13745">
        <ele>1186.4</ele>
        <time>2015-06-23T08:40:52Z</time>
      </trkpt>
      <trkpt lat="42.11195" lon="9.13745">
        <ele>1186.2</ele>
        <time>2015-06-23T08:40:53Z</time>
      </trkpt>
      <trkpt lat="42.11201" lon="9.13747">
        <ele>1185</ele>
        <time>2015-06-23T08:41:02Z</time>
      </trkpt>
      <trkpt lat="42.11206" lon="9.13749">
        <ele>1184</ele>
        <time>2015-06-23T08:41:11Z</time>
      </trkpt>
      <trkpt lat="42.11211" lon="9.1375">
        <ele>1183.2</ele>
        <time>2015-06-23T08:41:18Z</time>
      </trkpt>
      <trkpt lat="42.11216" lon="9.13751">
        <ele>1182.2</ele>
        <time>2015-06-23T08:41:27Z</time>
      </trkpt>
      <trkpt lat="42.1122" lon="9.13752">
        <ele>1181.2</ele>
        <time>2015-06-23T08:41:33Z</time>
      </trkpt>
      <trkpt lat="42.11227" lon="9.13754">
        <ele>1181</ele>
        <time>2015-06-23T08:41:38Z</time>
      </trkpt>
      <trkpt lat="42.11238" lon="9.13752">
        <ele>1180</ele>
        <time>2015-06-23T08:41:49Z</time>
      </trkpt>
      <trkpt lat="42.11247" lon="9.1375">
        <ele>1179</ele>
        <time>2015-06-23T08:41:58Z</time>
      </trkpt>
      <trkpt lat="42.11256" lon="9.13751">
        <ele>1178</ele>
        <time>2015-06-23T08:42:07Z</time>
      </trkpt>
      <trkpt lat="42.1126" lon="9.13749">
        <ele>1176.8</ele>
        <time>2015-06-23T08:42:14Z</time>
      </trkpt>
      <trkpt lat="42.11263" lon="9.13751">
        <ele>1176.4</ele>
        <time>2015-06-23T08:42:18Z</time>
      </trkpt>
      <trkpt lat="42.11265" lon="9.13751">
        <ele>1176</ele>
        <time>2015-06-23T08:42:20Z</time>
      </trkpt>
      <trkpt lat="42.11274" lon="9.13752">
        <ele>1174.8</ele>
        <time>2015-06-23T08:42:27Z</time>
      </trkpt>
      <trkpt lat="42.11284" lon="9.1375">
        <ele>1173.6</ele>
        <time>2015-06-23T08:42:35Z</time>
      </trkpt>
      <trkpt lat="42.11293" lon="9.1375">
        <ele>1173.2</ele>
        <time>2015-06-23T08:42:41Z</time>
      </trkpt>
      <trkpt lat="42.11303" lon="9.13745">
        <ele>1171.4</ele>
        <time>2015-06-23T08:42:52Z</time>
      </trkpt>
      <trkpt lat="42.11311" lon="9.1374">
        <ele>1170.8</ele>
        <time>2015-06-23T08:43:01Z</time>
      </trkpt>
      <trkpt lat="42.11318" lon="9.13732">
        <ele>1169.8</ele>
        <time>2015-06-23T08:43:10Z</time>
      </trkpt>
      <trkpt lat="42.11325" lon="9.13729">
        <ele>1169</ele>
        <time>2015-06-23T08:43:17Z</time>
      </trkpt>
      <trkpt lat="42.11332" lon="9.13728">
        <ele>1167.8</ele>
        <time>2015-06-23T08:43:24Z</time>
      </trkpt>
      <trkpt lat="42.11337" lon="9.13726">
        <ele>1166.8</ele>
        <time>2015-06-23T08:43:31Z</time>
      </trkpt>
      <trkpt lat="42.11343" lon="9.13727">
        <ele>1165.8</ele>
        <time>2015-06-23T08:43:38Z</time>
      </trkpt>
      <trkpt lat="42.11348" lon="9.13726">
        <ele>1164.8</ele>
        <time>2015-06-23T08:43:46Z</time>
      </trkpt>
      <trkpt lat="42.11355" lon="9.13723">
        <ele>1163.8</ele>
        <time>2015-06-23T08:43:55Z</time>
      </trkpt>
      <trkpt lat="42.11361" lon="9.13719">
        <ele>1162.8</ele>
        <time>2015-06-23T08:44:02Z</time>
      </trkpt>
      <trkpt lat="42.11367" lon="9.13715">
        <ele>1161.6</ele>
        <time>2015-06-23T08:44:11Z</time>
      </trkpt>
      <trkpt lat="42.11372" lon="9.13712">
        <ele>1161</ele>
        <time>2015-06-23T08:44:17Z</time>
      </trkpt>
      <trkpt lat="42.11376" lon="9.13709">
        <ele>1160</ele>
        <time>2015-06-23T08:44:24Z</time>
      </trkpt>
      <trkpt lat="42.11377" lon="9.13709">
        <ele>1159.8</ele>
        <time>2015-06-23T08:44:25Z</time>
      </trkpt>
      <trkpt lat="42.11382" lon="9.13705">
        <ele>1158.6</ele>
        <time>2015-06-23T08:44:33Z</time>
      </trkpt>
      <trkpt lat="42.11384" lon="9.13706">
        <ele>1158.8</ele>
        <time>2015-06-23T08:44:34Z</time>
      </trkpt>
      <trkpt lat="42.11391" lon="9.13705">
        <ele>1157.6</ele>
        <time>2015-06-23T08:44:42Z</time>
      </trkpt>
      <trkpt lat="42.11395" lon="9.13704">
        <ele>1157.2</ele>
        <time>2015-06-23T08:44:48Z</time>
      </trkpt>
      <trkpt lat="42.11405" lon="9.13703">
        <ele>1155.8</ele>
        <time>2015-06-23T08:44:57Z</time>
      </trkpt>
      <trkpt lat="42.11409" lon="9.137">
        <ele>1155.2</ele>
        <time>2015-06-23T08:45:04Z</time>
      </trkpt>
      <trkpt lat="42.11416" lon="9.137">
        <ele>1154.4</ele>
        <time>2015-06-23T08:45:10Z</time>
      </trkpt>
      <trkpt lat="42.11422" lon="9.13702">
        <ele>1153.4</ele>
        <time>2015-06-23T08:45:15Z</time>
      </trkpt>
      <trkpt lat="42.11424" lon="9.13699">
        <ele>1152.8</ele>
        <time>2015-06-23T08:45:18Z</time>
      </trkpt>
      <trkpt lat="42.11423" lon="9.13696">
        <ele>1152.4</ele>
        <time>2015-06-23T08:45:20Z</time>
      </trkpt>
      <trkpt lat="42.11422" lon="9.13694">
        <ele>1152</ele>
        <time>2015-06-23T08:45:22Z</time>
      </trkpt>
      <trkpt lat="42.11395" lon="9.13684">
        <ele>1152</ele>
        <time>2015-06-23T08:45:52Z</time>
      </trkpt>
      <trkpt lat="42.11373" lon="9.13683">
        <ele>1153.4</ele>
        <time>2015-06-23T08:46:15Z</time>
      </trkpt>
      <trkpt lat="42.11342" lon="9.13696">
        <ele>1155</ele>
        <time>2015-06-23T08:46:47Z</time>
      </trkpt>
      <trkpt lat="42.11328" lon="9.13703">
        <ele>1155</ele>
        <time>2015-06-23T08:47:04Z</time>
      </trkpt>
      <trkpt lat="42.11314" lon="9.1371">
        <ele>1153.6</ele>
        <time>2015-06-23T08:47:21Z</time>
      </trkpt>
      <trkpt lat="42.11281" lon="9.13709">
        <ele>1153</ele>
        <time>2015-06-23T08:47:50Z</time>
      </trkpt>
      <trkpt lat="42.11271" lon="9.1371">
        <ele>1152.6</ele>
        <time>2015-06-23T08:48:00Z</time>
      </trkpt>
      <trkpt lat="42.1123" lon="9.13685">
        <ele>1151.8</ele>
        <time>2015-06-23T08:48:40Z</time>
      </trkpt>
      <trkpt lat="42.11231" lon="9.13673">
        <ele>1151.6</ele>
        <time>2015-06-23T08:48:53Z</time>
      </trkpt>
      <trkpt lat="42.11245" lon="9.13632">
        <ele>1154</ele>
        <time>2015-06-23T08:49:42Z</time>
      </trkpt>
      <trkpt lat="42.11248" lon="9.1361">
        <ele>1155.2</ele>
        <time>2015-06-23T08:50:01Z</time>
      </trkpt>
      <trkpt lat="42.11267" lon="9.13566">
        <ele>1156.8</ele>
        <time>2015-06-23T08:50:33Z</time>
      </trkpt>
      <trkpt lat="42.11291" lon="9.13533">
        <ele>1158.4</ele>
        <time>2015-06-23T08:51:04Z</time>
      </trkpt>
      <trkpt lat="42.11305" lon="9.13513">
        <ele>1159.4</ele>
        <time>2015-06-23T08:51:28Z</time>
      </trkpt>
      <trkpt lat="42.11315" lon="9.13502">
        <ele>1160.4</ele>
        <time>2015-06-23T08:51:42Z</time>
      </trkpt>
      <trkpt lat="42.11317" lon="9.13493">
        <ele>1161.4</ele>
        <time>2015-06-23T08:51:51Z</time>
      </trkpt>
      <trkpt lat="42.11317" lon="9.1349">
        <ele>1161.8</ele>
        <time>2015-06-23T08:51:54Z</time>
      </trkpt>
      <trkpt lat="42.11316" lon="9.13483">
        <ele>1162.2</ele>
        <time>2015-06-23T08:52:00Z</time>
      </trkpt>
      <trkpt lat="42.11333" lon="9.13453">
        <ele>1163.4</ele>
        <time>2015-06-23T08:52:31Z</time>
      </trkpt>
      <trkpt lat="42.11345" lon="9.13447">
        <ele>1164.4</ele>
        <time>2015-06-23T08:52:43Z</time>
      </trkpt>
      <trkpt lat="42.1136" lon="9.13431">
        <ele>1165.8</ele>
        <time>2015-06-23T08:53:02Z</time>
      </trkpt>
      <trkpt lat="42.11381" lon="9.13413">
        <ele>1167.2</ele>
        <time>2015-06-23T08:53:28Z</time>
      </trkpt>
      <trkpt lat="42.11402" lon="9.13391">
        <ele>1168.2</ele>
        <time>2015-06-23T08:53:56Z</time>
      </trkpt>
      <trkpt lat="42.11407" lon="9.13375">
        <ele>1169.2</ele>
        <time>2015-06-23T08:54:12Z</time>
      </trkpt>
      <trkpt lat="42.11422" lon="9.1334">
        <ele>1170.6</ele>
        <time>2015-06-23T08:54:47Z</time>
      </trkpt>
      <trkpt lat="42.11422" lon="9.13337">
        <ele>1170.6</ele>
        <time>2015-06-23T08:54:49Z</time>
      </trkpt>
      <trkpt lat="42.11423" lon="9.13336">
        <ele>1170.8</ele>
        <time>2015-06-23T08:54:50Z</time>
      </trkpt>
      <trkpt lat="42.11423" lon="9.13332">
        <ele>1171</ele>
        <time>2015-06-23T08:54:53Z</time>
      </trkpt>
      <trkpt lat="42.11422" lon="9.13321">
        <ele>1171.6</ele>
        <time>2015-06-23T08:55:00Z</time>
      </trkpt>
      <trkpt lat="42.11429" lon="9.13288">
        <ele>1172.8</ele>
        <time>2015-06-23T08:55:32Z</time>
      </trkpt>
      <trkpt lat="42.11466" lon="9.13252">
        <ele>1174.2</ele>
        <time>2015-06-23T08:56:20Z</time>
      </trkpt>
      <trkpt lat="42.11487" lon="9.13236">
        <ele>1174.6</ele>
        <time>2015-06-23T08:56:41Z</time>
      </trkpt>
      <trkpt lat="42.11525" lon="9.13204">
        <ele>1175.4</ele>
        <time>2015-06-23T08:57:25Z</time>
      </trkpt>
      <trkpt lat="42.11543" lon="9.13185">
        <ele>1174.6</ele>
        <time>2015-06-23T08:57:51Z</time>
      </trkpt>
      <trkpt lat="42.11543" lon="9.13183">
        <ele>1174.6</ele>
        <time>2015-06-23T08:57:53Z</time>
      </trkpt>
      <trkpt lat="42.11543" lon="9.13167">
        <ele>1173.6</ele>
        <time>2015-06-23T08:58:03Z</time>
      </trkpt>
      <trkpt lat="42.11543" lon="9.13165">
        <ele>1173.6</ele>
        <time>2015-06-23T08:58:04Z</time>
      </trkpt>
      <trkpt lat="42.11564" lon="9.13113">
        <ele>1172.4</ele>
        <time>2015-06-23T08:58:45Z</time>
      </trkpt>
      <trkpt lat="42.11584" lon="9.13102">
        <ele>1172.6</ele>
        <time>2015-06-23T08:59:09Z</time>
      </trkpt>
      <trkpt lat="42.11605" lon="9.13105">
        <ele>1171.4</ele>
        <time>2015-06-23T08:59:29Z</time>
      </trkpt>
      <trkpt lat="42.11618" lon="9.13104">
        <ele>1170.6</ele>
        <time>2015-06-23T08:59:40Z</time>
      </trkpt>
      <trkpt lat="42.11629" lon="9.131">
        <ele>1169.6</ele>
        <time>2015-06-23T08:59:50Z</time>
      </trkpt>
      <trkpt lat="42.11642" lon="9.1309">
        <ele>1168.4</ele>
        <time>2015-06-23T09:00:03Z</time>
      </trkpt>
      <trkpt lat="42.11654" lon="9.13067">
        <ele>1167.2</ele>
        <time>2015-06-23T09:00:23Z</time>
      </trkpt>
      <trkpt lat="42.11667" lon="9.13045">
        <ele>1166.4</ele>
        <time>2015-06-23T09:00:41Z</time>
      </trkpt>
      <trkpt lat="42.11679" lon="9.13033">
        <ele>1165.4</ele>
        <time>2015-06-23T09:00:53Z</time>
      </trkpt>
      <trkpt lat="42.11699" lon="9.13013">
        <ele>1164.4</ele>
        <time>2015-06-23T09:01:15Z</time>
      </trkpt>
      <trkpt lat="42.11717" lon="9.13003">
        <ele>1163.4</ele>
        <time>2015-06-23T09:01:35Z</time>
      </trkpt>
      <trkpt lat="42.11744" lon="9.12985">
        <ele>1162.6</ele>
        <time>2015-06-23T09:02:02Z</time>
      </trkpt>
      <trkpt lat="42.11753" lon="9.12979">
        <ele>1161.8</ele>
        <time>2015-06-23T09:02:12Z</time>
      </trkpt>
      <trkpt lat="42.11763" lon="9.12975">
        <ele>1160.4</ele>
        <time>2015-06-23T09:02:23Z</time>
      </trkpt>
      <trkpt lat="42.11773" lon="9.12969">
        <ele>1159.8</ele>
        <time>2015-06-23T09:02:33Z</time>
      </trkpt>
      <trkpt lat="42.11781" lon="9.12961">
        <ele>1159</ele>
        <time>2015-06-23T09:02:42Z</time>
      </trkpt>
      <trkpt lat="42.1179" lon="9.12962">
        <ele>1157.6</ele>
        <time>2015-06-23T09:02:55Z</time>
      </trkpt>
      <trkpt lat="42.11793" lon="9.12964">
        <ele>1157.4</ele>
        <time>2015-06-23T09:02:58Z</time>
      </trkpt>
      <trkpt lat="42.11794" lon="9.12964">
        <ele>1157.2</ele>
        <time>2015-06-23T09:03:00Z</time>
      </trkpt>
      <trkpt lat="42.11797" lon="9.12964">
        <ele>1156.4</ele>
        <time>2015-06-23T09:03:05Z</time>
      </trkpt>
      <trkpt lat="42.118" lon="9.12962">
        <ele>1155.2</ele>
        <time>2015-06-23T09:03:10Z</time>
      </trkpt>
      <trkpt lat="42.11804" lon="9.12957">
        <ele>1154</ele>
        <time>2015-06-23T09:03:15Z</time>
      </trkpt>
      <trkpt lat="42.11804" lon="9.12958">
        <ele>1153.8</ele>
        <time>2015-06-23T09:03:16Z</time>
      </trkpt>
      <trkpt lat="42.11805" lon="9.1296">
        <ele>1152.8</ele>
        <time>2015-06-23T09:03:20Z</time>
      </trkpt>
      <trkpt lat="42.11805" lon="9.12965">
        <ele>1151.2</ele>
        <time>2015-06-23T09:03:27Z</time>
      </trkpt>
      <trkpt lat="42.11806" lon="9.12969">
        <ele>1150.8</ele>
        <time>2015-06-23T09:03:32Z</time>
      </trkpt>
      <trkpt lat="42.1181" lon="9.12969">
        <ele>1149.6</ele>
        <time>2015-06-23T09:03:37Z</time>
      </trkpt>
      <trkpt lat="42.11811" lon="9.12969">
        <ele>1149.4</ele>
        <time>2015-06-23T09:03:38Z</time>
      </trkpt>
      <trkpt lat="42.11816" lon="9.12967">
        <ele>1148</ele>
        <time>2015-06-23T09:03:45Z</time>
      </trkpt>
      <trkpt lat="42.11819" lon="9.12962">
        <ele>1147.2</ele>
        <time>2015-06-23T09:03:51Z</time>
      </trkpt>
      <trkpt lat="42.1182" lon="9.12956">
        <ele>1146.6</ele>
        <time>2015-06-23T09:03:56Z</time>
      </trkpt>
      <trkpt lat="42.1182" lon="9.1295">
        <ele>1145</ele>
        <time>2015-06-23T09:04:02Z</time>
      </trkpt>
      <trkpt lat="42.1182" lon="9.12942">
        <ele>1143.6</ele>
        <time>2015-06-23T09:04:09Z</time>
      </trkpt>
      <trkpt lat="42.11813" lon="9.12919">
        <ele>1142.6</ele>
        <time>2015-06-23T09:04:43Z</time>
      </trkpt>
      <trkpt lat="42.11811" lon="9.12911">
        <ele>1141.6</ele>
        <time>2015-06-23T09:04:51Z</time>
      </trkpt>
      <trkpt lat="42.1181" lon="9.12905">
        <ele>1141</ele>
        <time>2015-06-23T09:04:57Z</time>
      </trkpt>
      <trkpt lat="42.1181" lon="9.12897">
        <ele>1139.6</ele>
        <time>2015-06-23T09:05:04Z</time>
      </trkpt>
      <trkpt lat="42.11805" lon="9.12883">
        <ele>1138.2</ele>
        <time>2015-06-23T09:05:16Z</time>
      </trkpt>
      <trkpt lat="42.11805" lon="9.12881">
        <ele>1138</ele>
        <time>2015-06-23T09:05:18Z</time>
      </trkpt>
      <trkpt lat="42.11803" lon="9.12871">
        <ele>1137.6</ele>
        <time>2015-06-23T09:05:25Z</time>
      </trkpt>
      <trkpt lat="42.11802" lon="9.12865">
        <ele>1136.8</ele>
        <time>2015-06-23T09:05:31Z</time>
      </trkpt>
      <trkpt lat="42.11801" lon="9.12863">
        <ele>1136.4</ele>
        <time>2015-06-23T09:05:33Z</time>
      </trkpt>
      <trkpt lat="42.11801" lon="9.12861">
        <ele>1136.2</ele>
        <time>2015-06-23T09:05:34Z</time>
      </trkpt>
      <trkpt lat="42.11798" lon="9.12856">
        <ele>1135.6</ele>
        <time>2015-06-23T09:05:40Z</time>
      </trkpt>
      <trkpt lat="42.11798" lon="9.12854">
        <ele>1135.4</ele>
        <time>2015-06-23T09:05:41Z</time>
      </trkpt>
      <trkpt lat="42.11797" lon="9.12847">
        <ele>1134.4</ele>
        <time>2015-06-23T09:05:49Z</time>
      </trkpt>
      <trkpt lat="42.11794" lon="9.12842">
        <ele>1133.2</ele>
        <time>2015-06-23T09:05:56Z</time>
      </trkpt>
      <trkpt lat="42.11795" lon="9.12836">
        <ele>1132.4</ele>
        <time>2015-06-23T09:06:01Z</time>
      </trkpt>
      <trkpt lat="42.11794" lon="9.12832">
        <ele>1132.2</ele>
        <time>2015-06-23T09:06:04Z</time>
      </trkpt>
      <trkpt lat="42.11793" lon="9.12831">
        <ele>1131.8</ele>
        <time>2015-06-23T09:06:06Z</time>
      </trkpt>
      <trkpt lat="42.11789" lon="9.12825">
        <ele>1131.2</ele>
        <time>2015-06-23T09:06:11Z</time>
      </trkpt>
      <trkpt lat="42.11788" lon="9.12824">
        <ele>1130.8</ele>
        <time>2015-06-23T09:06:13Z</time>
      </trkpt>
      <trkpt lat="42.11784" lon="9.12812">
        <ele>1129.8</ele>
        <time>2015-06-23T09:06:20Z</time>
      </trkpt>
      <trkpt lat="42.11781" lon="9.12802">
        <ele>1128.8</ele>
        <time>2015-06-23T09:06:30Z</time>
      </trkpt>
      <trkpt lat="42.11779" lon="9.12799">
        <ele>1128.2</ele>
        <time>2015-06-23T09:06:35Z</time>
      </trkpt>
      <trkpt lat="42.11776" lon="9.12795">
        <ele>1127.8</ele>
        <time>2015-06-23T09:06:38Z</time>
      </trkpt>
      <trkpt lat="42.11773" lon="9.12789">
        <ele>1127</ele>
        <time>2015-06-23T09:06:43Z</time>
      </trkpt>
      <trkpt lat="42.11772" lon="9.12782">
        <ele>1126.6</ele>
        <time>2015-06-23T09:06:49Z</time>
      </trkpt>
      <trkpt lat="42.1177" lon="9.12769">
        <ele>1125.8</ele>
        <time>2015-06-23T09:06:57Z</time>
      </trkpt>
      <trkpt lat="42.11771" lon="9.12754">
        <ele>1124.4</ele>
        <time>2015-06-23T09:07:06Z</time>
      </trkpt>
      <trkpt lat="42.11774" lon="9.12738">
        <ele>1123</ele>
        <time>2015-06-23T09:07:17Z</time>
      </trkpt>
      <trkpt lat="42.11775" lon="9.12727">
        <ele>1122.6</ele>
        <time>2015-06-23T09:07:25Z</time>
      </trkpt>
      <trkpt lat="42.11753" lon="9.12679">
        <ele>1122.2</ele>
        <time>2015-06-23T09:08:11Z</time>
      </trkpt>
      <trkpt lat="42.11752" lon="9.12678">
        <ele>1122.4</ele>
        <time>2015-06-23T09:08:13Z</time>
      </trkpt>
      <trkpt lat="42.1174" lon="9.12667">
        <ele>1124</ele>
        <time>2015-06-23T09:08:29Z</time>
      </trkpt>
      <trkpt lat="42.11728" lon="9.12653">
        <ele>1124.6</ele>
        <time>2015-06-23T09:08:47Z</time>
      </trkpt>
      <trkpt lat="42.11716" lon="9.12645">
        <ele>1126.2</ele>
        <time>2015-06-23T09:09:01Z</time>
      </trkpt>
      <trkpt lat="42.11708" lon="9.12635">
        <ele>1127.4</ele>
        <time>2015-06-23T09:09:14Z</time>
      </trkpt>
      <trkpt lat="42.11699" lon="9.12625">
        <ele>1128.4</ele>
        <time>2015-06-23T09:09:28Z</time>
      </trkpt>
      <trkpt lat="42.11675" lon="9.12608">
        <ele>1130</ele>
        <time>2015-06-23T09:09:54Z</time>
      </trkpt>
      <trkpt lat="42.11665" lon="9.12603">
        <ele>1130.6</ele>
        <time>2015-06-23T09:10:06Z</time>
      </trkpt>
      <trkpt lat="42.11655" lon="9.12601">
        <ele>1132</ele>
        <time>2015-06-23T09:10:17Z</time>
      </trkpt>
      <trkpt lat="42.11639" lon="9.12596">
        <ele>1133.8</ele>
        <time>2015-06-23T09:10:39Z</time>
      </trkpt>
      <trkpt lat="42.11634" lon="9.12593">
        <ele>1134.2</ele>
        <time>2015-06-23T09:10:47Z</time>
      </trkpt>
      <trkpt lat="42.11633" lon="9.12591">
        <ele>1134.6</ele>
        <time>2015-06-23T09:10:49Z</time>
      </trkpt>
      <trkpt lat="42.11626" lon="9.12584">
        <ele>1135.6</ele>
        <time>2015-06-23T09:10:59Z</time>
      </trkpt>
      <trkpt lat="42.11624" lon="9.12582">
        <ele>1136</ele>
        <time>2015-06-23T09:11:02Z</time>
      </trkpt>
      <trkpt lat="42.11613" lon="9.12564">
        <ele>1137.6</ele>
        <time>2015-06-23T09:11:20Z</time>
      </trkpt>
      <trkpt lat="42.11592" lon="9.12511">
        <ele>1138.4</ele>
        <time>2015-06-23T09:12:00Z</time>
      </trkpt>
      <trkpt lat="42.11574" lon="9.12476">
        <ele>1139</ele>
        <time>2015-06-23T09:12:37Z</time>
      </trkpt>
      <trkpt lat="42.11564" lon="9.12466">
        <ele>1139.6</ele>
        <time>2015-06-23T09:12:49Z</time>
      </trkpt>
      <trkpt lat="42.11531" lon="9.12424">
        <ele>1140</ele>
        <time>2015-06-23T09:13:27Z</time>
      </trkpt>
      <trkpt lat="42.115" lon="9.12381">
        <ele>1141.2</ele>
        <time>2015-06-23T09:14:13Z</time>
      </trkpt>
      <trkpt lat="42.11485" lon="9.12366">
        <ele>1140.2</ele>
        <time>2015-06-23T09:14:33Z</time>
      </trkpt>
      <trkpt lat="42.1147" lon="9.12353">
        <ele>1139.4</ele>
        <time>2015-06-23T09:14:49Z</time>
      </trkpt>
      <trkpt lat="42.11465" lon="9.12347">
        <ele>1139.2</ele>
        <time>2015-06-23T09:14:56Z</time>
      </trkpt>
      <trkpt lat="42.1146" lon="9.12339">
        <ele>1138.4</ele>
        <time>2015-06-23T09:15:04Z</time>
      </trkpt>
      <trkpt lat="42.11456" lon="9.12333">
        <ele>1138</ele>
        <time>2015-06-23T09:15:09Z</time>
      </trkpt>
      <trkpt lat="42.11451" lon="9.12324">
        <ele>1137.8</ele>
        <time>2015-06-23T09:15:14Z</time>
      </trkpt>
      <trkpt lat="42.11445" lon="9.12305">
        <ele>1136.4</ele>
        <time>2015-06-23T09:15:30Z</time>
      </trkpt>
      <trkpt lat="42.11451" lon="9.12283">
        <ele>1135.6</ele>
        <time>2015-06-23T09:15:45Z</time>
      </trkpt>
      <trkpt lat="42.1146" lon="9.12262">
        <ele>1134.4</ele>
        <time>2015-06-23T09:15:59Z</time>
      </trkpt>
      <trkpt lat="42.11463" lon="9.12246">
        <ele>1134</ele>
        <time>2015-06-23T09:16:12Z</time>
      </trkpt>
      <trkpt lat="42.11463" lon="9.12243">
        <ele>1134</ele>
        <time>2015-06-23T09:16:15Z</time>
      </trkpt>
      <trkpt lat="42.11462" lon="9.12239">
        <ele>1134.2</ele>
        <time>2015-06-23T09:16:18Z</time>
      </trkpt>
      <trkpt lat="42.11458" lon="9.12231">
        <ele>1133.8</ele>
        <time>2015-06-23T09:16:26Z</time>
      </trkpt>
      <trkpt lat="42.11456" lon="9.12229">
        <ele>1133.6</ele>
        <time>2015-06-23T09:16:28Z</time>
      </trkpt>
      <trkpt lat="42.11455" lon="9.12227">
        <ele>1133.6</ele>
        <time>2015-06-23T09:16:30Z</time>
      </trkpt>
      <trkpt lat="42.11453" lon="9.12216">
        <ele>1132.8</ele>
        <time>2015-06-23T09:16:38Z</time>
      </trkpt>
      <trkpt lat="42.11456" lon="9.12196">
        <ele>1131</ele>
        <time>2015-06-23T09:16:56Z</time>
      </trkpt>
      <trkpt lat="42.11454" lon="9.12186">
        <ele>1130</ele>
        <time>2015-06-23T09:17:10Z</time>
      </trkpt>
      <trkpt lat="42.11453" lon="9.12176">
        <ele>1129.6</ele>
        <time>2015-06-23T09:17:20Z</time>
      </trkpt>
      <trkpt lat="42.11438" lon="9.12154">
        <ele>1129.2</ele>
        <time>2015-06-23T09:17:40Z</time>
      </trkpt>
      <trkpt lat="42.11437" lon="9.12154">
        <ele>1129.2</ele>
        <time>2015-06-23T09:17:42Z</time>
      </trkpt>
      <trkpt lat="42.11439" lon="9.12142">
        <ele>1129.6</ele>
        <time>2015-06-23T09:17:57Z</time>
      </trkpt>
      <trkpt lat="42.11435" lon="9.12147">
        <ele>1129.8</ele>
        <time>2015-06-23T09:18:03Z</time>
      </trkpt>
      <trkpt lat="42.11438" lon="9.12149">
        <ele>1129.4</ele>
        <time>2015-06-23T09:18:45Z</time>
      </trkpt>
    </trkseg>
  </trk>
</gpx>